[[{"header":{"parameterUnit":"m.s-1","parameterCategory":1,"la1":30.6,"la2":28.766,"lo1":-90.7593,"lo2":-88.6598,"dy":0.0162,"dx":0.0183,"nx":116,"ny":114,"refTime":"2023-09-15T18:00:00:Z","depth":0,"parameterNumber":2,"parameterNumberName":"U-component_of_WINDS"},"data":[0.0,0.0,0.0,0.0,0.0,0.0,0.0,0.0,0.0,0.0,0.0,0.0,0.0,0.0,0.0,0.0,0.0,0.0,0.0,0.0,0.0,0.0,0.0,0.0,0.0,0.0,0.0,0.0,0.0,0.0,0.0,0.0,0.0,0.0,0.0,0.0,0.0,0.0,0.0,0.0,0.0,0.0,0.0,0.0,0.0,0.0,0.0,0.0,0.0,0.0,0.0,0.0,0.0,0.0,0.0,0.0,0.0,0.0,0.0,0.0,0.0,0.0,0.0,0.0,0.0,0.0,0.0,0.0,0.0,0.0,0.0,0.0,0.0,0.0,0.0,0.0,0.0,0.0,0.0,0.0,0.0,0.0,0.0,0.0,0.0,0.0,0.0,0.0,0.0,0.0,0.0,0.0,0.0,0.0,0.0,0.0,0.0,0.0,0.0,0.0,0.0,0.0,0.0,0.0,0.0,0.0,0.0,0.0,0.0,0.0,0.0,0.0,0.0,0.0,0.0,0.0,0.0,0.0,0.0,0.0,0.0,0.0,0.0,0.0,0.0,0.0,0.0,0.0,0.0,0.0,0.0,0.0,0.0,0.0,0.0,0.0,0.0,0.0,0.0,0.0,0.0,0.0,0.0,0.0,0.0,0.0,0.0,0.0,0.0,0.0,0.0,0.0,0.0,0.0,0.0,0.0,0.0,0.0,0.0,0.0,0.0,0.0,0.0,0.0,0.0,0.0,0.0,0.0,0.0,0.0,0.0,0.0,0.0,0.0,0.0,0.0,0.0,0.0,0.0,0.0,0.0,0.0,0.0,0.0,0.0,0.0,0.0,0.0,0.0,0.0,0.0,0.0,0.0,0.0,0.0,0.0,0.0,0.0,0.0,0.0,0.0,0.0,0.0,0.0,0.0,0.0,0.0,0.0,0.0,0.0,0.0,0.0,0.0,0.0,0.0,0.0,0.0,0.0,0.0,0.0,0.0,0.0,0.0,0.0,0.0,0.0,0.0,0.0,0.0,0.0,0.0,0.0,0.0,0.0,0.0,0.0,0.0,0.0,0.0,0.0,0.0,0.0,0.0,0.0,0.0,0.0,0.0,0.0,0.0,0.0,0.0,0.0,0.0,0.0,0.0,0.0,0.0,0.0,0.0,0.0,0.0,0.0,0.0,0.0,0.0,0.0,0.0,0.0,0.0,0.0,0.0,0.0,0.0,0.0,0.0,0.0,0.0,0.0,0.0,0.0,0.0,0.0,0.0,0.0,0.0,0.0,0.0,0.0,0.0,0.0,0.0,0.0,0.0,0.0,0.0,0.0,0.0,0.0,0.0,0.0,0.0,0.0,0.0,0.0,0.0,0.0,0.0,0.0,0.0,0.0,0.0,0.0,0.0,0.0,0.0,0.0,0.0,0.0,0.0,0.0,0.0,0.0,0.0,0.0,0.0,0.0,0.0,0.0,0.0,0.0,0.0,0.0,0.0,0.0,0.0,0.0,0.0,0.0,0.0,0.0,0.0,0.0,0.0,0.0,0.0,0.0,0.0,0.0,0.0,0.0,0.0,0.0,0.0,0.0,0.0,0.0,0.0,0.0,0.0,0.0,0.0,0.0,0.0,0.0,0.0,0.0,0.0,0.0,0.0,0.0,0.0,0.0,0.0,0.0,0.0,0.0,0.0,0.0,0.0,0.0,0.0,0.0,0.0,0.0,0.0,0.0,0.0,0.0,0.0,0.0,0.0,0.0,0.0,0.0,0.0,0.0,0.0,0.0,0.0,0.0,0.0,0.0,0.0,0.0,0.0,0.0,0.0,0.0,0.0,0.0,0.0,0.0,0.0,0.0,0.0,0.0,0.0,0.0,0.0,0.0,0.0,0.0,0.0,0.0,0.0,0.0,0.0,0.0,0.0,0.0,0.0,0.0,0.0,0.0,0.0,0.0,0.0,0.0,0.0,0.0,0.0,0.0,0.0,0.0,0.0,0.0,0.0,0.0,0.0,0.0,0.0,0.0,0.0,0.0,0.0,0.0,0.0,0.0,0.0,0.0,0.0,0.0,0.0,0.0,0.0,0.0,0.0,0.0,0.0,0.0,0.0,0.0,0.0,0.0,0.0,0.0,0.0,0.0,0.0,0.0,0.0,0.0,0.0,0.0,0.0,0.0,0.0,0.0,0.0,0.0,0.0,0.0,0.0,0.0,0.0,0.0,0.0,0.0,0.0,0.0,0.0,0.0,0.0,0.0,0.0,0.0,0.0,0.0,0.0,0.0,0.0,0.0,0.0,0.0,0.0,0.0,0.0,0.0,0.0,0.0,0.0,0.0,0.0,0.0,0.0,0.0,0.0,0.0,0.0,0.0,0.0,0.0,0.0,0.0,0.0,0.0,0.0,0.0,0.0,0.0,0.0,0.0,0.0,0.0,0.0,0.0,0.0,0.0,0.0,0.0,0.0,0.0,0.0,0.0,0.0,0.0,0.0,0.0,0.0,0.0,0.0,0.0,0.0,0.0,0.0,0.0,0.0,0.0,0.0,0.0,0.0,0.0,0.0,0.0,0.0,0.0,0.0,0.0,0.0,0.0,0.0,0.0,0.0,0.0,0.0,0.0,0.0,0.0,0.0,0.0,0.0,0.0,0.0,0.0,0.0,0.0,0.0,0.0,0.0,0.0,0.0,0.0,0.0,0.0,0.0,0.0,0.0,0.0,0.0,0.0,0.0,0.0,0.0,0.0,0.0,0.0,0.0,0.0,0.0,0.0,0.0,0.0,0.0,0.0,0.0,0.0,0.0,0.0,0.0,0.0,0.0,0.0,0.0,0.0,0.0,0.0,0.0,0.0,0.0,0.0,0.0,0.0,0.0,0.0,0.0,0.0,0.0,0.0,0.0,0.0,0.0,0.0,0.0,0.0,0.0,0.0,0.0,0.0,0.0,0.0,0.0,0.0,0.0,0.0,0.0,0.0,0.0,0.0,0.0,0.0,0.0,0.0,0.0,0.0,0.0,0.0,0.0,0.0,0.0,0.0,0.0,0.0,0.0,0.0,0.0,0.0,0.0,0.0,0.0,0.0,0.0,0.0,0.0,0.0,0.0,0.0,0.0,0.0,0.0,0.0,0.0,0.0,0.0,0.0,0.0,0.0,0.0,0.0,0.0,0.0,0.0,0.0,0.0,0.0,0.0,0.0,0.0,0.0,0.0,0.0,0.0,0.0,0.0,0.0,0.0,0.0,0.0,0.0,0.0,0.0,0.0,0.0,0.0,0.0,0.0,0.0,0.0,0.0,0.0,0.0,0.0,0.0,0.0,0.0,0.0,0.0,0.0,0.0,0.0,0.0,0.0,0.0,0.0,0.0,0.0,0.0,0.0,0.0,0.0,0.0,0.0,0.0,0.0,0.0,0.0,0.0,0.0,0.0,0.0,0.0,0.0,0.0,0.0,0.0,0.0,0.0,0.0,0.0,0.0,0.0,0.0,0.0,0.0,0.0,0.0,0.0,0.0,0.0,0.0,0.0,0.0,0.0,0.0,0.0,0.0,0.0,0.0,0.0,0.0,0.0,0.0,0.0,0.0,0.0,0.0,0.0,0.0,0.0,0.0,0.0,0.0,0.0,0.0,0.0,0.0,0.0,0.0,0.0,0.0,0.0,0.0,0.0,0.0,0.0,0.0,0.0,0.0,0.0,0.0,0.0,0.0,0.0,0.0,0.0,0.0,0.0,0.0,0.0,0.0,0.0,0.0,0.0,0.0,0.0,0.0,0.0,0.0,0.0,0.0,0.0,0.0,0.0,0.0,0.0,0.0,0.0,0.0,0.0,0.0,0.0,0.0,0.0,0.0,0.0,0.0,0.0,0.0,0.0,0.0,0.0,0.0,0.0,0.0,0.0,0.0,0.0,0.0,0.0,0.0,0.0,0.0,0.0,0.0,0.0,0.0,0.0,0.0,0.0,0.0,0.0,0.0,0.0,0.0,0.0,0.0,0.0,0.0,0.0,0.0,0.0,0.0,0.0,0.0,0.0,0.0,0.0,0.0,0.0,0.0,0.0,0.0,0.0,0.0,0.0,0.0,0.0,0.0,0.0,0.0,0.0,0.0,0.0,0.0,0.0,0.0,0.0,0.0,0.0,0.0,0.0,0.0,0.0,0.0,0.0,0.0,0.0,0.0,0.0,0.0,0.0,0.0,0.0,0.0,0.0,0.0,0.0,0.0,0.0,0.0,0.0,0.0,0.0,0.0,0.0,0.0,0.0,0.0,0.0,0.0,0.0,0.0,0.0,0.0,0.0,0.0,0.0,0.0,0.0,0.0,0.0,0.0,0.0,0.0,0.0,0.0,0.0,0.0,0.0,0.0,0.0,0.0,0.0,0.0,0.0,0.0,0.0,0.0,0.0,0.0,0.0,0.0,0.0,0.0,0.0,0.0,0.0,0.0,0.0,0.0,0.0,0.0,0.0,0.0,0.0,0.0,0.0,0.0,0.0,0.0,0.0,0.0,0.0,0.0,0.0,0.0,0.0,0.0,0.0,0.0,0.0,0.0,0.0,0.0,0.0,0.0,0.0,0.0,0.0,0.0,0.0,0.0,0.0,0.0,0.0,0.0,0.0,0.0,0.0,0.0,0.0,0.0,0.0,0.0,0.0,0.0,0.0,0.0,0.0,0.0,0.0,0.0,0.0,0.0,0.0,0.0,0.0,0.0,0.0,0.0,0.0,0.0,0.0,0.0,0.0,0.0,0.0,0.0,0.0,0.0,0.0,0.0,0.0,0.0,0.0,0.0,0.0,0.0,0.0,0.0,0.0,0.0,0.0,0.0,0.0,0.0,0.0,0.0,0.0,0.0,0.0,0.0,0.0,0.0,0.0,0.0,0.0,0.0,0.0,0.0,0.0,0.0,0.0,0.0,0.0,0.0,0.0,0.0,0.0,0.0,0.0,0.0,0.0,0.0,0.0,0.0,0.0,0.0,0.0,0.0,0.0,0.0,0.0,0.0,0.0,0.0,0.0,0.0,0.0,0.0,0.0,0.0,0.0,0.0,0.0,0.0,0.0,0.0,0.0,0.0,0.0,0.0,0.0,0.0,0.0,0.0,0.0,0.0,0.0,0.0,0.0,0.0,0.0,0.0,0.0,0.0,0.0,0.0,0.0,0.0,0.0,0.0,0.0,0.0,0.0,0.0,0.0,0.0,0.0,0.0,0.0,0.0,0.0,0.0,0.0,0.0,0.0,0.0,0.0,0.0,0.0,0.0,0.0,0.0,0.0,0.0,0.0,0.0,0.0,0.0,0.0,0.0,0.0,0.0,0.0,0.0,0.0,0.0,0.0,0.0,0.0,0.0,0.0,0.0,0.0,0.0,0.0,0.0,0.0,0.0,0.0,0.0,0.0,0.0,0.0,0.0,0.0,0.0,0.0,0.0,0.0,0.0,0.0,0.0,0.0,0.0,0.0,0.0,0.0,0.0,0.0,0.0,0.0,0.0,0.0,0.0,0.0,0.0,0.0,0.0,0.0,0.0,0.0,0.0,0.0,0.0,0.0,0.0,0.0,0.0,0.0,0.0,0.0,0.0,0.0,0.0,0.0,0.0,0.0,0.0,0.0,0.0,0.0,0.0,0.0,0.0,0.0,0.0,0.0,0.0,0.0,0.0,0.0,0.0,0.0,0.0,0.0,0.0,0.0,0.0,0.0,0.0,0.0,0.0,0.0,0.0,0.0,0.0,0.0,0.0,0.0,0.0,0.0,0.0,0.0,0.0,0.0,0.0,0.0,0.0,0.0,0.0,0.0,0.0,0.0,0.0,0.0,0.0,0.0,0.0,0.0,0.0,0.0,0.0,0.0,0.0,0.0,0.0,0.0,0.0,0.0,0.0,0.0,0.0,0.0,0.0,0.0,0.0,0.0,0.0,0.0,0.0,0.0,0.0,0.0,0.0,0.0,0.0,0.0,0.0,0.0,0.0,0.0,0.0,0.0,0.0,0.0,0.0,0.0,0.0,0.0,0.0,0.0,0.0,0.0,0.0,0.0,0.0,0.0,0.0,0.0,0.0,0.0,0.0,0.0,0.0,0.0,0.0,0.0,0.0,0.0,0.0,0.0,0.0,0.0,0.0,0.0,0.0,0.0,0.0,0.0,1.224,0.0,0.0,0.0,0.0,0.0,0.0,0.0,0.0,0.0,0.0,0.0,0.0,0.0,0.0,0.0,0.0,0.0,0.0,0.0,0.0,0.0,0.0,0.0,0.0,0.0,0.0,0.0,0.0,0.0,0.0,0.0,0.0,0.0,0.0,0.0,0.0,0.0,0.0,0.0,0.0,0.0,0.0,0.0,0.0,0.0,0.0,0.0,0.0,0.0,0.0,0.0,0.0,0.0,0.0,0.0,0.0,0.0,0.0,0.0,0.0,0.0,0.0,0.0,0.0,0.0,0.0,0.0,0.0,0.0,0.0,0.0,0.0,0.0,0.0,0.0,0.0,0.0,0.0,0.0,0.0,0.0,0.0,0.0,0.0,0.0,0.0,0.0,0.0,0.0,0.0,0.0,0.0,0.0,0.0,0.0,0.0,0.0,0.0,0.0,0.0,0.0,0.0,0.0,0.0,0.0,0.0,0.0,0.0,0.0,0.0,0.0,0.0,0.0,0.0,0.0,0.0,1.3318,0.0,0.0,0.0,0.0,0.0,0.0,0.0,0.0,0.0,0.0,0.0,0.0,0.0,0.0,0.0,0.0,0.0,0.0,0.0,0.0,0.0,0.0,0.0,0.0,0.0,0.0,0.0,0.0,0.0,0.0,0.0,0.0,0.0,0.0,0.0,0.0,0.0,0.0,0.0,0.0,0.0,0.0,0.0,0.0,0.0,0.0,0.0,0.0,0.0,0.0,0.0,0.0,0.0,0.0,0.0,0.0,0.0,0.0,0.0,0.0,0.0,0.0,0.0,0.0,0.0,0.0,0.0,0.0,0.0,0.0,0.0,0.0,0.0,0.0,0.0,0.0,0.0,0.0,0.0,0.0,0.0,0.0,0.0,0.0,0.0,0.0,0.0,0.0,0.0,0.0,0.0,0.0,0.0,0.0,0.0,0.0,0.0,0.0,0.0,0.0,0.0,0.0,0.0,0.0,0.0,0.0,0.0,0.0,1.4394,1.4984,1.5624,1.6286,1.6439,1.6114,1.4742,1.3759,1.3203,1.4024,0.0,0.0,0.0,0.0,0.0,0.0,0.0,0.0,0.0,0.0,0.0,0.0,0.0,0.0,0.0,0.0,0.0,0.0,0.0,0.0,0.0,0.0,0.0,0.0,0.0,0.0,0.0,0.0,0.0,0.0,0.0,0.0,0.0,0.0,0.0,0.0,0.0,0.0,0.9733,1.0527,1.1192,1.1646,0.9695,0.0,0.0,0.0,0.0,0.0,0.0,0.0,0.0,0.0,0.0,0.0,0.0,0.0,0.0,0.0,0.0,0.0,0.0,0.0,0.0,0.0,0.0,0.0,0.0,0.0,0.0,0.0,0.0,0.0,0.0,0.0,0.0,0.0,0.0,0.0,0.0,0.0,0.0,0.0,0.0,0.0,0.0,0.0,1.0193,1.0204,0.0,0.0,0.0,0.0,0.0,0.0,0.0,0.0,0.0,0.0,0.0,0.0,0.0,1.247,1.3109,1.3842,1.4324,1.4557,1.4533,1.4348,1.3994,1.4093,1.4614,1.5349,1.5205,0.0,1.4791,1.3731,0.0,0.0,0.0,0.0,0.0,0.0,0.0,0.0,0.0,0.0,0.0,0.0,0.0,0.0,0.0,0.0,0.0,0.0,0.0,0.0,0.0,0.0,0.0,0.0,0.0,0.0,0.0,0.0,0.0,0.0,0.0,0.0,0.0,0.0,0.0,0.0,0.8755,0.9522,1.0237,1.0978,1.1268,1.1165,1.0319,0.9589,0.9024,0.9028,0.0,0.0,0.0,0.0,0.0,0.0,0.0,0.0,0.0,0.0,0.0,0.0,0.0,0.0,0.0,0.0,0.0,0.0,0.0,0.0,0.0,0.0,0.0,0.0,0.0,0.0,0.0,0.0,0.0,0.0,0.0,0.0,0.0,0.0,0.0,0.0,0.0,0.0,0.0,1.0136,1.063,0.9973,1.0233,1.0364,0.0,0.0,0.0,0.0,0.0,0.0,0.0,0.0,0.0,1.0833,1.2243,1.3076,1.3258,1.3517,1.4176,1.5219,1.5138,1.5524,1.6227,1.6227,1.6109,1.5847,1.5602,1.5082,1.4481,1.4628,1.4569,1.4411,0.0,0.0,0.0,0.0,1.4767,1.5695,0.0,0.0,0.0,0.0,0.0,0.0,0.0,0.0,0.0,0.0,0.0,0.0,0.0,0.0,0.0,1.0103,0.0,0.0,0.0,0.0,0.0,0.0,0.0,0.0,0.0,0.0,0.0,0.9539,1.0414,1.0907,1.0995,1.1369,1.1449,1.1313,1.1379,1.065,0.9334,0.9427,0.8707,0.0,0.0,0.0,0.0,0.0,0.0,0.0,0.0,0.0,0.0,0.0,0.0,0.0,0.0,0.0,0.0,0.0,0.0,0.0,0.0,0.0,0.0,0.0,0.0,0.0,0.0,0.0,0.0,0.0,0.0,0.0,0.0,0.0,0.0,0.0,0.0,0.0,0.0,1.0312,1.0743,0.9734,1.053,1.1021,0.0,0.0,0.0,0.0,0.0,0.0,1.1066,1.2232,1.2624,1.1981,1.3057,1.3608,1.3464,1.3533,1.4283,1.5706,1.5889,1.664,1.7941,1.7941,1.741,1.6539,1.5821,1.5028,1.4316,1.5016,1.5166,1.4917,1.4881,1.5165,1.5559,1.4964,1.5437,1.6272,0.0,0.0,0.0,0.0,0.0,0.0,0.0,0.0,0.0,0.0,0.0,0.0,0.0,0.0,1.1412,1.3377,1.3182,1.2857,0.0,0.0,0.0,0.0,0.0,0.0,0.0,0.0,0.0,1.0985,1.0616,1.1171,1.2578,1.2097,1.2427,1.343,1.3187,1.2113,1.0526,1.0663,0.9907,0.8625,0.0,0.0,0.0,0.0,0.0,0.0,0.0,0.0,0.0,0.0,0.0,0.0,0.0,0.0,0.0,0.0,0.0,0.0,0.0,0.0,0.0,0.0,0.0,0.0,0.0,0.0,0.0,0.0,0.0,0.0,0.0,0.0,0.0,0.0,0.0,0.0,0.0,0.0,0.0,1.0233,1.0994,0.0,0.0,0.0,0.0,1.2258,1.2679,1.3115,1.3511,1.4348,1.443,1.3428,1.3839,1.439,1.5007,1.5018,1.5331,1.5987,1.6683,1.7061,1.7157,1.7157,1.7145,1.6988,1.5836,1.5263,1.5143,1.4122,1.4063,1.4714,1.5719,1.6518,1.7,1.62,1.6365,1.679,0.0,0.0,0.0,0.0,0.0,0.0,0.0,0.0,0.0,0.0,0.0,0.0,0.0,1.2555,1.3579,1.426,1.4866,1.4457,1.2688,0.0,0.0,0.0,0.0,0.0,0.0,0.0,1.0985,1.2311,1.2156,1.2613,1.3667,1.3462,1.3599,1.3983,1.3884,1.3404,1.2624,1.2254,1.124,0.9854,0.9109,0.749,0.0,0.0,0.0,0.0,0.0,0.0,0.0,0.0,0.0,0.0,0.0,0.0,0.0,0.0,0.0,0.0,0.0,0.0,0.0,0.0,0.0,0.0,0.0,0.0,0.0,0.0,0.0,0.0,0.0,0.0,0.0,0.0,0.0,0.0,0.0,0.0,0.0,1.077,1.2098,0.0,1.2626,1.2464,1.2885,1.41,1.3915,1.3929,1.4361,1.4974,1.4949,1.4346,1.4506,1.4649,1.4889,1.4617,1.4965,1.5955,1.6208,1.674,1.7425,1.7425,1.7033,1.6302,1.5877,1.5109,1.4132,1.4136,1.4114,1.4198,1.4614,1.492,1.5134,1.5241,1.5843,1.6481,0.0,0.0,0.0,0.0,0.0,0.0,0.0,0.0,0.0,0.0,0.0,1.0226,1.2231,1.3819,1.4963,1.547,1.5784,1.5028,1.2855,0.0,0.0,0.0,0.0,0.0,0.0,1.1239,1.2108,1.301,1.3076,1.337,1.3899,1.3873,1.3988,1.4208,1.4357,1.4332,1.421,1.3753,1.2634,1.1038,1.007,0.8308,0.6106,0.0,0.0,0.0,0.0,0.0,0.0,0.0,0.0,0.0,0.0,0.0,0.0,0.0,0.0,0.0,0.0,0.0,0.0,0.0,0.0,0.0,0.0,0.0,0.0,0.0,0.0,0.0,0.0,0.0,0.0,0.0,0.0,0.0,0.0,0.0,1.1873,1.1854,1.3076,1.3856,1.3785,1.359,1.4001,1.5193,1.4782,1.4756,1.5195,1.5478,1.543,1.501,1.4975,1.4984,1.5,1.4946,1.5215,1.5745,1.6231,1.6721,1.7246,1.7246,1.6795,1.6066,1.5691,1.4841,1.3701,1.3993,1.3876,1.3613,1.4286,1.4547,1.4618,1.5404,1.6202,1.6978,0.0,0.0,0.0,0.0,0.0,0.0,0.0,0.0,0.0,0.0,0.8447,1.0048,1.3028,1.4203,1.5461,1.7149,1.5791,1.4341,1.3133,1.0572,0.0,0.0,0.0,0.0,1.0852,1.228,1.3018,1.3022,1.319,1.3312,1.3312,1.324,1.3552,1.4206,1.4619,1.4904,1.5102,1.5102,1.4027,1.2252,1.1688,0.9598,0.678,0.0,0.0,0.0,0.0,0.0,0.0,0.0,0.0,0.0,0.0,0.0,0.0,0.0,0.0,0.0,0.0,0.0,0.0,0.0,0.0,0.0,0.0,0.0,0.0,0.0,0.0,0.0,0.0,0.0,0.0,0.0,0.0,0.0,1.0957,1.1506,1.2339,1.3379,1.3887,1.399,1.3654,1.3902,1.4478,1.5381,1.5439,1.5615,1.6105,1.6125,1.5869,1.5449,1.542,1.542,1.5449,1.6104,1.6093,1.543,1.6866,1.7146,1.6492,1.6492,1.6492,1.6404,1.5319,1.4561,1.4068,1.3701,1.3281,1.3085,1.4869,1.5543,1.5664,1.6841,1.7626,1.8327,0.0,0.0,0.0,0.0,0.0,0.0,0.0,0.0,0.0,0.0,1.011,1.2397,1.4253,1.5685,1.6745,1.7321,1.5235,1.3338,1.2028,0.0,0.0,0.0,0.0,0.0,1.2367,1.316,1.3459,1.3229,1.3259,1.3266,1.3236,1.3359,1.3678,1.4131,1.4456,1.485,1.5249,1.5249,1.4976,1.4493,1.3334,1.1516,0.9498,0.0,0.0,0.0,0.0,0.0,0.0,0.0,0.0,0.0,0.0,0.0,0.0,0.0,0.0,0.0,0.0,0.0,0.0,0.0,0.0,0.0,0.0,0.0,0.0,0.0,0.0,0.0,0.0,0.0,0.0,0.0,1.0803,1.1705,1.143,1.2512,1.3493,1.4072,1.4687,1.5245,1.5797,1.5371,1.5419,1.6299,1.6064,1.5937,1.6115,1.6125,1.6066,1.5889,1.5576,1.5723,1.6367,1.591,1.5742,1.5879,1.5956,1.5911,1.569,1.569,1.569,1.569,1.5341,1.5,1.457,1.4141,1.3711,1.3401,1.4047,1.4272,1.4446,1.5608,1.6928,1.821,0.0,0.0,0.0,0.0,0.0,0.0,0.0,0.0,0.0,0.0,1.0329,1.2739,1.3878,1.5397,1.6091,1.5558,1.3817,1.1988,1.0192,0.0,0.0,0.0,0.0,1.2305,1.332,1.3578,1.3708,1.3682,1.3503,1.3497,1.3621,1.3708,1.389,1.4127,1.4613,1.4755,1.4699,1.4888,1.4928,1.4789,1.4221,1.2951,1.1419,1.1219,1.0059,0.8555,0.8736,0.8838,0.8655,0.6886,0.0,0.0,0.0,0.0,0.0,0.0,0.0,0.0,0.0,0.0,0.0,0.0,0.0,0.0,0.0,0.0,0.0,0.0,0.0,0.0,0.0,0.0,0.0,0.0,1.1798,1.3161,1.3456,1.4005,1.4608,1.5266,1.5715,1.6133,1.6668,1.6084,1.6004,1.6679,1.614,1.5869,1.6115,1.6125,1.6125,1.6125,1.5996,1.6211,1.6728,1.6506,1.6377,1.6338,1.6247,1.5969,1.5684,1.5498,1.541,1.541,1.541,1.5176,1.4746,1.4307,1.3834,0.0,0.0,0.0,0.0,0.0,1.704,1.8224,0.0,0.0,0.0,0.0,0.0,0.0,0.0,0.0,0.0,0.0,0.0,1.1787,1.2582,1.3973,1.4321,1.2964,1.1991,1.053,0.0,0.0,0.0,1.1158,1.2061,1.2936,1.3843,1.3809,1.3871,1.4103,1.3723,1.3738,1.4087,1.4045,1.3998,1.3996,1.473,1.4576,1.3852,1.4305,1.4305,1.4048,1.458,1.404,1.2931,1.2887,1.2187,1.1183,1.1183,1.1367,1.1394,1.0047,0.0,0.0,0.0,0.0,0.0,0.0,0.0,0.0,0.0,0.0,0.0,0.0,0.0,0.0,0.0,0.0,0.0,0.0,0.0,0.0,0.0,0.0,0.0,0.0,1.3485,1.5168,1.6094,1.5709,1.5707,1.6563,1.6665,1.6733,1.6763,1.639,1.6249,1.6641,1.5894,1.5586,1.6027,0.0,0.0,0.0,0.0,1.6728,1.6875,1.7378,1.7265,1.6728,1.688,1.6636,1.5846,1.5468,1.5206,1.5109,1.5089,1.4907,1.4567,1.4125,1.3753,1.3449,1.3611,1.3779,1.4133,1.6145,1.741,1.8263,0.0,0.0,0.0,0.0,0.0,0.0,0.0,0.0,0.0,0.6561,0.9107,1.1103,1.1698,1.2695,1.309,1.255,1.0926,0.9563,0.0,0.0,1.0728,1.2693,1.4156,1.4727,1.4297,1.467,1.4398,1.3398,1.3327,1.332,1.3394,1.3544,1.3413,1.3082,1.3385,1.367,1.3891,1.3982,1.4224,1.4563,1.4654,1.4831,1.5105,1.6083,1.5966,1.5349,1.5349,1.5404,1.5089,1.2723,1.3324,1.424,0.9781,0.0,0.0,0.0,0.0,0.0,0.0,0.0,0.0,0.0,0.0,0.0,0.0,0.0,0.0,0.0,0.0,0.0,0.0,0.0,0.0,1.3314,1.5077,1.6471,1.7051,1.7064,1.6893,1.6704,1.6665,1.6855,1.7223,1.6596,1.6289,1.6694,1.5867,1.5449,1.5537,1.5537,1.5859,1.6582,1.6338,1.6699,1.7754,1.6898,1.6491,1.6719,0.0,0.0,1.4561,1.4488,1.3983,1.3124,1.3365,1.3459,1.3415,1.3232,1.31,1.3047,1.3046,1.3658,1.456,1.5039,1.6439,1.8145,0.0,0.0,0.0,0.0,0.0,0.0,0.0,0.0,0.0,0.0,0.8011,0.9679,1.0287,1.1127,1.1305,1.0421,0.8727,0.0,0.0,0.9729,1.126,1.3318,1.4491,1.5075,1.5063,1.4946,1.4674,1.4208,1.3959,1.3961,1.4141,1.3807,1.3536,1.3299,1.3439,1.3457,1.3453,1.3398,1.3501,1.3789,1.3747,1.4298,1.5185,1.5821,1.5849,1.5611,1.5611,1.5611,1.5392,1.4101,1.4332,1.469,1.1716,0.974,0.7818,0.0,0.0,0.0,0.0,0.0,0.0,0.0,0.0,0.0,0.0,0.0,0.0,0.0,0.0,1.0319,0.0,0.0,1.4101,1.4689,1.6198,1.7451,1.7666,1.7519,1.7383,1.7373,1.7187,1.7227,1.7656,1.7109,1.6816,1.7041,1.6445,1.5977,1.5752,1.5947,1.6269,1.6719,1.6514,1.6914,1.7998,1.6943,1.6413,1.6411,1.5581,1.4693,1.3873,1.3562,1.3117,1.2605,1.2721,1.2721,1.2575,1.2663,1.2547,1.2403,1.2774,1.3658,1.4744,1.4982,1.6384,1.8145,0.0,0.0,0.0,0.0,0.0,0.0,0.0,0.0,0.0,0.0,0.6881,0.8136,0.8904,0.9591,0.9449,0.0,0.0,0.0,0.0,0.9915,1.1574,1.3794,1.4537,1.5122,1.5622,1.4963,1.4729,1.4988,1.4648,1.4601,1.4826,1.4252,1.3852,1.3643,1.3535,1.3252,1.2731,1.2531,1.2463,1.251,1.2453,1.3086,1.4076,1.4131,1.4532,1.5013,1.4822,1.4516,1.4198,1.4406,1.3939,1.327,1.2754,1.1472,0.9473,0.624,0.5493,0.0,0.0,0.0,0.0,0.0,0.0,0.0,0.0,0.0,1.0221,1.1028,1.1581,1.2161,1.3057,1.4558,1.5771,1.5836,1.7083,1.7978,1.79,1.7529,1.7412,1.7842,1.7588,1.7519,1.7852,1.7578,1.7383,1.7383,1.6982,1.6533,1.6145,1.6406,1.6602,1.6602,1.6602,1.6973,1.7754,1.6799,1.6175,1.5869,1.4962,1.4063,1.3225,1.2715,1.2321,1.2017,1.2045,1.1914,1.1795,1.207,1.1968,1.1665,1.2403,1.3447,1.4584,1.5128,1.6498,1.8185,0.0,0.0,0.0,0.0,0.0,0.0,0.0,0.0,0.0,0.0,0.0,0.0,0.0,0.0,0.0,0.0,0.0,0.0,0.9063,1.0272,1.2103,1.4748,1.5614,1.5811,1.5355,1.4897,1.4537,1.4225,1.4298,1.4193,1.3957,1.4337,1.4016,1.3061,1.2398,1.2053,1.1899,1.129,1.1015,1.1023,1.1015,1.1484,1.2116,1.212,1.3848,1.6067,1.5174,1.379,1.2424,1.3269,1.2615,1.1599,1.2696,1.166,0.9857,0.8728,0.0,0.5275,0.3428,0.3898,0.4952,0.5223,0.6717,0.8791,0.0,0.0,1.2399,1.4393,1.5215,1.5561,1.5696,1.651,1.7174,1.7174,1.7628,1.7881,1.751,1.708,1.6973,1.7402,1.7412,1.7402,1.7451,1.7412,1.7383,1.7383,1.6982,1.6533,1.6145,1.6113,1.6194,1.6194,1.6194,1.6377,1.6875,1.5682,1.5086,1.4997,1.3821,1.2821,1.2003,1.1935,1.1233,1.0041,1.0078,1.0287,1.0554,1.0881,1.0956,1.0965,1.1665,1.2725,1.3893,1.4538,1.6182,1.8106,0.0,0.0,0.0,0.0,0.0,0.0,0.0,0.0,0.0,0.0,0.0,0.0,0.0,0.0,0.0,0.0,0.0,0.0,0.8239,0.9455,1.1188,1.3615,1.4704,1.5281,1.531,1.5438,1.5431,1.5249,1.4721,1.4383,1.4249,1.386,1.3195,1.2332,1.2016,1.1594,1.1166,1.0517,1.0415,1.0771,1.0364,1.0618,1.119,1.1025,1.1572,1.2335,1.1827,1.0891,0.0,0.0,0.9249,0.8905,1.0109,0.9621,0.8464,0.7539,0.7031,0.0,0.57,0.5306,0.0,0.0,0.9988,1.0693,1.315,1.4099,1.4787,1.5923,1.6533,1.6904,1.7148,1.7695,1.8037,0.0,1.8105,1.8223,1.7803,1.7158,1.6797,1.6982,1.7002,1.7109,1.7363,1.7383,1.7383,1.7383,1.7441,1.7285,1.6855,1.6836,1.6836,1.6836,1.6582,1.6398,1.6337,1.5377,1.4435,1.3418,1.2679,1.1903,1.1101,1.0918,1.0421,0.9711,0.9376,0.9386,0.97,1.0045,1.0218,1.0312,1.1366,1.2385,1.329,1.4307,1.6151,1.8106,0.0,0.0,0.0,0.0,0.0,0.0,0.0,0.0,0.0,0.0,0.0,0.0,0.0,0.0,0.0,0.0,0.0,0.0,0.0,0.8425,1.0029,1.2224,1.3411,1.4267,1.4868,1.5227,1.5457,1.5457,1.4759,1.4305,1.4156,1.3323,1.2556,1.1846,1.1434,1.0965,1.0466,0.9592,0.9488,0.9887,0.9169,0.9372,0.9974,0.9684,0.9244,0.8707,0.8686,0.792,0.0,0.0,0.5939,0.5853,0.7133,0.7245,0.6739,0.6008,0.5823,0.5956,0.6439,0.0,0.0,1.1627,1.2627,1.2992,1.4888,1.5898,1.6553,1.6992,1.7246,1.7471,1.7783,1.7988,1.8047,1.7871,1.8086,1.8184,1.7881,1.7197,1.6665,1.6665,1.6514,1.6592,1.7148,1.7314,1.7383,1.7383,1.7666,1.7705,1.7402,1.7383,1.7334,1.7207,1.6894,1.6488,1.6104,1.5088,1.3924,1.2652,1.1874,1.1213,1.0668,1.0287,0.996,0.9653,0.9145,0.9005,0.9105,0.9401,0.951,0.9666,1.1015,1.1944,1.2657,1.4168,1.6065,1.788,0.0,0.0,0.0,0.0,0.0,0.0,0.0,0.0,0.0,0.0,0.0,0.0,0.0,0.0,0.0,0.0,0.0,0.0,0.0,0.7434,0.8847,1.1052,1.2013,1.2866,1.3714,1.3778,1.3759,1.3759,1.3848,1.3631,1.3076,1.2889,1.2464,1.1747,1.0466,0.9865,0.9762,0.8349,0.7777,0.7717,0.7015,0.7241,0.7957,0.7607,0.7194,0.6798,0.6996,0.0,0.0,0.0,0.32,0.2544,0.4295,0.4946,0.0,0.5044,0.3425,0.2199,0.4471,0.0,0.7604,1.0369,1.3535,1.6094,1.6562,1.7021,1.7461,1.7881,1.7656,1.7393,1.7402,1.707,1.6924,1.7334,1.7412,1.7422,1.7402,1.7012,1.6665,1.6665,1.5977,1.5801,0.0,1.7139,1.7383,1.7383,1.7393,1.7393,1.7383,1.7383,1.7187,1.6768,1.6738,1.6533,1.6103,1.4488,1.3537,1.3347,1.1502,1.0772,1.0962,1.0381,0.996,0.9666,0.9359,0.9072,0.8818,0.8811,0.8804,0.8956,1.032,1.119,1.1948,1.3961,1.5748,1.7301,0.0,0.0,0.0,0.0,0.0,0.0,0.0,0.0,0.0,0.0,0.0,0.0,0.0,0.0,0.0,0.0,0.0,0.0,0.0,0.6145,0.7142,0.8579,0.995,1.0856,1.13,1.2407,1.2789,1.2425,1.2445,1.1943,1.1001,1.0463,0.9645,0.859,0.8138,0.7736,0.7381,0.6895,0.6835,0.6913,0.6288,0.5894,0.5632,0.5057,0.4101,0.3055,0.0,0.0,0.0,0.0,0.0,0.0,0.2335,0.2441,0.2174,0.2952,0.3325,0.4509,0.9192,1.0303,1.0925,1.4389,1.6103,1.7119,1.7832,1.7891,1.7764,1.7627,1.6285,1.51,1.4941,1.3368,1.2763,1.4658,1.5005,1.5588,1.7156,1.7256,1.6943,1.6357,1.6543,0.0,0.0,0.0,0.0,1.7363,1.7637,1.7803,1.7803,1.7803,1.7734,1.7588,1.7314,1.6542,1.5182,1.4351,1.3312,1.2062,1.1238,1.0902,1.0969,1.0187,0.978,0.9659,0.9165,0.8898,0.8804,0.8804,0.8804,0.8956,1.0261,1.0906,1.139,1.382,1.5274,1.6273,0.0,0.0,0.0,0.0,0.0,0.0,0.0,0.0,0.0,0.0,0.0,0.0,0.0,0.0,0.0,0.0,0.0,0.0,0.0,0.0,0.5363,0.5941,0.7324,0.8184,0.8399,0.9592,1.0042,0.9676,1.0171,1.0063,0.9275,0.8322,0.7423,0.6552,0.6445,0.6361,0.6292,0.5924,0.5405,0.4795,0.4505,0.3813,0.2934,0.2575,0.1791,0.0,0.0,0.0,0.0,0.0,0.0,0.0,0.1045,0.1271,0.1205,0.2156,0.3431,0.5701,1.0779,1.2307,1.33,1.6902,1.7949,1.8164,1.8545,1.8093,1.7309,1.6361,1.4329,1.251,1.1963,1.0347,0.991,1.2424,1.3099,1.4227,1.6812,1.6744,1.6351,1.6084,1.6095,1.5873,0.0,0.0,0.0,1.7363,1.7637,1.7852,1.8008,1.8008,1.7872,1.7501,1.7244,1.6337,1.4618,1.4058,1.3014,1.1423,1.1236,1.1096,1.0969,1.0301,0.994,0.9813,0.9332,0.9058,0.8958,0.8851,0.8871,0.9059,1.0066,1.064,1.1243,1.3256,1.4631,1.5755,0.0,0.0,0.0,0.0,0.0,0.0,0.0,0.0,0.0,0.0,0.0,0.0,0.0,0.0,0.0,0.0,0.0,0.0,0.0,0.0,0.0,0.3267,0.4314,0.5003,0.5215,0.56,0.5746,0.5643,0.7204,0.7868,0.7684,0.6467,0.5766,0.5565,0.5239,0.5502,0.6197,0.5219,0.3541,0.156,0.1801,0.1139,-0.0,0.0334,0.0,0.0,0.0,0.0,0.0,0.0,0.0,0.0,0.0633,0.154,0.2191,0.2829,0.3899,0.5727,0.9539,1.2228,1.4726,1.7894,1.8994,1.917,1.864,1.753,1.6067,1.4134,1.1725,0.9587,0.0,0.0,0.8346,1.066,1.1791,1.3325,1.6195,1.5585,1.5069,0.0,0.0,0.0,0.0,0.0,0.0,1.7196,0.0,1.7484,1.7949,1.7901,1.7461,1.6664,1.6558,1.5809,1.4437,1.3623,1.2647,1.147,1.1456,1.1303,1.1029,1.0772,1.0408,1.012,0.982,0.9526,0.9183,0.8965,0.9011,0.9287,0.9676,1.0459,1.1422,1.2457,1.3928,1.5668,0.0,0.0,0.0,0.0,0.0,0.0,0.0,0.0,0.0,0.0,0.0,0.0,0.0,0.0,0.0,0.0,0.0,0.0,0.0,0.0,0.0,0.0,0.0,0.0,0.0,0.0,0.0,0.0,0.4214,0.4235,0.3535,0.3083,0.27,0.2378,0.2164,0.2477,0.3078,0.2216,0.1545,0.0961,0.0,0.0043,-0.0776,0.0,0.0,0.0,0.0,0.0,0.0,0.0,0.0,0.0,0.0,0.3809,0.4694,0.6738,0.7611,0.8814,1.312,1.5314,1.6874,1.9033,1.9434,1.8947,1.7694,1.5375,1.2959,1.0993,0.7522,0.4703,0.0,0.0,0.0,0.7218,0.9949,0.0,1.4456,1.5742,0.0,1.5312,0.0,1.5397,1.5218,1.5275,0.0,0.0,1.6156,1.6483,1.7392,1.666,1.6436,1.7027,1.5739,1.4702,1.3897,1.2977,1.2369,1.2078,1.1857,1.1717,1.1623,1.0954,1.0521,1.0421,0.9907,0.9639,0.9566,0.9492,0.9506,0.9616,1.0248,1.0818,1.1456,1.2665,1.3575,1.4424,0.0,0.0,0.0,0.0,0.0,0.0,0.0,0.0,0.0,0.0,0.0,0.0,0.0,0.0,0.0,0.0,0.0,0.0,0.0,0.0,0.0,0.0,0.0,0.0,0.0,0.0,0.0,0.0,0.0,0.0,0.0441,0.0829,0.0862,0.0626,0.0616,0.0764,0.0956,0.0556,0.0,0.0,0.0,0.0,0.0,0.0,0.0,0.0,0.0,0.0,0.0,0.0,0.0,0.5727,0.7433,0.7809,0.808,1.0104,0.0,1.2328,1.5406,1.7292,1.8675,1.9878,1.9736,1.8735,1.6605,1.3782,1.0665,0.7562,0.3974,0.0,0.144,0.1551,0.2672,0.0,0.0,0.0,1.333,1.4412,1.4956,0.0,1.4713,0.0,1.447,1.4524,1.4599,0.0,1.5308,1.5846,1.6439,1.592,1.5625,1.5694,1.4648,1.3836,1.3091,1.2592,1.2305,1.2298,1.2004,1.187,1.185,1.1223,1.0868,1.0728,0.0,0.9993,0.9866,0.974,0.976,0.9919,1.0184,1.0737,1.1572,1.2132,1.2995,1.3899,0.0,0.0,0.0,0.0,0.0,0.0,0.0,0.0,0.0,0.0,0.0,0.0,0.0,0.0,0.0,0.0,0.0,0.0,0.0,0.0,0.0,0.0,0.0,0.0,0.0,0.0,0.0,0.0,0.0,0.0,0.0,0.0,0.0,0.0,0.0,0.0,0.0,0.0,0.0,0.0,0.0,0.0,0.0,0.0,0.0,0.0,0.0,0.0,0.0,0.0,0.6778,0.9482,1.1769,1.2026,1.1792,1.305,1.4162,1.5402,1.6812,1.847,1.9849,2.0381,1.9795,1.8309,1.528,1.2153,0.8623,0.4148,0.0,-0.0857,-0.0535,0.0233,0.1931,0.5538,0.0,0.9714,1.2342,1.2668,1.2983,1.3969,1.362,1.328,1.3327,1.3293,1.328,1.3327,1.4552,1.5394,1.5543,1.538,1.4731,1.3535,1.3528,1.3098,1.2305,1.2305,1.2305,1.2298,1.2044,1.1924,1.1917,1.1623,1.1349,1.1089,1.0802,1.0528,1.0267,0.998,1.0007,1.0207,0.9913,1.0559,1.16,1.1513,1.2377,1.3625,0.0,0.0,0.0,0.0,0.0,0.0,0.0,0.0,0.0,0.0,0.196,0.214,0.0,0.0,0.0,0.0,0.0,0.0,0.0,0.0,0.0,0.0,0.0,0.0,0.0,0.0,0.0,0.0,0.0,0.0,0.0,0.0,0.0,0.0,0.0,0.0,0.0,0.0,0.0,0.0,0.0,0.0,0.0,0.0,0.0,0.0,0.0,0.0,0.0,0.0,0.6868,0.8832,1.1118,1.2967,1.4412,1.5302,1.5431,1.5765,1.7811,1.8533,1.8926,1.9773,1.9121,1.7232,1.3435,0.9481,0.0,0.0,-0.1465,-0.3064,-0.1984,-0.1014,0.086,0.4661,0.6892,0.8889,1.1019,1.2354,1.3186,0.0,1.3467,1.3661,1.3915,1.3714,0.0,0.0,1.3974,1.4344,1.5276,1.4077,1.3051,1.2526,1.2519,1.2445,1.2305,1.2305,1.2305,1.2305,1.2251,1.2225,1.2218,1.1924,1.1764,1.1703,1.1403,0.0,1.1176,1.0889,1.0795,1.0808,1.0521,1.073,1.1299,1.1953,1.2358,1.2646,0.0,0.0,0.0,0.0,0.0,0.0,0.0,0.0,0.0622,0.1265,0.1397,0.1466,0.1576,0.1736,0.0,0.0,0.0,0.0,0.0,0.0,0.0,0.0,0.0,0.0,0.0,0.0,0.0,0.0,0.0,0.0,0.0,0.0,0.0,0.0,0.0,0.0,0.0,0.0,0.0,0.0,0.0,0.0,0.0,0.0,0.0,0.0,0.0,0.0,0.0,0.0,0.4567,0.6712,1.1084,1.3147,1.3926,1.3466,1.465,1.6114,1.5903,1.7143,1.8669,1.9686,1.8333,1.5641,1.1203,0.0,0.0,0.0,-0.3318,-0.4072,-0.2695,-0.1748,0.0,0.2709,0.4989,0.7023,0.8703,1.0653,1.2179,1.2903,1.3367,1.3761,1.4055,1.3955,1.3935,1.4075,1.3808,1.3797,1.4353,1.3379,1.2688,1.2311,1.2305,1.2305,1.2305,1.2305,1.2305,1.2305,1.2305,1.2305,1.2298,1.2158,1.2011,1.1864,1.1717,1.157,1.1403,1.1109,1.0995,1.0962,1.0675,1.0794,1.1219,1.2062,1.2355,1.2402,0.0,0.0,0.0,0.0,0.0,0.0,0.0,0.0111,0.0266,0.0797,0.0773,0.0753,0.0916,0.1316,0.1557,0.0,0.0,0.0,0.0,0.0,0.0,0.0,0.0,0.0,0.0,0.0,0.0,0.0,0.0,0.0,0.0,0.0,0.0,0.0,0.0,0.0,0.0,0.0,0.0,0.0,0.0,0.0,0.0,0.0,0.0,0.0,0.0,0.0,0.0,0.0,0.1952,0.4105,0.8724,1.0902,1.1598,1.074,1.2994,1.5394,1.4158,1.5897,1.8154,1.8826,1.7177,1.4065,0.9093,0.6088,0.0,0.0,-0.4356,-0.4401,-0.2983,-0.2413,-0.1338,0.0,0.2774,0.4551,0.6662,0.8714,1.0648,0.0,1.318,0.0,1.4055,1.4088,0.0,1.4088,1.3808,1.3587,1.3454,1.3006,1.2688,1.2311,1.2305,1.2305,1.2305,1.2305,1.2305,1.2305,1.2305,1.2305,1.2305,1.2305,1.2178,1.1964,1.1964,1.183,1.159,1.1303,1.1142,1.1056,1.0768,1.0829,1.109,1.2174,1.2468,1.2431,0.0,0.0,0.0,0.0,0.0,0.0,0.0,-0.0156,-0.0311,-0.0178,0.0133,0.0354,0.0382,0.0693,0.1003,0.0,0.0,0.0,0.0,0.0,0.0,0.0,0.0,0.0,0.0,0.0,0.0,0.0,0.0,0.0,0.0,0.0,0.0,0.0,0.0,0.0,0.0,0.0,0.0,0.0,0.0,0.0,0.0,0.0,0.0,0.0,0.0,0.0,0.0,0.0,0.0,0.1583,0.0937,0.3605,0.7279,0.9189,0.0,0.0,1.4616,1.612,1.6926,1.6328,1.5166,1.2809,0.7483,0.0,0.1903,-0.2753,-0.4165,-0.4089,-0.2706,-0.3363,-0.2876,0.0983,0.0,0.1552,0.6158,0.7516,0.9144,1.1998,0.0,0.0,1.4035,1.4088,1.4088,1.4088,1.3808,1.3407,1.2936,1.2849,1.2688,1.2311,1.2305,1.2305,1.2305,1.2305,1.2305,1.2305,1.2305,1.2305,1.2305,1.2305,1.2285,1.2265,1.2265,1.2245,0.0,1.1911,1.163,1.1356,1.1062,1.084,1.0822,1.235,1.2712,1.2562,0.0,0.0,0.0,0.0,0.0,0.0,0.0,0.0178,0.0044,-0.0044,0.0178,0.04,0.0536,0.0446,0.0513,0.0,0.0,0.0,0.0,0.0,0.0,0.0,0.0,0.0,0.0,0.0,0.0,0.0,0.0,0.0,0.0,0.0,0.0,0.0,0.0,0.0,0.0,0.0,0.0,0.0,0.0,0.0,0.0,0.0,0.0,0.0,0.0,0.0,0.0,0.0,0.0,0.0,-0.1969,-0.1499,0.0,0.0,0.6315,0.9544,0.9476,1.2186,1.5067,1.5444,1.405,1.1296,0.6182,0.0,0.1233,-0.3599,-0.4713,-0.456,-0.3801,-0.4029,-0.3562,-0.1064,0.0,0.0,0.4976,0.6375,0.8213,1.1388,1.1922,0.0,0.0,0.0,1.4015,1.3834,1.3547,1.32,1.2842,1.2822,1.2688,1.2311,1.2305,1.2305,1.2305,1.2305,1.2305,1.2305,1.2305,1.2305,1.2305,1.2305,1.2305,1.2305,1.2305,1.2305,0.0,1.1991,1.1797,1.1643,1.1176,1.0922,1.1053,1.2476,1.2578,1.2166,0.0,0.0,0.0,0.0,0.0,0.0672,0.0401,0.0467,0.051,0.042,0.0684,0.0928,0.1021,0.0641,0.0354,0.0224,0.0,0.0,0.0,0.0,0.0,0.0,0.0,0.0,0.0,0.0,0.0,0.0156,0.0,0.0,0.0,0.0,0.0,0.0,0.0,0.0,0.0,0.0,0.0,0.0,0.0,0.0,0.0,0.0,0.0,0.0,0.0,0.0,0.0,0.0,0.0,0.0,0.0,0.0,0.0,0.0,0.1865,0.5266,0.5357,0.8339,1.1727,1.3033,1.1502,0.8566,0.0,0.0,-0.0179,-0.4369,-0.5129,-0.4898,-0.4548,-0.4381,-0.3807,0.0,0.0,0.0744,0.3604,0.5317,0.7264,0.9771,0.0,1.1508,0.0,1.3526,1.3868,1.3661,1.3293,1.2979,1.2835,1.2735,1.2518,1.2311,1.2305,1.2305,1.2305,1.2305,1.2305,1.2305,1.2305,1.2305,1.2305,1.2305,1.2305,1.2305,1.2305,1.2305,0.0,1.2084,1.1944,1.183,1.141,1.1149,1.1159,1.257,1.271,1.2305,0.0,0.0,0.0,0.0,0.0,0.0,0.0,0.0642,0.0946,0.1065,0.1669,0.2005,0.1807,0.1367,0.0606,-0.0578,0.0,0.0,0.0,0.0,0.0,0.0,0.0,0.0,0.0,0.0,0.0,0.148,0.1027,0.1181,0.1872,0.168,0.1901,0.0,0.0,0.0,0.0,0.0,0.0,0.0,0.0,0.0,0.0,0.0,0.0,0.0,0.0,0.0,0.0,0.0,0.0,0.0,0.0,0.0,0.0,0.0,-0.2127,-0.062,0.3732,0.5525,0.6535,0.8071,0.6851,0.4521,0.0,0.0,-0.268,-0.4859,-0.5159,-0.4898,-0.4548,-0.4381,-0.3804,-0.2253,-0.1808,0.0,0.2218,0.4358,0.5939,0.0,0.0,1.0659,1.1379,1.2719,1.3566,1.3559,1.3093,0.0,1.2822,1.2472,1.2305,1.2305,1.2305,1.2305,1.2305,1.2305,1.2305,1.2305,1.2305,1.2305,1.2305,1.2305,1.2305,1.2305,1.2305,1.2305,0.0,1.2298,1.2131,1.187,1.1864,1.1503,1.1186,1.2772,1.3244,1.3074,0.0,0.0,0.0,0.0,0.0,0.0,0.0,0.1579,0.1617,0.1514,0.1891,0.1893,0.1196,0.09,0.0351,-0.0685,0.0,0.0,0.0,0.0,0.0,0.0,0.0,0.0,0.0,0.0,0.0,0.1296,0.1141,0.1338,0.1828,0.1762,0.2176,0.2971,0.3035,0.0,0.0,0.0,0.0,0.0,0.0,0.0,0.0,0.0,0.0,0.0,0.0,0.0,0.0,0.0,0.0,0.0,0.0,0.0,0.0,0.0,0.0,0.0,-0.0415,0.163,0.3434,0.384,0.3337,0.2066,-0.0571,0.0,-0.3032,-0.4918,-0.5067,-0.4718,-0.4284,-0.3961,-0.3266,-0.1757,-0.1183,0.0,0.0,0.0,0.0,0.75,0.904,1.0153,0.0,0.0,1.2271,1.2184,1.257,1.2735,1.2452,1.2351,1.2305,1.2305,1.2305,1.2305,1.2305,1.2305,1.2305,1.2305,1.2305,1.2305,1.2305,1.2305,1.2305,1.2305,1.2305,1.2305,1.2305,1.2305,1.2245,1.2124,1.1724,1.145,1.1438,1.2664,1.289,1.2747,0.0,0.0,0.0,0.0,0.0,0.0,0.0,0.2059,0.2043,0.158,0.1896,0.2102,0.1943,0.1114,0.0228,-0.057,0.0,0.0,0.0,0.0,0.0,0.0,0.0,0.0,0.0,0.0,0.0823,0.1247,0.1493,0.1843,0.2298,0.2337,0.266,0.3172,0.3298,0.0,0.0,0.0,0.0,0.0,0.0,0.0,0.2798,0.0,0.0,0.0,0.0,0.0,0.0,0.0,0.0,0.0,0.0,0.0,0.0,0.0,-0.5011,-0.3978,0.0,-0.1562,-0.0049,0.0682,0.028,0.0,0.0,0.0,0.0,-0.4803,-0.4705,-0.4312,-0.3792,-0.3343,-0.2652,-0.1429,-0.0792,0.0,0.0,0.0,0.0,0.7233,0.0,0.0,0.0,1.0418,1.0874,1.0863,1.1569,1.1953,1.1781,1.1972,1.2138,1.2138,1.2245,1.2245,1.2138,1.2245,1.2305,1.2305,1.2305,1.2305,1.2305,1.2305,1.2305,1.2305,1.2305,1.2305,0.0,1.2305,1.2238,1.2104,1.1737,1.1655,1.1798,1.2806,1.3014,1.3018,0.0,0.0,0.0,0.0,0.0,0.0,0.0,0.0,0.0,0.1275,0.1652,0.2389,0.3397,0.171,0.0237,-0.0393,0.0,0.0,0.0,0.0,0.0,0.0,0.0,0.0,0.0,-0.0418,0.0286,0.1284,0.1971,0.2562,0.3087,0.3223,0.3223,0.3081,0.3433,0.0,0.0,0.0,0.0,0.0,0.0,0.0,0.0,0.0,0.0,0.0,0.0,0.0,0.0,0.0,0.0,0.0,0.0,0.0,0.0,0.0,0.0,0.0,0.0,-0.4073,0.0,0.0,0.0,0.0,0.0,0.0,0.0,0.0,0.0,-0.3734,-0.312,-0.2626,-0.2087,-0.1241,-0.0678,0.0,0.0,0.2709,0.0,0.0,0.7094,0.0,0.7986,0.9,0.9531,0.9541,1.0253,1.0714,1.0783,1.1433,1.1786,1.1837,1.2098,1.2124,1.187,1.2158,1.2305,1.2305,1.2305,1.2305,1.2305,1.2305,1.2305,0.0,1.2305,1.2291,1.2271,1.2291,1.2131,1.1864,1.1844,1.2039,1.2352,1.3068,1.3501,1.372,0.0,0.0,0.0,0.0,0.0,0.0,0.0,0.0,0.0,0.0,0.0919,0.1005,0.076,0.0549,0.0055,0.0,0.0,0.0,0.0,0.0,0.0,0.0,0.0,0.0,0.0,-0.0458,0.0225,0.1218,0.1905,0.2411,0.2799,0.3193,0.3166,0.2815,0.3188,0.0,0.0,0.0,0.0,0.0,0.0,0.0,0.0,0.0,0.0,0.0,0.3479,0.3026,0.0,0.0,0.0,0.0,0.0,0.0,0.0,0.0,-0.5605,-0.5903,-0.5061,0.0,-0.5588,-0.4826,-0.4799,-0.4942,0.0,0.0,0.0,0.0,0.0,0.0,0.0,0.0,0.0,-0.1292,0.0,-0.1274,0.1174,0.0,0.0,0.572,0.6273,0.663,0.6539,0.758,0.8285,0.8431,0.9182,0.9965,1.0783,1.0767,1.0966,1.1467,1.1597,1.171,1.187,1.2158,1.2305,1.2305,1.2305,1.2305,1.2305,1.2305,1.2305,1.2305,1.2305,1.2178,1.1991,1.2211,1.2131,1.1844,1.1617,1.1922,1.2594,1.2963,1.3511,1.415,0.0,0.0,0.0,0.0,0.0,0.0,0.0,0.0,0.0,0.0,0.0,0.0,0.0,0.0,0.0,0.0,0.0,0.0,0.0,0.0,0.0,0.0,0.0,0.0,0.0,-0.056,0.0209,0.1517,0.2385,0.2939,0.3205,0.3529,0.3334,0.2725,0.2463,0.0,0.0,0.0,0.0,0.0,0.2782,0.0,0.0,0.0,0.0,0.0,0.3633,0.3122,0.0,0.1971,0.0667,-0.1051,0.0,0.0,0.0,0.0,-0.5151,-0.53,-0.476,-0.5142,-0.5664,-0.5308,-0.5046,-0.4819,-0.4623,0.0,0.0,0.0,0.0,0.0,0.0,0.0,0.0,0.0,-0.1046,0.0,0.0,0.0,0.5183,0.5433,0.5864,0.6149,0.0,0.674,0.7134,0.7223,0.7982,0.8911,0.9865,1.0041,1.0416,1.1162,1.1229,1.1369,1.1663,1.1957,1.2171,1.2305,1.2305,1.2305,1.2298,1.2164,1.2178,1.2291,1.2164,1.2091,1.2078,1.2238,1.2051,1.165,1.149,1.1988,1.2852,1.2972,1.3621,1.4505,0.0,0.0,0.0,0.0,0.0,0.0,0.0,0.0,0.0,0.0,0.0,0.0,0.0,0.0,0.0,0.0,0.0,0.0,0.0,0.0,0.0,0.0,0.0,-0.1017,-0.0651,-0.0501,0.0304,0.1793,0.2912,0.3511,0.3603,0.3848,0.3543,0.2761,0.1742,0.0,0.0,0.0,0.0,0.0,0.2761,0.0,0.0,0.0,0.0,0.0,0.0,0.0,0.0,0.1449,0.036,-0.0799,-0.2064,0.0,0.0,0.0,0.0,0.0,-0.3986,-0.4262,-0.4605,-0.4262,-0.4093,-0.3995,-0.3788,0.0,0.0,0.0,0.0,0.0,0.0,-0.0673,0.0,0.0,0.0,0.0,0.3093,0.4487,0.5335,0.5211,0.5722,0.0,0.6183,0.6234,0.6338,0.6338,0.7009,0.7855,0.8719,0.9364,1.0055,1.0995,1.0949,1.1062,1.1356,1.165,1.1924,1.2171,1.2211,1.2238,1.2225,1.1984,1.2004,1.2218,0.0,0.0,1.2104,1.2151,1.185,1.1363,1.1363,1.1956,1.2891,1.2842,1.3608,1.4598,0.0,0.0,0.0,0.0,0.0,0.0,0.0,0.0,0.0,0.0,0.0,0.0,0.0,0.0,0.0,0.0,0.0,0.0,0.0,0.0,0.0,0.0,0.0,-0.0744,0.0039,0.0293,0.0709,0.1315,0.2617,0.3051,0.2717,0.3484,0.3461,0.2775,0.1978,0.1696,0.1795,0.1641,0.1739,0.2073,0.3006,0.0,0.0,0.0,0.0,0.0,0.0,0.0,0.0,0.1476,0.0642,-0.0304,-0.1848,0.0,0.0,0.0,0.0,0.0,-0.317,-0.2979,-0.2886,-0.2737,-0.3259,-0.3476,-0.234,0.0,0.0,0.0,0.0,0.0,0.0,0.0245,0.1081,0.0,0.0,0.3297,0.0,0.0,0.5182,0.4688,0.0,0.6132,0.5895,0.6108,0.6338,0.6338,0.693,0.7777,0.8719,0.9289,0.9977,1.0995,1.0755,1.0768,1.1056,1.1349,1.1516,1.1563,1.1817,1.1937,1.1937,1.1891,1.1897,1.1917,0.0,1.1383,1.1216,1.1456,1.1363,1.1056,1.1056,1.1579,1.2274,1.2056,1.2761,1.3707,0.0,0.0,0.0,0.0,0.0,0.0,0.0,0.0,0.0,0.0,0.0,0.0,0.0,0.0,0.0,0.0,0.0,0.0,0.0,0.0,0.0,0.0,0.0085,0.0138,0.0728,0.1148,0.1539,0.1909,0.263,0.2863,0.2617,0.2947,0.2973,0.2724,0.2121,0.1957,0.2108,0.1864,0.2062,0.2578,0.0,0.0,0.0,0.0,0.0,0.0,0.0,0.0,0.0,0.0,0.0729,0.0189,-0.118,0.0,0.0,0.0,0.0,0.0,-0.2411,-0.2164,-0.1788,-0.112,-0.1692,-0.2231,-0.1407,0.0,0.0,0.0,0.0,0.0,0.0,0.0,0.1604,0.285,0.0,0.4085,0.4725,0.5141,0.5322,0.0,0.0,0.6023,0.6047,0.6101,0.6135,0.6135,0.6707,0.7469,0.8454,0.9036,0.9835,1.0755,1.0628,1.0692,1.0755,1.0895,1.1116,1.1423,1.1563,1.163,1.1623,1.147,1.1483,1.1617,0.0,1.1209,1.1236,1.1369,1.1256,1.0995,1.0995,1.1395,1.2014,1.2179,1.2714,1.3221,0.0,0.0,0.0,0.0,0.0,0.0,0.0,0.0,0.0,0.0,0.0,0.0,0.0,0.0,0.0,0.0,0.0,0.0,0.0,0.0,0.0117,0.0972,0.0959,0.1066,0.1334,0.1741,0.2039,0.223,0.252,0.2669,0.2669,0.2677,0.266,0.2605,0.2252,0.2194,0.2363,0.2137,0.2332,0.283,0.0,0.0,0.0,0.0,0.0,0.0,0.0,0.0,0.0,0.0,0.0,0.0,0.0,0.0,0.0,-0.1319,-0.1593,-0.1614,-0.1507,-0.1386,-0.1085,-0.0,0.0,-0.1061,-0.049,0.0,0.0,0.0,0.0,0.0,0.0,0.1665,0.0,0.3912,0.4327,0.4724,0.5369,0.5528,0.5657,0.5881,0.5878,0.5949,0.6183,0.6067,0.5976,0.5976,0.6565,0.721,0.7889,0.8614,0.9332,0.997,0.997,1.0104,1.0301,1.0301,1.0588,1.1223,1.1289,1.1323,1.1316,1.1096,1.1116,1.1309,1.1015,1.1015,1.1223,1.1223,1.1089,1.0895,1.0895,1.1191,1.1542,1.1976,1.2337,1.246,0.0,0.0,0.0,0.0,0.0,0.0,0.0,0.0,0.0,0.0,0.0,0.0,0.0,0.0,0.0,0.0,0.0,0.0,0.0,0.0,0.0248,0.0452,0.1209,0.1657,0.176,0.18,0.1667,0.1397,0.2019,0.2434,0.2619,0.2987,0.29,0.2422,0.2387,0.2344,0.2318,0.2411,0.2455,0.2523,0.3483,0.0,0.0,0.0,0.0,0.0,0.0,0.0,0.0,0.0,0.0,0.0,0.0,0.0,0.0858,0.0353,-0.0058,-0.0313,-0.0175,-0.0487,-0.0712,-0.0041,-0.0335,0.0,0.0791,0.1949,0.0,0.1569,0.0,0.0,0.0,0.3545,0.4106,0.4525,0.4984,0.5443,0.5728,0.0,0.6203,0.6227,0.6101,0.6023,0.6044,0.5908,0.5817,0.5817,0.6499,0.6937,0.7005,0.7687,0.8091,0.8156,0.8156,0.8549,0.9402,0.9402,0.9804,1.0692,1.0895,1.1022,1.1022,1.1002,1.1002,1.1009,1.0722,1.0665,1.0685,1.0685,1.0672,1.0658,1.0658,1.0638,1.0676,1.0777,1.0872,1.0816,0.0,0.0,0.0,0.0,0.0,0.0,0.0,0.0,0.0,0.0,0.0,0.0,0.0,0.0,0.0,0.0,0.0,0.0,0.0,0.0,0.0328,0.0751,0.1215,0.1489,0.1543,0.1841,0.1858,0.1611,0.1792,0.2016,0.2302,0.245,0.2422,0.2287,0.2542,0.2518,0.231,0.2532,0.2711,0.2872,0.3336,0.3561,0.0,0.0,0.0,0.0,0.0,0.0,0.0,0.0,0.1623,0.1777,0.0,0.1331,0.1631,0.1097,0.0817,0.0623,0.0468,0.0441,0.0507,0.0849,0.0588,0.0,0.0,0.2047,0.2977,0.2828,0.2866,0.0,0.0,0.0,0.4599,0.4876,0.5195,0.5488,0.5775,0.5942,0.6,0.5989,0.5889,0.5888,0.5888,0.5755,0.5671,0.5671,0.6238,0.6595,0.6595,0.7298,0.7732,0.7807,0.7747,0.7934,0.8484,0.8908,0.9361,0.9786,1.0412,1.0722,1.0722,1.0722,1.0621,1.0454,1.0528,1.0454,1.0301,1.0481,1.0624,1.0624,1.0624,1.0926,1.121,1.0411,1.0401,1.0752,0.0,0.0,0.0,0.0,0.0,0.0,0.0,0.0,0.0,0.0,0.0,0.0,0.0,0.0,0.0,0.0,0.0,0.0,0.0,-0.0197,0.0269,0.0791,0.1025,0.1211,0.1328,0.1655,0.1687,0.1449,0.1602,0.179,0.2036,0.2119,0.2138,0.2116,0.2428,0.2437,0.2228,0.2611,0.281,0.2906,0.321,0.3412,0.0,0.0,0.0,0.0,0.0,0.0,0.0,0.0,0.1759,0.2026,0.0,0.0,0.0,0.0,0.1861,0.1757,0.1405,0.1376,0.1452,0.0,0.0,0.0,0.1143,0.2208,0.3411,0.3775,0.4076,0.0,0.4005,0.0,0.0,0.0,0.5195,0.5474,0.5724,0.5745,0.5827,0.5825,0.5734,0.5715,0.5667,0.5528,0.5426,0.5382,0.5691,0.593,0.593,0.6415,0.68,0.6867,0.6809,0.6993,0.7471,0.7881,0.8471,0.9089,0.9463,0.9886,1.0414,1.0327,1.0174,0.9993,1.0194,1.0167,1.0,1.0301,1.0474,1.0624,1.0624,1.0793,1.0885,1.0005,0.9891,1.0066,0.0,0.0,0.0,0.0,0.0,0.0,0.0,0.0,0.0,0.0,0.0,0.0,0.0,0.0,0.0,0.0,0.0,0.0,0.0,-0.021,0.0056,0.0392,0.066,0.0933,0.1184,0.1192,0.1045,0.0698,0.1433,0.1838,0.1898,0.2172,0.2164,0.191,0.204,0.2073,0.2056,0.265,0.2713,0.2451,0.313,0.3262,0.3111,0.0,0.0,0.0,0.0,0.0,0.0,0.0,0.1847,0.1563,0.0,0.0,0.0,0.3032,0.3151,0.3093,0.2717,0.2324,0.0,0.0,0.0,0.0,0.1868,0.2828,0.4002,0.4397,0.4819,0.4935,0.4482,0.4552,0.0,0.4643,0.5065,0.5413,0.5566,0.5708,0.5793,0.5793,0.5671,0.5521,0.5439,0.522,0.507,0.4928,0.4918,0.4918,0.4918,0.505,0.5125,0.5128,0.5125,0.5501,0.6383,0.6254,0.6992,0.8551,0.7838,0.8443,1.01,0.9813,0.9686,0.9679,0.9686,0.9686,0.9699,1.0,1.0287,1.0618,1.0618,1.004,0.933,0.959,0.9136,0.8457,0.0,0.0,0.0,0.0,0.0,0.0,0.0,0.0,0.0,0.0,0.0,0.0,0.0,0.0,0.0,0.0,0.0,0.0,0.0,0.0036,0.0382,0.0674,0.0895,0.103,0.1053,0.1022,0.1027,0.1121,0.124,0.1372,0.1474,0.1616,0.1804,0.2055,0.0,0.2637,0.2532,0.3033,0.2902,0.2354,0.2752,0.2869,0.2805,0.0,0.0,0.0,0.0,0.0,0.0,0.0,0.0,0.0,0.0,0.0,0.0,0.3329,0.3154,0.2845,0.2833,0.2714,0.0,0.2299,0.0,0.0,0.0,0.3669,0.0,0.0,0.4875,0.4925,0.4793,0.482,0.0,0.4911,0.5105,0.5254,0.5406,0.5372,0.5318,0.5284,0.5186,0.5101,0.5057,0.5009,0.4965,0.4921,0.4819,0.4758,0.4758,0.4697,0.4711,0.4816,0.4718,0.488,0.5344,0.5825,0.6321,0.6933,0.7665,0.8652,0.9806,0.9187,0.9099,0.9385,0.9593,0.9566,0.9412,0.9907,1.0047,0.996,0.9604,0.9187,0.8741,0.8114,0.8052,0.8232,0.0,0.0,0.0,0.0,0.0,0.0,0.0,0.0,0.0,0.0,0.0,0.0,0.0,0.0,0.0,0.0,0.0,0.0,0.0,0.0,0.0376,0.0591,0.0822,0.0969,0.1002,0.1048,0.115,0.1343,0.1312,0.1398,0.1585,0.1588,0.1801,0.2198,0.0,0.269,0.2696,0.3039,0.2876,0.2359,0.2638,0.2717,0.2704,0.0,0.0,0.0,0.0,0.0,0.0,0.0,0.0,0.0,0.0,0.0,0.0,0.358,0.3378,0.3019,0.2989,0.0,0.0,0.2671,0.2847,0.3051,0.3182,0.0,0.0,0.0,0.48,0.4844,0.484,0.4826,0.0,0.4942,0.5006,0.5091,0.5158,0.5128,0.502,0.5013,0.4928,0.4894,0.4833,0.4826,0.4802,0.4741,0.4653,0.4599,0.4599,0.4568,0.4596,0.4687,0.4602,0.4643,0.4826,0.5186,0.56,0.5934,0.6445,0.7354,0.8476,0.83,0.8385,0.8629,0.88,0.8839,0.8869,0.9504,0.9558,0.922,0.8962,0.8383,0.7629,0.7573,0.7599,0.7728,0.0,0.0,0.0,0.0,0.0,0.0,0.0,0.0,0.0,0.0,0.0,0.0,0.0,0.0,0.0,0.0,0.0,0.0,0.0,0.0,0.0168,0.0325,0.058,0.081,0.0995,0.1185,0.1343,0.1433,0.1538,0.1736,0.0,0.0,0.2057,0.2382,0.0,0.2498,0.2685,0.2863,0.2743,0.2438,0.2712,0.2768,0.2713,0.2781,0.0,0.0,0.0,0.0,0.0,0.0,0.0,0.0,0.2687,0.3082,0.3339,0.3828,0.3704,0.3381,0.3185,0.0,0.0,0.2955,0.3066,0.0,0.3133,0.3846,0.4491,0.4479,0.0,0.4763,0.4721,0.4701,0.4711,0.4711,0.4826,0.489,0.4918,0.4907,0.487,0.4893,0.4889,0.4823,0.4684,0.467,0.4613,0.4529,0.4519,0.4519,0.4519,0.4596,0.467,0.467,0.467,0.467,0.467,0.4587,0.4787,0.5378,0.4838,0.5281,0.6529,0.7182,0.7557,0.7616,0.7616,0.7804,0.8187,0.8775,0.8808,0.848,0.8387,0.749,0.6384,0.7529,0.756,0.713,0.0,0.0,0.0,0.0,0.0,0.0,0.0,0.0,0.0,0.0,0.0,0.0,0.0,0.0,0.0,0.0,0.0,0.0,0.0,0.0,0.0179,0.0513,0.0687,0.0876,0.1065,0.1174,0.1361,0.1626,0.1496,0.0,0.0,0.0,0.0,0.2915,0.0,0.3046,0.3154,0.3319,0.3079,0.2652,0.2807,0.2846,0.2791,0.2781,0.2719,0.0,0.0,0.0,0.0,0.0,0.0,0.0,0.2922,0.3035,0.3129,0.4199,0.371,0.2913,0.3381,0.3197,0.0,0.0,0.3001,0.3028,0.3941,0.4448,0.4696,0.4445,0.4657,0.4813,0.4718,0.4789,0.487,0.487,0.4897,0.489,0.4918,0.4783,0.4726,0.4765,0.464,0.4548,0.457,0.4567,0.4553,0.4519,0.4519,0.4519,0.4519,0.4549,0.4567,0.4567,0.4567,0.4567,0.4567,0.4532,0.457,0.4732,0.5109,0.5433,0.576,0.5923,0.6308,0.6858,0.6858,0.7209,0.7769,0.7633,0.7683,0.7796,0.6904,0.653,0.6498,0.617,0.6703,0.7578,0.0,0.0,0.0,0.0,0.0,0.0,0.0,0.0,0.0,0.0,0.0,0.0,0.0,0.0,0.0,0.0,0.0,0.0,0.0,0.0,0.0,0.0,0.0699,0.0837,0.1139,0.1208,0.143,0.1803,0.0,0.0,0.0,0.0,0.0,0.3109,0.0,0.3207,0.3211,0.3421,0.316,0.2674,0.2831,0.2773,0.2619,0.2736,0.2727,0.2527,0.2097,0.0,0.0,0.0,0.0,0.0,0.0,0.0,0.3211,0.411,0.3656,0.2963,0.3277,0.0,0.0,0.3503,0.0,0.2616,0.4033,0.4448,0.4511,0.4452,0.4643,0.4762,0.4609,0.4646,0.4701,0.4701,0.4701,0.4718,0.4706,0.4626,0.4616,0.4616,0.4535,0.4473,0.4519,0.4473,0.4473,0.4519,0.4519,0.4519,0.4519,0.4519,0.4519,0.4519,0.4519,0.4519,0.4519,0.4519,0.4519,0.4519,0.4838,0.5003,0.5058,0.571,0.6036,0.6091,0.6799,0.7343,0.7681,0.7482,0.7296,0.7085,0.6147,0.5903,0.6091,0.6036,0.674,0.7723,0.0,0.0,0.0,0.0,0.0,0.0,0.0,0.0,0.0,0.0,0.0,0.0,0.0,0.0,0.0,0.0,0.0,0.0,0.0,0.0,0.0,0.0,0.0772,0.0875,0.1163,0.1274,0.1519,0.1894,0.0,0.0,0.0,0.0,0.0,0.3055,0.0,0.3171,0.3149,0.34,0.3214,0.2768,0.2969,0.2855,0.2565,0.2866,0.2883,0.2664,0.2221,0.2068,0.2006,0.1548,0.0,0.0,0.0,0.0,0.3238,0.3763,0.351,0.307,0.3064,0.0,0.2892,0.3634,0.3001,0.0,0.3789,0.4153,0.4207,0.4399,0.4545,0.4613,0.4539,0.4519,0.4519,0.4519,0.4519,0.4519,0.4519,0.4522,0.4522,0.4522,0.4487,0.4376,0.4128,0.4366,0.4487,0.4522,0.4519,0.4519,0.4519,0.4484,0.4481,0.4515,0.444,0.4491,0.4519,0.4519,0.4519,0.4519,0.4491,0.4426,0.4481,0.5774,0.6058,0.5592,0.6902,0.7503,0.7503,0.7396,0.7015,0.6529,0.576,0.5647,0.5977,0.6583,0.7235,0.799,0.0,0.0,0.0,0.0,0.0,0.0,0.0,0.0,0.0,0.0,0.0,0.0,0.0,0.0,0.0,0.0,0.0,0.0,-0.0486,0.0,0.0,0.0881,0.1155,0.1208,0.1027,0.1321,0.161,0.0,0.0,0.0,0.0,0.0,0.0,0.2933,0.0,0.0,0.3297,0.3448,0.3442,0.3393,0.3591,0.3452,0.3128,0.3599,0.3387,0.287,0.2726,0.2572,0.2353,0.195,0.2053,0.0,0.0,0.0,0.2663,0.3377,0.3059,0.2568,0.0,0.0,0.2913,0.0,0.3353,0.3544,0.0,0.0,0.4043,0.0,0.4392,0.4543,0.4522,0.4519,0.4519,0.4519,0.4519,0.4519,0.4519,0.448,0.449,0.449,0.4504,0.399,0.2623,0.3688,0.448,0.4477,0.4522,0.4519,0.4519,0.435,0.4337,0.4512,0.4341,0.4334,0.4515,0.4519,0.4519,0.4515,0.4334,0.4224,0.4277,0.5108,0.55,0.5542,0.6367,0.675,0.6696,0.6036,0.6091,0.6529,0.576,0.6303,0.7396,0.7509,0.8049,0.8646,0.0,0.0,0.0,0.0,0.0,0.0,0.0,0.0,0.0,0.0,0.0,0.0,0.0,0.0,0.0,-0.138,-0.0983,-0.0505,0.0083,0.0645,0.1023,0.1175,0.124,0.1274,0.1274,0.161,0.1872,0.0,0.0,0.0,0.0,0.2734,0.2835,0.0,0.0,0.0,0.0,0.3415,0.3432,0.3391,0.332,0.3132,0.2888,0.3228,0.2963,0.2425,0.2245,0.2267,0.2304,0.176,0.1925,0.2338,0.2368,0.0,0.0,0.0,0.269,0.0,0.2293,0.2496,0.2658,0.0,0.3,0.3364,0.3574,0.0,0.3839,0.4023,0.4168,0.4267,0.4488,0.4519,0.4519,0.4519,0.4519,0.4519,0.4519,0.449,0.4485,0.4485,0.4512,0.3884,0.2372,0.2081,0.2636,0.4204,0.4417,0.4405,0.4229,0.4194,0.4236,0.4347,0.4263,0.4224,0.4341,0.4341,0.4297,0.4212,0.4151,0.407,0.4121,0.4924,0.5579,0.6029,0.6421,0.6858,0.7128,0.5977,0.5706,0.5928,0.5651,0.614,0.7128,0.7563,0.8156,0.8804,0.0,0.0,0.0,0.0,0.0,0.0,0.0,0.0,0.0,0.0,0.0,0.0,0.0,0.0,0.0,0.0,-0.1025,-0.0455,0.0506,0.0891,0.1198,0.1481,0.1448,0.1474,0.1588,0.1898,0.0,0.0,0.0,0.0,0.2736,0.2747,0.2858,0.0,0.3219,0.0,0.0,0.0,0.0,0.0,0.0,0.0,0.0,0.0,0.2391,0.2151,0.175,0.1858,0.2122,0.1555,0.1655,0.2042,0.2106,0.2109,0.0,0.0,0.0,0.0,0.0,0.0,0.2264,0.2323,0.2552,0.2884,0.0,0.0,0.3595,0.0,0.3938,0.4043,0.43,0.4348,0.4348,0.4348,0.4348,0.4348,0.4348,0.4449,0.436,0.3936,0.358,0.2884,0.1761,0.0666,0.088,0.2997,0.3881,0.4264,0.4047,0.4085,0.4094,0.4124,0.4128,0.411,0.4174,0.415,0.408,0.4019,0.3982,0.401,0.421,0.4877,0.5636,0.6457,0.6549,0.6912,0.7343,0.6032,0.5487,0.5487,0.5487,0.6091,0.6966,0.7509,0.8156,0.8804,0.0,0.0,0.0,0.0,0.0,0.0,0.0,0.0,0.0,0.0,0.0,0.0,0.0,-0.2218,-0.185,-0.1419,-0.1203,-0.0622,0.0443,0.0994,0.1433,0.177,0.196,0.0,0.1876,0.2088,0.0,0.0,0.0,0.0,0.2528,0.2774,0.2853,0.2816,0.2622,0.2812,0.3196,0.0,0.0,0.0,0.0,0.0,0.0,0.0,0.0,0.0,0.0,0.1582,0.1864,0.1569,0.1412,0.138,0.1575,0.1579,0.1565,0.0,0.0,0.0,0.0,0.1541,0.0,0.2022,0.2275,0.0,0.0,0.0,0.3451,0.3612,0.371,0.3853,0.4012,0.4043,0.4043,0.4043,0.4043,0.4043,0.4043,0.4314,0.3959,0.2474,0.111,0.0202,0.0101,0.0051,0.005,0.0202,0.2513,0.4023,0.4189,0.3971,0.3883,0.4019,0.389,0.3879,0.4004,0.4023,0.4026,0.4019,0.3873,0.4131,0.4641,0.4696,0.5399,0.6597,0.6623,0.6642,0.6588,0.5814,0.5487,0.5487,0.5487,0.6357,0.767,0.767,0.8156,0.8804,0.0,0.0,0.0,0.0,0.0,0.0,0.0,0.0,0.0,0.0,0.0,0.0,0.0,-0.2246,-0.1913,-0.1496,-0.0962,-0.0313,0.0512,0.1341,0.1787,0.1736,0.1938,0.203,0.203,0.2355,0.0,0.0,0.0,0.262,0.2873,0.2621,0.2641,0.2879,0.2932,0.2978,0.3003,0.2913,0.0,0.0,0.0,0.0,0.0,0.0,0.0,0.0,0.0,0.0,0.2636,0.2892,0.2778,0.2523,0.2571,0.2031,0.0,0.0,0.0,0.0,0.0,0.0,0.0,0.1228,0.1866,0.2594,0.2528,0.2997,0.3446,0.3409,0.3688,0.3865,0.3578,0.3778,0.4019,0.4019,0.4019,0.4022,0.4132,0.4161,0.4059,0.3717,0.1478,-0.0,-0.0,-0.0,-0.0,-0.0,0.1578,0.2936,0.3752,0.3828,0.3822,0.3875,0.3844,0.3837,0.3872,0.3799,0.3737,0.3737,0.3683,0.3788,0.4017,0.4072,0.4625,0.5472,0.5106,0.547,0.6248,0.5035,0.4654,0.4941,0.5734,0.6458,0.7128,0.8049,0.8586,0.8804,0.0,0.0,0.0,0.0,0.0,0.0,0.0,0.0,0.0,0.0,0.0,0.0,0.0,0.0,-0.1799,-0.1363,-0.0627,0.0112,0.0758,0.1455,0.1816,0.1759,0.1894,0.203,0.2188,0.2442,0.0,0.0,0.0,0.0,0.0,0.2588,0.262,0.2878,0.3079,0.3052,0.0,0.0,0.0,0.2834,0.0,0.0,0.1952,0.0,0.0,0.0,0.0,0.0,0.0,0.3369,0.3067,0.2655,0.2778,0.0,0.0,0.0,0.0,0.0,0.0915,0.0,0.0,0.0,0.0,0.213,0.1823,0.0,0.291,0.2893,0.331,0.3607,0.3337,0.3547,0.3765,0.3863,0.3873,0.3877,0.3983,0.391,0.3951,0.4152,0.1691,-0.0,-0.0,-0.0,-0.0,-0.0,0.1139,0.0,0.3547,0.3661,0.3731,0.3731,0.374,0.3719,0.3721,0.3629,0.3581,0.3581,0.3581,0.3707,0.3884,0.3942,0.4393,0.4988,0.4381,0.4804,0.5719,0.4503,0.4138,0.4467,0.5609,0.6238,0.6696,0.796,0.8593,0.8804,0.0,0.0,0.0,0.0,0.0,0.0,0.0,0.0,0.0,0.0,0.0,0.0,0.0,0.0,0.0,-0.1027,-0.0202,0.054,0.1141,0.1252,0.1474,0.1872,0.1894,0.2048,0.2376,0.2333,0.0,0.0,0.0,0.0,0.0,0.0,0.279,0.2811,0.3,0.3018,0.2876,0.0,0.2518,0.2742,0.0,0.1286,0.2094,0.0,0.0,0.0,0.1873,0.2304,0.0,0.2881,0.0,0.0,0.0,0.0,0.0,0.0,0.0,0.0,0.0,0.0,0.0,0.0,0.0,0.0,0.0783,0.0,0.1833,0.2064,0.265,0.3125,0.3266,0.3299,0.335,0.3544,0.3575,0.3581,0.3581,0.3602,0.3567,0.3523,0.1436,-0.0,-0.0,-0.0,-0.0,-0.0,0.1135,0.2368,0.3541,0.3622,0.3615,0.3615,0.3622,0.3581,0.3581,0.3581,0.3581,0.3581,0.3581,0.388,0.4391,0.4391,0.4696,0.5216,0.4652,0.4642,0.498,0.4299,0.4012,0.4082,0.4991,0.5775,0.6478,0.7401,0.8196,0.8798,0.0,0.0,0.0,0.0,0.0,0.0,0.0,0.0,0.0,0.0,0.0,0.0,0.0,0.0,-0.1167,-0.0739,-0.0259,0.0238,0.0811,0.1121,0.1341,0.1452,0.1787,0.203,0.2188,0.2394,0.2502,0.0,0.0,0.0,0.0,0.0,0.0,0.0,0.2967,0.2944,0.2814,0.2621,0.0,0.2431,0.1993,0.1658,0.0,0.0,0.0,0.0,0.0,0.3025,0.3682,0.0,0.3488,0.204,0.0,0.0,0.0,0.0,0.0,0.0,-0.0199,0.0,0.0,0.0,0.0,0.0,0.0,0.0,0.1482,0.2366,0.2619,0.2739,0.3042,0.3117,0.3202,0.3377,0.3485,0.3585,0.3602,0.3612,0.2929,0.1213,0.039,-0.0,-0.0,-0.0,-0.0,0.0,0.1946,0.3239,0.3571,0.3596,0.359,0.359,0.3597,0.3581,0.3581,0.3581,0.3581,0.3581,0.3581,0.3667,0.384,0.384,0.3924,0.4056,0.388,0.3887,0.4017,0.3792,0.3829,0.4111,0.5188,0.5823,0.6295,0.7708,0.8338,0.8524,0.0,0.0,0.0,0.0,0.0,0.0,0.0,0.0,0.0,0.0,0.0,0.0,0.0,0.0,0.0,-0.0496,-0.0169,0.022,0.0678,0.1009,0.123,0.1343,0.161,0.1854,0.2056,0.2219,0.2311,0.0,0.0,0.0,0.0,0.0,0.0,0.0,0.0,0.0,0.0,0.0,0.0,0.0,0.1757,0.0,0.0,0.1522,0.1729,0.0,0.0,0.0,0.4155,0.4564,0.4063,0.0,0.0,0.0,0.0,0.0,0.0,0.0,0.0,0.0,0.0,0.0,0.0,0.0,-0.0043,0.0169,0.0491,0.0,0.1497,0.1645,0.2105,0.2042,0.2207,0.3075,0.3301,0.3258,0.2907,0.243,0.1575,0.017,-0.0,-0.0,-0.0,-0.0,-0.0,-0.0,0.1295,0.2309,0.282,0.286,0.2856,0.2863,0.332,0.3605,0.358,0.3595,0.3581,0.3581,0.3581,0.3581,0.3581,0.3581,0.3581,0.3581,0.3581,0.3581,0.3581,0.3581,0.3683,0.3975,0.519,0.5759,0.6065,0.7759,0.8427,0.8417,0.0,0.0,0.0,0.0,0.0,0.0,0.0,0.0,0.0,0.0,0.0,0.0,0.0,0.0,0.0,0.0,0.0074,0.0395,0.068,0.0904,0.1129,0.1366,0.1424,0.1603,0.1964,0.1934,0.1983,0.0,0.0,0.0,0.0,0.0,0.0,0.0,0.0,0.0,0.0,0.0,0.0,0.2364,0.1116,0.1184,0.0,0.0,0.1731,0.2843,0.287,0.3563,0.4375,0.3951,0.3853,0.0,0.0,0.0,0.0,0.0,-0.0731,0.0,0.0,0.0,0.0,0.0,0.0,0.0,-0.1246,-0.1122,-0.0791,0.0,-0.0039,0.0153,0.0744,0.0546,0.0776,0.2401,0.2774,0.2609,0.1732,0.0666,-0.0,-0.0,-0.0,-0.0,-0.0,-0.0,-0.0,-0.0,-0.0,0.0451,0.1551,0.1605,0.1614,0.1587,0.2627,0.3324,0.3608,0.3604,0.3581,0.3581,0.3581,0.3581,0.3581,0.3581,0.3581,0.3581,0.3581,0.3581,0.3581,0.3581,0.3581,0.3725,0.5119,0.5641,0.5876,0.7662,0.8297,0.8363,-0.4834,0.0,0.0,0.0,0.0,0.0,0.0,0.0,0.0,0.0,0.0,0.0,0.0,0.0,0.0,0.0,0.0448,0.0677,0.0705,0.1048,0.1245,0.1234,0.1496,0.1667,0.1762,0.195,0.2051,0.0,0.0,0.0,0.0,0.0,0.0,0.0,0.0,0.0,0.0,0.0,0.0,0.2244,0.2146,0.0,0.2857,0.2068,0.2086,0.2588,0.2687,0.3106,0.3319,0.1795,0.1963,0.2618,0.0,0.0,0.0,-0.0189,0.0,0.0,0.0,0.0,0.0,0.0,0.0,0.0,-0.1068,-0.1391,-0.1436,0.0,-0.0405,-0.0696,-0.0617,-0.0248,-0.0,-0.0184,0.0828,0.1335,0.0466,0.0157,-0.0,-0.0,-0.0,-0.0,-0.0,-0.0,-0.0,-0.0,-0.0,0.0106,0.0321,0.0348,0.0341,0.0336,0.0587,0.1632,0.3578,0.3612,0.3581,0.3581,0.3581,0.3581,0.3581,0.3581,0.3581,0.3581,0.3581,0.3581,0.3581,0.3581,0.3581,0.3714,0.4916,0.5368,0.5574,0.7096,0.7802,0.8063,-0.4606,0.0,0.0,0.0,0.0,0.0,0.0,0.0,0.0,0.0,0.0,0.0,0.0,0.0,0.0,0.0,0.0,0.0,0.0,0.0,0.1238,0.1449,0.1543,0.1684,0.1846,0.1946,0.2057,0.0,0.0,0.0,0.0,0.0,0.0,0.0,0.0,0.0,0.0,0.0,0.2887,0.2918,0.2093,0.0,0.2471,0.1885,0.1959,0.2374,0.2613,0.297,0.3096,0.1641,0.1801,0.0,0.1674,0.0537,-0.0385,0.0,-0.0992,-0.1914,0.0,0.0,0.0,-0.1787,0.0,0.0,0.0,-0.2162,-0.2289,-0.1486,-0.1658,-0.1921,-0.1821,-0.1588,-0.1494,-0.1717,-0.1146,-0.0714,-0.0868,-0.0362,-0.0,-0.0,-0.0,-0.0,-0.0,-0.0,-0.0,-0.0,-0.0,-0.0,-0.0,-0.0,-0.0,-0.0,-0.0,0.0868,0.27,0.3309,0.3581,0.3581,0.3581,0.3581,0.3581,0.3581,0.3581,0.3581,0.3581,0.3581,0.3581,0.3581,0.3581,0.3711,0.4874,0.548,0.5901,0.709,0.7569,0.7742,-0.4216,0.0,0.0,0.0,0.0,0.0,0.0,0.0,0.0,0.0,0.0,0.0,0.0,0.0,0.0,0.0,0.0,0.0,0.0,0.0,0.0,0.1596,0.1683,0.1815,0.2027,0.2053,0.2163,0.0,0.0,0.0,0.0,0.0,0.0,0.0,0.0,0.0,0.0,0.0,0.0,0.3674,0.0,0.1863,0.2101,0.1769,0.1801,0.2121,0.2561,0.2907,0.3025,0.1964,0.2154,0.2543,0.1293,0.0335,0.0,0.0,0.0,0.0,0.0,0.0,0.0,0.0,0.0,-0.2684,0.0,0.0,0.0,-0.2747,-0.2887,-0.3016,0.0,0.0,0.0,-0.271,0.0,0.0,0.0,-0.1117,0.0,-0.0271,-0.0295,-0.0226,-0.0033,-0.0,-0.0,-0.0,-0.0,-0.0,-0.0,-0.0,-0.0,-0.0,-0.0,0.0475,0.1465,0.2892,0.3585,0.3585,0.3581,0.3581,0.3581,0.3581,0.3581,0.3581,0.3581,0.3581,0.3581,0.3581,0.3667,0.3836,0.4874,0.561,0.6159,0.7069,0.7459,0.7547,-0.3439,-0.3138,0.0,0.0,0.0,0.0,0.0,0.0,0.0,0.0,0.0,0.0,0.0,0.0,0.0,0.0,0.0,0.0,0.1405,0.0,0.0,0.0,0.2062,0.2355,0.2102,0.2427,0.2583,0.0,0.0,0.0,0.0,0.0,0.0,0.0,0.2374,0.0,0.0,0.0,0.3405,0.0,0.408,0.3725,0.0,0.2853,0.2278,0.1687,0.2423,0.2712,0.2633,0.0,0.1961,0.2404,0.0,-0.0,-0.0336,-0.0841,0.0,0.0,0.0,0.0,0.0,0.0,-0.3081,0.0,0.0,0.0,-0.3326,-0.3178,0.0,-0.3288,0.0,0.0,0.0,0.0,0.0,0.0,-0.165,-0.2373,-0.2546,-0.1317,-0.1324,-0.1054,-0.0101,-0.0,-0.0,-0.0,-0.0,-0.0,-0.0,-0.0,-0.0,-0.0,-0.0,0.0044,0.0222,0.2467,0.3605,0.3595,0.3585,0.3581,0.3581,0.3581,0.3581,0.3581,0.3581,0.3581,0.3581,0.3581,0.388,0.4391,0.5043,0.5351,0.5524,0.663,0.7241,0.7513,-0.2885,-0.2602,0.0,0.0,0.0,0.0,0.0,0.0,0.0,0.0,0.0,0.0,0.0,0.0,0.0,0.0,0.0,0.2617,0.0,0.0,0.0,0.0,0.2984,0.2663,0.3405,0.2797,0.2503,0.2616,0.2617,0.0,0.0,0.0,0.0,0.0,0.2441,0.0,0.2819,0.0,0.4003,0.0,0.0,0.0,0.0,0.0531,0.0886,0.2241,0.2566,0.2712,0.2656,0.0,0.2051,0.0,0.0,0.0,0.0,-0.0499,0.0,0.0,0.0,0.0,0.0,0.0,0.0,0.0,-0.3534,0.0,-0.3562,0.0,0.0,0.0,0.0,0.0,0.0,0.0,-0.305,0.0,0.0,0.0,-0.2877,0.0,0.0,0.0,-0.02,-0.0749,-0.147,-0.2116,-0.0828,-0.0,-0.0,-0.0,-0.0,-0.0,-0.0,-0.0,-0.0,0.0986,0.1971,0.2912,0.3357,0.3581,0.3581,0.3581,0.3581,0.3581,0.3581,0.3581,0.3581,0.3581,0.3751,0.4008,0.4565,0.5216,0.5873,0.6349,0.6802,0.7165,-0.1837,0.0,0.0,0.0,0.0,0.0,0.0,0.0,0.0,0.0,0.0,0.0,0.3442,0.2914,0.0,0.0,0.3672,0.3513,0.0,0.0,0.3434,0.0,0.0,0.0,0.0,0.3328,0.2816,0.2568,0.0,0.0,0.0,0.0,0.0,0.0,0.0,0.2438,0.2668,0.0,0.4538,0.4123,0.4432,0.3256,0.1127,-0.1054,-0.0,0.2712,0.2712,0.2712,0.2712,0.2712,0.2299,0.0,0.2765,0.1267,-0.0685,0.0,0.0,0.0,-0.2114,0.0,0.0,0.0,0.0,0.0,0.0,0.0,0.0,0.0,0.0,0.0,0.0,0.0,0.0,0.0,0.0,-0.329,0.0,-0.3473,0.0,0.0,0.0,0.0,0.0,-0.1728,-0.2596,-0.3786,-0.2105,-0.0719,-0.0033,-0.0,-0.0,-0.0,-0.0,-0.0,-0.0,0.0661,0.1414,0.2235,0.3173,0.3581,0.3581,0.3581,0.3581,0.3581,0.3581,0.3581,0.3581,0.3581,0.3581,0.3622,0.4052,0.4787,0.5744,0.6093,0.6435,0.6725,0.0025,-0.04,0.0,0.0,0.0,0.0,0.0,0.0,0.0,0.0,0.0,0.0,0.0,0.0,0.0,0.0,0.0,0.3171,0.3646,0.0,0.313,0.0,0.0,0.426,0.0,0.0,0.3835,0.0,0.0,0.0,0.0,0.0,0.0,0.0,0.0,0.2675,0.3714,0.3395,0.4659,0.6855,0.6868,0.4749,0.1384,0.0,0.0463,0.2712,0.2712,0.0,0.0,0.2712,0.2683,0.0,0.0,0.0,0.0,0.0,0.0,0.0,0.0,0.0,0.0,-0.1777,0.0,0.0,0.0,0.0,-0.4064,0.0,0.0,0.0,0.0,0.0,0.0,0.0,0.0,0.0,0.0,0.0,0.0,0.0,0.0,0.0,0.0,-0.2835,-0.2719,-0.4166,-0.3842,-0.2523,-0.0132,-0.0,-0.0,-0.0,-0.0,-0.0,-0.0,0.2324,0.2933,0.183,0.3037,0.3581,0.3581,0.3581,0.3581,0.3581,0.3581,0.3581,0.3581,0.3581,0.3581,0.3581,0.3622,0.3965,0.4609,0.5787,0.6227,0.6221,0.0,0.0,0.0,0.0,0.0,0.0,0.0,0.2254,0.0,0.0,0.3201,0.0,0.0,0.4633,0.4716,0.0,0.0,0.4803,0.578,0.4835,0.0,0.0,0.0,0.4726,0.0,0.0,0.0,0.0,0.0,0.0,0.0,0.0,0.0,0.0,0.0,0.231,0.0,0.0,0.0,0.0,0.0,0.0903,-0.0204,0.0,0.0163,0.0984,0.1561,0.1772,0.0,0.2018,0.2112,0.2197,0.2642,0.1875,0.0871,0.1435,0.0077,-0.1754,0.0,0.0,-0.2977,-0.152,0.0,0.0,0.0,0.0,0.0,0.0,0.0,0.0,0.0,0.0,0.0,0.0,0.0,0.0,0.0,0.0,0.0,0.0,0.0,0.0,0.0,0.0,-0.3802,-0.4258,-0.3911,-0.3345,-0.2498,-0.0901,-0.0,-0.0,-0.0,-0.0,-0.0,0.2403,0.341,0.3004,0.3401,0.3581,0.3581,0.3581,0.3581,0.3581,0.3581,0.3581,0.3581,0.3581,0.3581,0.3581,0.3581,0.3711,0.3965,0.4744,0.526,0.5567,0.0604,0.0,0.0,0.0,0.0,0.0,0.0,0.0,0.0,0.0,0.3547,0.0,0.524,0.0,0.5486,0.0,0.5989,0.5837,0.6651,0.563,0.0,0.7253,0.59,0.5142,0.0,0.0,0.0,0.0,0.0,0.1951,0.0,0.0,0.0,0.0,0.0,0.2014,0.1871,0.2843,0.2548,0.0,0.0,-0.1498,0.0,0.0,-0.0149,0.0073,0.0,0.084,0.087,0.1082,0.1593,0.2177,0.2574,0.1853,0.1132,0.2597,0.1506,-0.0344,-0.0974,-0.195,0.0,-0.0905,-0.1453,0.0,-0.4329,0.0,-0.4615,0.0,0.0,0.0,0.0,0.0,0.0,0.0,0.0,0.0,0.0,-0.4377,0.0,0.0,0.0,0.0,0.0,-0.4511,-0.4318,-0.4253,-0.3863,-0.3639,-0.3616,-0.1736,-0.0478,-0.0,-0.0,0.0421,0.1262,0.228,0.3055,0.3592,0.3527,0.3527,0.3581,0.3581,0.3581,0.3581,0.3581,0.3581,0.3581,0.3581,0.3581,0.3581,0.3581,0.3581,0.3667,0.422,0.4652,0.4913,0.1384,0.0,0.0,0.0,0.2542,0.0,0.0,0.0,0.2973,0.0,0.3265,0.4475,0.4401,0.4819,0.5618,0.689,0.6493,0.6209,0.6196,0.5547,0.0,0.0,0.5871,0.5597,0.4813,0.0,0.0,0.0,0.0,0.0,0.0,0.0,0.0,0.0,0.1926,0.0,0.1543,0.1027,-0.0329,-0.2139,-0.2654,-0.2194,-0.1164,-0.0808,-0.0435,-0.0033,-0.0009,0.0,0.0,0.0,0.1136,0.2593,0.2666,0.2097,0.1656,0.3031,0.3021,0.2194,0.0467,-0.0,-0.0,-0.0,-0.101,0.0,0.0,0.0,-0.4804,0.0,0.0,0.0,0.0,0.0,0.0,0.0,0.0,0.0,0.0,0.0,-0.428,0.0,0.0,0.0,0.0,-0.4398,-0.4237,-0.4081,-0.3784,-0.3556,0.0,-0.2465,-0.1296,-0.0039,-0.0,0.1151,0.3587,0.2127,0.2131,0.3578,0.3373,0.3376,0.3568,0.3568,0.3568,0.3568,0.3578,0.3581,0.3581,0.3581,0.3575,0.3568,0.3568,0.3568,0.3656,0.4176,0.4347,0.4347,0.1717,0.2579,0.3236,0.0,0.2743,0.2408,0.0,0.0,0.0,0.0,0.396,0.4973,0.5361,0.6041,0.6553,0.6673,0.6567,0.0,0.0,0.0,0.0,0.6082,0.6313,0.5926,0.4813,0.4412,0.3545,0.2162,0.0,0.0,0.1198,0.0,0.0,0.0,0.0,0.0,0.141,0.0942,0.0217,-0.0674,-0.1902,-0.242,-0.2328,0.0,-0.0643,-0.0488,-0.0129,0.0,0.0,0.0,0.0305,0.0931,0.2293,0.2526,0.2166,0.1208,0.0818,0.0585,0.0123,-0.0,-0.0,-0.0,-0.0264,-0.0664,0.0,0.0,0.0,0.0,0.0,0.0,0.0,0.0,0.0,0.0,0.0,0.0,0.0,0.0,0.0,-0.421,0.0,0.0,-0.4226,-0.4097,-0.3959,-0.3796,-0.3435,-0.3286,-0.3421,0.0,-0.1017,-0.0035,-0.0,0.116,0.3584,0.2972,0.2964,0.3578,0.3307,0.3219,0.3366,0.3409,0.3409,0.3373,0.3531,0.3581,0.3581,0.3581,0.3514,0.3366,0.3451,0.3451,0.3468,0.3709,0.3792,0.3792,0.2362,0.0,0.0,0.3799,0.0,0.0,0.3625,0.3699,0.0,0.4165,0.5523,0.0,0.5892,0.6526,0.6954,0.6794,0.6774,0.0,0.6546,0.0,0.0,0.6203,0.635,0.6027,0.5221,0.4548,0.0,0.2694,0.0,0.0,0.1092,0.0,0.0,0.0,0.0,0.1212,0.1151,0.0775,0.0062,-0.0817,-0.1116,-0.1788,0.0,-0.1884,-0.1257,-0.0641,-0.018,-0.0,-0.0,-0.0,-0.0,0.0171,0.121,0.1527,0.1301,0.0282,-0.0,-0.0,-0.0,-0.0,-0.0,-0.0,-0.0,-0.0,-0.0,-0.166,-0.3207,0.0,-0.3918,-0.4496,0.0,0.0,0.0,0.0,0.0,0.0,0.0,0.0,0.0,0.0,-0.368,0.0,-0.3532,-0.3687,-0.3638,-0.3322,-0.3128,-0.3063,0.0,0.0,-0.1843,-0.1423,-0.0483,0.0389,0.1243,0.2495,0.2878,0.2467,0.2856,0.3068,0.3209,0.332,0.3351,0.3358,0.3514,0.3585,0.353,0.3595,0.3449,0.3209,0.3249,0.3249,0.3259,0.3347,0.3466,0.3571,0.3024,0.0,0.0,0.0,0.0,0.0,0.0,0.5381,0.0,0.5275,0.0,0.7612,0.6073,0.6551,0.6979,0.6979,0.0,0.6979,0.6979,0.6754,0.648,0.6263,0.6216,0.6068,0.5778,0.4807,0.4058,0.0,0.0,0.0,0.0,0.0,0.0,0.0,0.0,0.0,0.0,0.0491,-0.0414,-0.1562,-0.0447,-0.0767,-0.1971,-0.2643,-0.1949,-0.0554,-0.0131,-0.0,-0.0,-0.0,-0.0,-0.0,-0.0,-0.0,-0.0,-0.0,-0.0,-0.0,-0.0,-0.0,-0.009,-0.0404,-0.0449,-0.04,-0.0086,-0.1868,-0.3588,-0.3588,-0.4115,-0.4509,0.0,0.0,0.0,0.0,0.0,0.0,0.0,0.0,0.0,0.0,0.0,0.0,-0.2834,-0.3228,-0.3259,-0.2788,-0.281,-0.2852,-0.284,0.0,-0.3027,-0.334,-0.1443,-0.0812,-0.1599,0.1106,0.2076,0.1301,0.2349,0.2954,0.3058,0.3209,0.332,0.3372,0.3547,0.3547,0.3434,0.3571,0.3412,0.3108,0.3088,0.3082,0.3082,0.3082,0.3303,0.3531,0.2862,0.0,0.0,0.0,0.0,0.4088,0.7425,0.5662,0.4142,0.4534,0.5711,0.6334,0.5847,0.6526,0.6979,0.6979,0.6979,0.0,0.0,0.0,0.0,0.652,0.6324,0.6169,0.6115,0.4929,0.393,0.0,0.0,0.0,0.0,0.0,0.0,0.0,0.0,0.0,-0.0,-0.0193,0.0,-0.0846,-0.0243,-0.0154,-0.0572,-0.2264,-0.1735,-0.0111,-0.0036,-0.0,-0.0,-0.0,-0.0,-0.0,-0.0,-0.0,-0.0,-0.0,-0.0,-0.0,-0.0,-0.0,-0.0494,-0.2476,-0.2976,-0.2469,-0.0444,-0.1857,-0.3595,-0.3605,-0.3683,-0.3893,-0.4161,0.0,0.0,0.0,0.0,0.0,0.0,0.0,0.0,0.0,0.0,-0.3699,0.0,-0.288,-0.2725,-0.2406,-0.2494,-0.2557,0.0,0.0,-0.2854,0.0,-0.3194,0.0,0.0,0.0,0.0407,0.2716,0.2737,0.2801,0.2951,0.3058,0.3122,0.3178,0.3459,0.3609,0.3585,0.3568,0.3473,0.3256,0.3132,0.3082,0.3082,0.3082,0.3236,0.343,0.3705,0.0,0.0,0.0,0.0,0.0,0.0,0.5867,0.5339,0.6302,0.698,0.7172,0.6743,0.6851,0.6979,0.6979,0.6979,0.6979,0.6979,0.6894,0.6747,0.6593,0.66,0.6505,0.6203,0.5879,0.4841,0.3089,0.0,0.0,0.0,0.0,0.0,0.0,0.0,-0.0214,0.0,0.0,0.0,-0.1014,-0.029,0.0,-0.0102,-0.1043,-0.0817,-0.0,-0.0,-0.0,-0.0,-0.0,-0.0,-0.0,-0.0,-0.0,-0.0,-0.0,-0.0,-0.0,-0.0,-0.0912,-0.1826,-0.174,-0.2656,-0.3286,-0.2154,-0.2776,-0.3581,-0.3588,-0.3585,-0.3684,-0.3959,-0.3908,0.0,0.0,0.0,0.0,0.0,0.0,-0.3022,0.0,0.0,0.0,0.0,0.0,0.0,0.0,0.0,0.0,0.0,0.0,-0.2712,0.0,0.0,0.0,-0.1196,0.0,0.0771,0.1103,0.2185,0.272,0.2798,0.3018,0.3082,0.3137,0.3446,0.3534,0.3453,0.3375,0.3344,0.3375,0.3492,0.339,0.312,0.3463,0.3442,0.3232,0.0,0.491,0.0,0.0,0.4911,0.5019,0.5844,0.6096,0.6684,0.7852,0.8114,0.7983,0.7456,0.7161,0.6979,0.6979,0.6979,0.6979,0.6979,0.6894,0.6754,0.6533,0.6546,0.6375,0.5996,0.6418,0.55,0.0,0.0,0.0,0.0,0.0,0.0,0.0,0.0,0.0,0.0,0.0,-0.0299,-0.103,-0.0296,0.0,0.0,0.0,-0.0,-0.0,-0.0,-0.0,-0.0,-0.0,-0.0,-0.0,-0.0,-0.0,-0.0,-0.0,-0.0,-0.0084,-0.0463,-0.1673,-0.2501,-0.1049,-0.1982,-0.3287,-0.3554,-0.3595,-0.3581,-0.3585,-0.3578,-0.3538,-0.3641,-0.3419,0.0,0.0,0.0,0.0,0.0,0.0,0.0,0.0,0.0,0.0,-0.4143,0.0,0.0,0.0,0.0,0.0,-0.1734,0.0,0.0,0.0,0.0,-0.2421,-0.2137,0.0,0.1497,-0.0033,0.1826,0.2712,0.2726,0.2988,0.3082,0.3137,0.3446,0.351,0.3346,0.3269,0.329,0.3472,0.3786,0.3589,0.3207,0.3676,0.3559,0.3132,0.0,0.0,0.0,0.0,0.0,0.4893,0.7069,0.6606,0.6282,0.7018,0.7145,0.7103,0.7061,0.7041,0.6979,0.6979,0.6979,0.6979,0.6979,0.6562,0.6258,0.6228,0.552,0.5204,0.537,0.5422,0.4755,0.0,0.0,0.0127,0.0,0.0,0.0,0.0,0.0,0.0,0.0,0.0998,0.0504,-0.0123,-0.0036,0.0,0.0,0.0,-0.0,-0.0,-0.0,-0.0,-0.0,-0.0,-0.0,-0.0,-0.0,-0.0,-0.0,-0.0,-0.0,-0.0379,-0.2021,-0.1429,-0.0758,-0.2537,-0.2482,-0.2253,-0.3372,-0.3581,-0.3585,-0.3595,-0.3458,-0.3289,-0.3166,-0.3175,-0.3224,0.0,0.0,0.0,0.0,0.0,-0.3152,-0.3159,0.0,0.0,-0.3608,-0.393,-0.3796,-0.3242,-0.2557,0.0,0.0,0.0,0.0,-0.3945,-0.2893,-0.2434,-0.2634,-0.0292,0.1396,0.2371,0.261,0.2712,0.2726,0.2988,0.3082,0.3137,0.3446,0.3571,0.3558,0.3544,0.3544,0.3602,0.3628,0.3492,0.3286,0.3409,0.3372,0.3286,0.0,0.0,0.0,0.0,0.0,0.0,0.0,0.6995,0.7116,0.7025,0.6979,0.6979,0.6979,0.6979,0.6979,0.6979,0.6683,0.652,0.652,0.6002,0.5653,0.5653,0.5307,0.5174,0.5303,0.5065,0.4367,0.0,0.0,0.0,0.0,0.0,0.0,0.0,0.0,0.0883,0.1385,0.2207,0.2398,0.2021,0.058,0.0,0.0,0.0,-0.0,-0.0,-0.0,-0.0,-0.0,-0.0,-0.0,-0.0,-0.0,-0.0,-0.0,-0.0,-0.0781,-0.1785,-0.249,-0.2343,-0.2047,-0.2329,-0.2644,-0.3017,-0.3476,-0.3581,-0.3581,-0.3585,-0.3434,-0.3257,-0.3124,-0.299,-0.2985,-0.3307,0.0,0.0,0.0,0.0,0.0,-0.3077,0.0,-0.1538,-0.2475,-0.3225,-0.3233,-0.2241,0.0,0.0,0.0,0.0,0.0,-0.3542,0.0,-0.3418,-0.1269,-0.0127,0.0923,0.1866,0.2441,0.2712,0.2719,0.29,0.3051,0.3226,0.3346,0.3493,0.3581,0.3581,0.3581,0.3667,0.436,0.414,0.3573,0.429,0.4081,0.3487,0.8504,0.0,0.7514,0.0,0.7007,0.7037,0.6393,0.709,0.7418,0.6826,0.6768,0.6816,0.6979,0.6719,0.6592,0.6768,0.6258,0.5916,0.5916,0.5389,0.5043,0.5043,0.4874,0.0,0.4792,0.4535,0.4045,0.3328,0.1781,0.0,0.0,0.0,0.0,0.0,0.1113,0.138,0.2002,0.3138,0.3595,0.3454,0.175,0.0636,-0.0,-0.0,-0.0,-0.0,-0.0,-0.0,-0.0,-0.0,-0.0489,-0.1078,-0.1078,-0.0916,-0.0757,-0.0463,-0.1301,-0.2343,-0.2637,-0.2968,-0.3086,-0.234,-0.2909,-0.3618,-0.3615,-0.3581,-0.349,-0.3129,-0.3256,-0.3317,-0.3141,-0.2894,-0.271,-0.2782,0.0,0.0,0.0,-0.3552,0.0,-0.2742,-0.2532,-0.2431,-0.2502,-0.2758,-0.2884,-0.27,0.0,0.0,0.0,0.0,0.0,0.0,0.0,0.0,-0.0993,-0.0412,0.049,0.1731,0.2374,0.2712,0.2719,0.2976,0.3183,0.3306,0.343,0.3644,0.3836,0.3836,0.3924,0.4188,0.5005,0.47,0.3924,0.4744,0.4443,0.3581,1.0471,0.9657,0.8644,0.8475,0.754,0.6736,0.6606,0.6824,0.6816,0.6264,0.6227,0.6392,0.6937,0.599,0.5567,0.6136,0.5653,0.5308,0.5308,0.4735,0.4391,0.0,0.0,0.3622,0.3622,0.3626,0.3626,0.3581,0.0,0.0,0.1687,0.0,0.1066,0.1685,0.1685,0.2406,0.3551,0.3598,0.3605,0.3594,0.3554,0.2132,-0.0,-0.0,-0.0,-0.0,-0.0,-0.0,-0.0,-0.0,-0.1605,-0.3567,-0.3567,-0.3153,-0.2485,-0.1553,-0.1295,-0.1524,-0.2432,-0.2884,-0.3111,-0.309,-0.3329,-0.3581,-0.3595,-0.3581,-0.3265,-0.2053,-0.2775,-0.3506,-0.3145,-0.2875,-0.2398,-0.1479,0.0,0.0,0.0,-0.3238,0.0,-0.219,-0.4095,-0.5121,-0.4269,-0.2914,0.0,0.0,0.0,0.0,0.0,0.0,0.0,-0.4085,-0.5064,0.0,-0.2599,-0.1663,0.013,0.2679,0.2679,0.2712,0.2719,0.3321,0.3478,0.3306,0.3794,0.4139,0.4387,0.4387,0.4739,0.5265,0.5303,0.4913,0.4387,0.4391,0.4049,0.3581,0.9898,0.9768,0.9163,0.8262,0.7966,0.7639,0.6993,0.6774,0.6599,0.6245,0.548,0.5216,0.5776,0.5518,0.5389,0.0,0.5043,0.4696,0.0,0.418,0.3836,0.3836,0.3711,0.3581,0.3581,0.3581,0.3581,0.3581,0.0,0.0,0.0,0.2495,0.281,0.299,0.2998,0.2776,0.2415,0.3239,0.3612,0.3445,0.1826,0.0689,-0.0,-0.0,-0.0,-0.0,-0.0,-0.0,-0.0269,-0.1903,-0.2987,-0.3612,-0.3595,-0.3295,-0.286,-0.2409,-0.2249,-0.2364,-0.2776,-0.2985,-0.3135,-0.3209,-0.3402,-0.3614,-0.3581,-0.3598,-0.301,-0.0983,-0.0864,-0.1366,-0.2098,-0.2497,-0.2407,-0.1445,-0.1236,0.0,-0.2558,0.0,-0.2332,-0.2974,-0.3049,-0.3597,-0.4963,-0.2858,0.0,0.0,0.0,0.0,0.0,0.0,0.0,0.0,-0.2496,0.0,0.0984,0.0223,0.0785,0.2712,0.2712,0.2712,0.2719,0.3421,0.3741,0.3825,0.4463,0.4846,0.5,0.5,0.513,0.5303,0.5303,0.4913,0.4434,0.487,0.4399,0.3667,0.9283,0.9413,0.9153,0.8225,0.8163,0.788,0.6981,0.6636,0.6228,0.5588,0.487,0.4478,0.4661,0.4661,0.0,0.4957,0.4439,0.4092,0.4092,0.3796,0.3581,0.3581,0.3581,0.3581,0.3581,0.3581,0.0,0.3581,0.3034,0.2807,0.2807,0.335,0.3353,0.2948,0.3414,0.3191,0.2464,0.2292,0.225,0.2113,0.0629,-0.0,-0.0,-0.0,-0.0,-0.0,-0.0,-0.0,-0.0359,-0.2792,-0.3612,-0.3605,-0.3592,-0.3422,-0.3152,-0.2983,-0.286,-0.2844,-0.3004,-0.31,-0.3199,-0.3299,-0.343,-0.3585,-0.3602,-0.3609,-0.2929,-0.0493,-0.0,-0.0211,-0.0991,-0.1419,-0.1504,-0.0913,-0.0368,-0.0339,-0.1358,0.0,-0.1615,0.0,0.0,0.0,0.0,-0.2761,-0.1139,0.0,0.0,0.0,0.0,0.0,0.0,-0.2106,-0.153,-0.0254,0.1793,0.0803,0.1115,0.2712,0.2712,0.2779,0.2944,0.3694,0.4103,0.4271,0.4992,0.5432,0.5653,0.5653,0.5653,0.5653,0.5653,0.5265,0.4739,0.4913,0.4526,0.3924,0.8804,0.8791,0.8684,0.0,0.8048,0.7508,0.6714,0.6287,0.5658,0.4565,0.4391,0.4132,0.3667,0.3581,0.3792,0.4303,0.0,0.0,0.3581,0.3581,0.3581,0.3581,0.3581,0.3581,0.3581,0.3581,0.3581,0.3581,0.3581,0.3581,0.3581,0.3581,0.2996,0.1966,0.2923,0.334,0.3203,0.0943,-0.0,-0.0,-0.0,-0.0,-0.0,-0.0,-0.0,-0.0,-0.0,-0.0,-0.0359,-0.261,-0.3468,-0.3598,-0.3598,-0.341,-0.3207,-0.3316,-0.3169,-0.3021,-0.2979,-0.3128,-0.3284,-0.3298,-0.3351,-0.3404,-0.3564,-0.3478,-0.2702,-0.0449,-0.0,-0.0,-0.0,-0.0,-0.0,-0.0,-0.0,-0.0067,-0.0258,-0.0143,-0.0779,0.0,0.0,0.0,-0.2364,-0.2453,-0.1692,0.0,0.0,0.0,0.0,0.0,-0.0944,-0.0937,-0.1656,-0.124,0.0456,0.0456,0.1214,0.2712,0.2712,0.294,0.3331,0.4088,0.4521,0.4683,0.5415,0.5914,0.6264,0.6221,0.6209,0.6155,0.6087,0.5733,0.5153,0.46,0.4391,0.4264,0.0,0.0,0.8383,0.8083,0.7402,0.6754,0.6351,0.5474,0.4739,0.443,0.4049,0.3751,0.3622,0.3581,0.3667,0.3796,0.3667,0.3581,0.3581,0.3581,0.3581,0.3581,0.3581,0.3581,0.3581,0.3581,0.3581,0.3581,0.3581,0.3585,0.3595,0.3602,0.3468,0.3108,0.1527,0.0854,0.0809,0.0225,-0.0,-0.0,-0.0,-0.0,-0.0,-0.0,-0.0,-0.0,-0.0,-0.0,-0.009,-0.0672,-0.2062,-0.3609,-0.3602,-0.2937,-0.2319,-0.3279,-0.3313,-0.2893,-0.1962,-0.2498,-0.3353,-0.348,-0.2184,-0.1345,-0.32,-0.216,-0.0674,-0.0135,-0.0,-0.0,-0.0,-0.0,-0.0,-0.0,-0.0,-0.0756,-0.2966,-0.1399,-0.0186,0.0,-0.1053,-0.1055,-0.0681,-0.0619,-0.0434,0.0,0.0,-0.109,-0.4264,-0.0485,0.1761,0.1786,0.158,0.1711,0.2126,0.2126,0.2332,0.2712,0.3003,0.3196,0.3335,0.4163,0.4814,0.5308,0.5844,0.6373,0.6768,0.6349,0.6103,0.5891,0.5109,0.4692,0.4457,0.4427,0.4136,0.3836,0.8804,0.8571,0.8227,0.7634,0.7022,0.6338,0.5517,0.4826,0.4303,0.4049,0.3796,0.3581,0.3581,0.3581,0.3581,0.3581,0.3581,0.3581,0.3581,0.3581,0.3581,0.3581,0.3581,0.3581,0.3581,0.3581,0.3585,0.3588,0.3043,0.3046,0.3605,0.3612,0.3021,0.1889,0.0596,-0.0,-0.0,-0.0,-0.0,-0.0,-0.0,-0.0,-0.0135,-0.1213,-0.1663,-0.1572,-0.1031,-0.0448,-0.0179,-0.1253,-0.1791,-0.2154,-0.3242,-0.3146,-0.2637,-0.2762,-0.304,-0.3082,-0.1848,-0.2072,-0.2654,-0.2765,-0.139,-0.0359,-0.1663,-0.0943,-0.0,-0.0,-0.0,-0.0,-0.0,-0.0,-0.0,-0.0,-0.0839,-0.19,-0.3129,-0.2534,-0.1465,-0.0147,-0.0497,-0.0658,-0.0038,-0.0,0.0457,0.158,0.144,0.0,-0.1669,0.0467,0.1755,0.1755,0.2368,0.2712,0.2712,0.2751,0.2784,0.2788,0.3372,0.3638,0.373,0.4411,0.4963,0.5323,0.5538,0.5786,0.6021,0.5745,0.538,0.5,0.4486,0.4253,0.4194,0.4077,0.4008,0.3965,0.8475,0.8242,0.7802,0.7032,0.6533,0.5839,0.4587,0.4347,0.4136,0.3667,0.3581,0.3581,0.3581,0.3581,0.3581,0.3581,0.3581,0.3581,0.3581,0.3581,0.3581,0.3581,0.3581,0.3581,0.3581,0.342,0.3436,0.3587,0.2592,0.242,0.3078,0.3078,0.1969,-0.0,-0.0,-0.0,-0.0,-0.0,-0.0233,-0.0539,-0.0539,-0.0449,-0.0494,-0.2563,-0.3427,-0.3471,-0.2417,-0.1429,-0.0804,-0.2509,-0.17,-0.0403,-0.2837,-0.3619,-0.3344,-0.1936,-0.2252,-0.2837,-0.1789,-0.1787,-0.2057,-0.2057,-0.103,-0.0,-0.0,-0.0,-0.0,-0.0,-0.0,-0.0,-0.0,-0.0,-0.0164,-0.0723,-0.2136,-0.3038,-0.2582,0.0,-0.3128,-0.0918,-0.0283,0.0124,0.0518,0.0531,0.131,0.3113,0.2207,0.1846,0.2499,0.149,0.082,0.0622,0.1958,0.2726,0.2713,0.2866,0.293,0.291,0.3726,0.4104,0.4197,0.4719,0.5012,0.5109,0.4963,0.4915,0.4883,0.4838,0.4471,0.3978,0.4043,0.4069,0.3992,0.3687,0.388,0.422,0.6914,0.6584,0.6294,0.596,0.5276,0.4683,0.4434,0.4005,0.3707,0.3626,0.3581,0.3581,0.3581,0.3581,0.3581,0.3581,0.3581,0.3581,0.3581,0.3581,0.3581,0.3581,0.3581,0.3585,0.3595,0.2592,0.2595,0.361,0.3435,0.2389,0.0547,0.0547,0.0347,-0.0,-0.0,-0.0,-0.0,-0.0,-0.1166,-0.3021,-0.3021,-0.2424,-0.1563,-0.1921,-0.2734,-0.3554,-0.3369,-0.3188,-0.2779,-0.1118,-0.0313,-0.0403,-0.2845,-0.3584,-0.317,-0.0945,-0.0404,-0.0539,-0.0314,-0.1754,-0.3302,-0.3337,-0.1661,-0.0,-0.0,-0.0,-0.0,-0.0,-0.0,-0.0,-0.0,-0.0,-0.0994,-0.4,-0.3761,-0.3467,-0.4274,0.0,-0.2757,-0.3522,-0.1502,0.0797,0.2844,0.305,0.2648,0.1733,0.2316,0.2033,0.0466,0.1663,0.1824,0.0622,0.1958,0.2744,0.2873,0.3015,0.3029,0.291,0.3978,0.4356,0.4054,0.4868,0.5195,0.508,0.4945,0.4901,0.4861,0.4461,0.4129,0.3786,0.3555,0.3391,0.3306,0.3519,0.3667,0.3711,0.6612,0.6208,0.5848,0.5453,0.4852,0.4303,0.4008,0.3751,0.3581,0.3581,0.3581,0.3581,0.3581,0.3581,0.3581,0.3581,0.3581,0.3581,0.3581,0.3581,0.3581,0.3581,0.2993,0.2957,0.3605,0.3042,0.2386,0.1672,0.164,0.1113,-0.0,-0.0,-0.0,-0.0,-0.0,-0.0,-0.0099,-0.1709,-0.2901,-0.3595,-0.3589,-0.3257,-0.2784,-0.2887,-0.3287,-0.3756,-0.3704,-0.3658,-0.3416,-0.2294,-0.1517,-0.1072,-0.1524,-0.1663,-0.1437,-0.0314,-0.0,-0.0,-0.0,-0.0808,-0.1982,-0.3296,-0.1798,-0.0,-0.0,-0.0,-0.0,-0.0,-0.0,-0.0,-0.0,-0.0,-0.1384,-0.5549,-0.5145,0.0,-0.3335,-0.1879,-0.1286,-0.2433,-0.047,0.1653,0.342,0.358,0.3242,0.2447,0.2775,0.2582,0.1558,0.227,0.2402,0.1755,0.2438,0.2839,0.291,0.3092,0.3169,0.3108,0.4052,0.43,0.3895,0.4369,0.4492,0.4287,0.3867,0.3779,0.3923,0.3609,0.3486,0.341,0.3384,0.3307,0.3229,0.3497,0.3581,0.3581,0.601,0.5681,0.5355,0.4826,0.4447,0.4092,0.3667,0.3581,0.3581,0.3581,0.3581,0.3581,0.3581,0.3581,0.3581,0.3581,0.3581,0.3581,0.3585,0.3588,0.3588,0.3588,0.219,0.1799,0.2741,0.2756,0.1847,-0.0,-0.0,-0.0,-0.0,-0.0,-0.0,-0.0,-0.0,-0.037,-0.1177,-0.3539,-0.4165,-0.3687,-0.368,-0.3655,-0.3653,-0.3811,-0.3856,-0.3852,-0.3795,-0.3728,-0.3595,-0.3619,-0.2996,-0.2055,-0.1118,-0.0447,-0.0,-0.0,-0.0,-0.0,-0.0,-0.0,-0.0456,-0.2282,-0.1378,-0.0,-0.0,-0.0,-0.0,-0.0,-0.0,-0.0,-0.0,-0.0,-0.1162,-0.4806,0.0,-0.3825,-0.1948,-0.0452,0.0335,0.0042,0.1049,0.2279,0.3468,0.3548,0.3437,0.3269,0.31,0.2932,0.2859,0.2744,0.273,0.2734,0.2879,0.2957,0.2957,0.3212,0.3343,0.3351,0.405,0.4177,0.3755,0.402,0.3906,0.3508,0.3113,0.3,0.3066,0.3029,0.3018,0.3137,0.329,0.3351,0.3326,0.3524,0.3667,0.3796,0.4182,0.3964,0.3904,0.3722,0.3681,0.3667,0.3626,0.3581,0.3581,0.3581,0.3581,0.3581,0.3581,0.3581,0.3581,0.3581,0.3581,0.3585,0.3595,0.3605,0.3612,0.3612,0.1393,0.0183,0.0285,0.0246,0.0153,-0.0,-0.0,-0.0,-0.0,-0.0,-0.0,-0.0,-0.0,-0.1535,-0.4161,-0.4389,-0.426,-0.3859,-0.3859,-0.3846,-0.3778,-0.3788,-0.3792,-0.3792,-0.3792,-0.3707,-0.3595,-0.3585,-0.3541,-0.3462,-0.3382,-0.1798,-0.0,-0.0,-0.0,-0.0,-0.0,-0.0,-0.0048,-0.0238,-0.0147,-0.0,-0.0,-0.0,-0.0,-0.0,-0.0,-0.0,-0.0,-0.0,-0.0133,-0.0464,0.0,0.0,-0.1076,0.0291,0.1739,0.3111,0.241,0.2277,0.3493,0.3453,0.3262,0.3112,0.2995,0.2849,0.2706,0.2719,0.2747,0.289,0.3032,0.3065,0.3065,0.3412,0.3537,0.3396,0.4093,0.411,0.364,0.4285,0.4115,0.3332,0.3598,0.3403,0.2944,0.3169,0.3199,0.3098,0.3249,0.3306,0.3326,0.3524,0.3921,0.4347,0.4024,0.3856,0.3775,0.3721,0.3639,0.3581,0.3581,0.3581,0.3581,0.3581,0.3581,0.3398,0.2898,0.3312,0.3588,0.3581,0.2904,0.2821,0.3561,0.3612,0.2929,0.1437,0.0494,-0.0,-0.0,-0.0,-0.0,-0.0,-0.0,-0.0,-0.0,-0.0,-0.0996,-0.2809,-0.2809,-0.2896,-0.313,-0.4072,-0.4285,-0.3909,-0.4046,-0.3965,-0.3812,-0.4002,-0.4023,-0.4023,-0.4023,-0.3978,-0.3839,-0.3797,-0.3724,-0.3589,-0.3608,-0.2949,-0.1953,-0.0453,-0.0,-0.0,-0.0,-0.0,-0.0,-0.0,-0.0,-0.0,-0.0,-0.0,-0.0,-0.0,-0.0,-0.0,-0.0,-0.0,-0.0,-0.0,0.0,0.087,-0.1123,0.0994,0.2941,0.3544,0.3179,0.3084,0.3534,0.34,0.3249,0.3095,0.2988,0.2842,0.2723,0.2771,0.2849,0.2907,0.3046,0.3129,0.3219,0.3336,0.3456,0.3537,0.3763,0.3729,0.3414,0.3711,0.3668,0.3319,0.3344,0.336,0.3327,0.3299,0.3329,0.3412,0.347,0.3493,0.35,0.3558,0.3707,0.3924,0.391,0.3795,0.3724,0.3724,0.3646,0.3581,0.3581,0.3581,0.3581,0.3581,0.3588,0.3268,0.2317,0.3049,0.3598,0.3592,0.2823,0.2739,0.3529,0.2884,0.1753,0.009,-0.0,-0.0,-0.0,-0.0,-0.0,-0.0,-0.0,-0.0,-0.0,-0.0,-0.1609,-0.4514,-0.4514,-0.3931,-0.3014,-0.4027,-0.4281,-0.4006,-0.4157,-0.407,-0.3958,-0.4117,-0.4197,-0.4197,-0.4197,-0.41,-0.4005,-0.3914,-0.3537,-0.3093,-0.3462,-0.3089,-0.2152,-0.0506,-0.0,-0.0,-0.0,-0.0,-0.0,-0.0,-0.0,-0.0,-0.0,-0.0,-0.0,-0.0,-0.0,-0.0,-0.0,-0.0,-0.0,-0.0,0.1385,0.1878,0.0222,0.1866,0.3309,0.3588,0.3585,0.3581,0.3581,0.3395,0.3192,0.3088,0.2944,0.2791,0.2719,0.2869,0.2974,0.2974,0.3078,0.3226,0.3376,0.3333,0.3383,0.3581,0.3581,0.3497,0.3306,0.3351,0.3324,0.3232,0.3179,0.3314,0.3503,0.3446,0.3483,0.3581,0.3581,0.3581,0.3581,0.3585,0.3578,0.3612,0.3609,0.3581,0.3581,0.3581,0.3581,0.3581,0.3581,0.3581,0.3581,0.3581,0.3602,0.3149,0.1921,0.2876,0.3615,0.3615,0.3571,0.3574,0.3584,0.135,-0.0,-0.0,-0.0,-0.0,-0.0,-0.0,-0.0,-0.0,-0.0,-0.0,-0.0,-0.0,-0.1629,-0.4458,-0.4514,-0.4501,-0.448,-0.448,-0.4389,-0.4197,-0.4197,-0.4197,-0.4197,-0.4197,-0.4197,-0.4197,-0.4197,-0.41,-0.3973,-0.3933,-0.2971,-0.2,-0.3198,-0.1907,-0.0,-0.0,-0.0,-0.0,-0.0,-0.0,-0.0,-0.0,-0.0,-0.0,-0.0,-0.0,-0.0,-0.0,-0.0,-0.0,-0.0,-0.0,-0.0,-0.0,-0.0,0.085,0.3248,0.2909,0.2719,0.349,0.3581,0.3581,0.3581,0.3303,0.3085,0.3085,0.2849,0.2716,0.2712,0.2961,0.3082,0.3082,0.3229,0.338,0.3578,0.3383,0.3383,0.3581,0.3581,0.35,0.3309,0.3309,0.3229,0.3095,0.3242,0.3309,0.3323,0.3517,0.3581,0.3581,0.3581,0.3581,0.3581,0.3595,0.3575,0.3676,0.3609,0.3581,0.3581,0.3581,0.3581,0.3585,0.3592,0.3592,0.3595,0.3602,0.3612,0.2834,0.076,0.2384,0.3577,0.3615,0.2068,0.1078,0.1079,0.0405,-0.0,-0.0,-0.0,-0.0,-0.0,-0.0,-0.0,-0.0,-0.0,-0.0,-0.0056,-0.2166,-0.3056,-0.291,-0.4036,-0.448,-0.4522,-0.4522,-0.4382,-0.4204,-0.4358,-0.4338,-0.4207,-0.4362,-0.4399,-0.4399,-0.4399,-0.4304,-0.4168,-0.4289,-0.3184,-0.1715,-0.1206,-0.0592,-0.0,-0.0,-0.0,-0.0,-0.0,-0.0,-0.0,-0.0,-0.0,-0.0,-0.0,-0.0,-0.0,-0.0,-0.0,-0.0,-0.0,-0.0,-0.0,-0.0,-0.0,0.0269,0.0988,0.183,0.2721,0.3499,0.3585,0.3581,0.3581,0.3398,0.3239,0.3239,0.3008,0.2795,0.2719,0.2891,0.3014,0.3014,0.3327,0.3521,0.3578,0.3383,0.3383,0.3581,0.3581,0.3554,0.351,0.351,0.3487,0.3446,0.349,0.351,0.3514,0.3561,0.3581,0.3581,0.3581,0.3581,0.3581,0.3595,0.3265,0.2887,0.3598,0.3581,0.3581,0.3581,0.3581,0.3445,0.2957,0.328,0.3605,0.3612,0.2747,0.1617,0.0179,0.1304,0.2164,0.216,0.0854,-0.0,-0.0,-0.0,-0.0,-0.0,-0.0,-0.0,-0.0,-0.0,-0.0,-0.0,-0.0,-0.0,-0.0056,-0.3091,-0.3993,-0.3132,-0.4086,-0.4473,-0.4519,-0.4519,-0.4412,-0.4341,-0.4426,-0.4409,-0.4341,-0.4429,-0.4519,-0.4519,-0.4519,-0.4409,-0.4328,-0.447,-0.2966,-0.0953,-0.0208,-0.0,-0.0,-0.0,-0.0,-0.0,-0.0,-0.0,-0.0,-0.0,-0.0,-0.0,-0.0,-0.0,-0.0,-0.0,-0.0,-0.0,-0.0,-0.0,-0.0,-0.0,-0.0,-0.0,-0.0,0.1251,0.2499,0.3506,0.3588,0.3581,0.3581,0.3396,0.3283,0.3222,0.3058,0.2894,0.2815,0.287,0.2719,0.235,0.2711,0.3098,0.3581,0.349,0.349,0.3581,0.3581,0.3581,0.3581,0.3581,0.3581,0.3581,0.3581,0.3581,0.3581,0.3585,0.3588,0.3588,0.3592,0.3595,0.3551,0.3057,0.2598,0.2317,0.3581,0.3581,0.3581,0.3581,0.3534,0.3126,0.1964,0.2647,0.3293,0.3293,0.1348,-0.0,-0.0,-0.0,-0.0,-0.0,-0.0,-0.0,-0.0,-0.0,-0.0,-0.0,-0.0,-0.0,-0.0,-0.0,-0.0,-0.0,-0.0,-0.0,-0.0056,-0.2807,-0.4222,-0.4497,-0.4484,-0.4473,-0.4519,-0.4519,-0.4519,-0.4519,-0.4519,-0.4519,-0.4519,-0.4519,-0.4519,-0.4519,-0.4519,-0.4525,-0.448,-0.4494,-0.2518,-0.0,-0.0,-0.0,-0.0,-0.0,-0.0,-0.0,-0.0,-0.0,-0.0,-0.0,-0.0,-0.0,-0.0,-0.0,-0.0,-0.0,-0.0,-0.0,-0.0,-0.0,-0.0,-0.0,0.0186,0.0328,0.0316,0.1253,0.2368,0.3458,0.3588,0.3581,0.3581,0.3453,0.3266,0.3115,0.3073,0.2968,0.2845,0.2753,0.2299,0.145,0.166,0.2313,0.3445,0.3544,0.3592,0.3581,0.3581,0.3581,0.3581,0.3581,0.3581,0.3581,0.3581,0.3534,0.3445,0.3455,0.3458,0.3462,0.3427,0.3519,0.3478,0.2344,0.1975,0.2099,0.3581,0.3581,0.3581,0.3581,0.3078,0.245,0.1873,0.1206,0.076,0.076,0.0314,-0.0,-0.0,-0.0,-0.0,-0.0,-0.0,-0.0,-0.0,-0.0,-0.0,-0.0,-0.0,-0.0,-0.0,-0.0,-0.0,-0.0,-0.0,-0.0,-0.0,-0.0671,-0.2237,-0.4497,-0.4484,-0.4473,-0.4519,-0.4519,-0.4519,-0.4519,-0.4519,-0.4519,-0.4519,-0.4519,-0.4519,-0.4519,-0.4519,-0.4525,-0.4484,-0.4504,-0.2522,-0.0,-0.0,-0.0,-0.0,-0.0,-0.0,-0.0,-0.0,-0.0,-0.0,-0.0,-0.0,-0.0,-0.0,-0.0,-0.0,-0.0,-0.0,-0.0,-0.0,-0.0,-0.0,-0.0,0.1584,0.2823,0.2842,0.3051,0.3309,0.3581,0.3581,0.3581,0.3581,0.3551,0.347,0.3283,0.3232,0.2796,0.1715,0.2317,0.2623,0.2397,0.203,0.1947,0.2186,0.3132,0.3581,0.3581,0.3581,0.3581,0.3581,0.3581,0.3581,0.3581,0.3581,0.3084,0.2186,0.2188,0.2188,0.2188,0.219,0.2784,0.3567,0.3296,0.32,0.3242,0.3581,0.3581,0.3581,0.3581,0.3262,0.2901,0.2684,0.2105,0.1299,0.0134,-0.0,-0.0,-0.0,-0.0,-0.0,-0.0,-0.0,-0.0,-0.0,-0.0,-0.0,-0.0,-0.0,-0.0,-0.0,-0.0,-0.0,-0.0,-0.0,-0.0,-0.0,-0.0726,-0.1898,-0.3413,-0.4193,-0.4522,-0.4519,-0.4519,-0.4519,-0.4519,-0.4519,-0.4519,-0.4519,-0.4519,-0.4519,-0.4519,-0.4525,-0.4491,-0.4277,-0.2848,-0.1283,-0.0,-0.0,-0.0,-0.0,-0.0,-0.0,-0.0,-0.0,-0.0,-0.0,-0.0,-0.0,-0.0,-0.0,-0.0,-0.0,-0.0,-0.0,-0.0,-0.0,-0.0,-0.0,-0.0,0.105,0.2303,0.3449,0.3602,0.3588,0.3588,0.3585,0.3581,0.3581,0.3581,0.3551,0.343,0.3433,0.3127,0.2436,0.1762,0.1406,0.1413,0.1108,0.123,0.1774,0.2978,0.3595,0.3581,0.3581,0.3581,0.3581,0.3581,0.3581,0.3578,0.2993,0.2366,0.1739,0.1163,0.094,0.094,0.094,0.1345,0.1889,0.1889,0.2245,0.2826,0.3581,0.3581,0.3581,0.3581,0.3581,0.3585,0.3592,0.3602,0.2876,0.0895,0.0269,-0.0,-0.0,-0.0,-0.0,-0.0,-0.0,-0.0,-0.0,-0.0407,-0.0421,-0.0,-0.0,-0.0,-0.0,-0.0,-0.0,-0.0,-0.0,-0.0,-0.0,-0.1229,-0.212,-0.2625,-0.3907,-0.4522,-0.4519,-0.4519,-0.4519,-0.4519,-0.4519,-0.4501,-0.4429,-0.4508,-0.4501,-0.4429,-0.4463,-0.4351,-0.3661,-0.0906,-0.0,-0.0,-0.0,-0.0,-0.0,-0.0,-0.0,-0.0,-0.0,-0.0,-0.0,-0.0,-0.0,-0.0,-0.0,-0.0,-0.0,-0.0,-0.0,-0.0,-0.0,-0.0,-0.0,-0.0,-0.0,0.0748,0.2999,0.3289,0.3369,0.3595,0.3588,0.3585,0.3585,0.3585,0.3585,0.3585,0.3605,0.3413,0.3007,0.1086,-0.0,-0.0,-0.0,0.0498,0.1479,0.2903,0.3496,0.3309,0.3493,0.3581,0.3581,0.3581,0.3581,0.3534,0.2546,0.2008,0.1697,0.0493,-0.0,-0.0,-0.0,-0.0,0.0045,0.0449,0.112,0.1964,0.3581,0.3581,0.3581,0.3581,0.3581,0.3581,0.3581,0.3585,0.3496,0.3141,0.13,-0.0,-0.0,-0.0,-0.0,-0.0,-0.0,-0.0,-0.0,-0.1953,-0.2192,-0.0096,-0.0,-0.0,-0.0,-0.0,-0.0,-0.0,-0.0,-0.0,-0.0,-0.0224,-0.1679,-0.4209,-0.4435,-0.448,-0.4519,-0.4519,-0.4519,-0.4519,-0.4519,-0.4389,-0.4237,-0.4416,-0.4385,-0.4241,-0.4419,-0.3616,-0.2263,-0.0591,-0.0,-0.0,-0.0,-0.0,-0.0,-0.0,-0.0,-0.0,-0.0,-0.0,-0.0,-0.0,-0.0,-0.0,-0.0,-0.0,-0.0,-0.0,-0.0,-0.0,-0.0,-0.0,-0.0,-0.0,-0.0,0.0496,0.1841,0.2059,0.2415,0.3462,0.3595,0.3595,0.3595,0.3595,0.3598,0.3609,0.3612,0.2695,0.059,0.0162,-0.0,-0.0,-0.0,0.0079,0.0221,0.2464,0.308,0.2053,0.3093,0.3592,0.3581,0.3581,0.3581,0.3578,0.3445,0.2768,0.1697,0.0492,-0.0,-0.0,-0.0,-0.0,0.0269,0.2339,0.2558,0.1964,0.3581,0.3581,0.3581,0.3581,0.3581,0.3581,0.3581,0.3585,0.3592,0.3598,0.1479,-0.0,-0.0,-0.0,-0.0,-0.0,-0.0,-0.0,-0.0,-0.1005,-0.1728,-0.2011,-0.0728,-0.0,-0.0,-0.0,-0.0,-0.0,-0.0,-0.0,-0.0,-0.0,-0.1174,-0.3241,-0.4014,-0.4358,-0.4338,-0.425,-0.4216,-0.4216,-0.4275,-0.4296,-0.4192,-0.4199,-0.4236,-0.4369,-0.4492,-0.3004,-0.0892,-0.0203,-0.0,-0.0,-0.0,-0.0,-0.0,-0.0,-0.0,-0.0,-0.0,-0.0,-0.0,-0.0,-0.0,-0.0,-0.0,-0.0,-0.0,-0.0,-0.0,-0.0,-0.0,-0.0,-0.0,-0.0,-0.0,0.0179,0.0718,0.0805,0.125,0.246,0.2595,0.2595,0.2595,0.3191,0.3609,0.3615,0.2339,0.1114,0.0044,-0.0,-0.0,-0.0,-0.0,-0.0,-0.0,0.2401,0.3093,0.2138,0.2457,0.2954,0.3592,0.3592,0.3588,0.3581,0.3588,0.3315,0.2768,0.2241,0.1208,-0.0,-0.0,-0.0,0.0314,0.2702,0.3242,0.2865]},{"header":{"parameterUnit":"m.s-1","parameterCategory":1,"la1":30.6,"la2":28.766,"lo1":-90.7593,"lo2":-88.6598,"dy":0.0162,"dx":0.0183,"nx":116,"ny":114,"refTime":"2023-09-15T18:00:00:Z","depth":0,"parameterNumber":3,"parameterNumberName":"V-component_of_WINDS"},"data":[0.0,0.0,0.0,0.0,0.0,0.0,0.0,0.0,0.0,0.0,0.0,0.0,0.0,0.0,0.0,0.0,0.0,0.0,0.0,0.0,0.0,0.0,0.0,0.0,0.0,0.0,0.0,0.0,0.0,0.0,0.0,0.0,0.0,0.0,0.0,0.0,0.0,0.0,0.0,0.0,0.0,0.0,0.0,0.0,0.0,0.0,0.0,0.0,0.0,0.0,0.0,0.0,0.0,0.0,0.0,0.0,0.0,0.0,0.0,0.0,0.0,0.0,0.0,0.0,0.0,0.0,0.0,0.0,0.0,0.0,0.0,0.0,0.0,0.0,0.0,0.0,0.0,0.0,0.0,0.0,0.0,0.0,0.0,0.0,0.0,0.0,0.0,0.0,0.0,0.0,0.0,0.0,0.0,0.0,0.0,0.0,0.0,0.0,0.0,0.0,0.0,0.0,0.0,0.0,0.0,0.0,0.0,0.0,0.0,0.0,0.0,0.0,0.0,0.0,0.0,0.0,0.0,0.0,0.0,0.0,0.0,0.0,0.0,0.0,0.0,0.0,0.0,0.0,0.0,0.0,0.0,0.0,0.0,0.0,0.0,0.0,0.0,0.0,0.0,0.0,0.0,0.0,0.0,0.0,0.0,0.0,0.0,0.0,0.0,0.0,0.0,0.0,0.0,0.0,0.0,0.0,0.0,0.0,0.0,0.0,0.0,0.0,0.0,0.0,0.0,0.0,0.0,0.0,0.0,0.0,0.0,0.0,0.0,0.0,0.0,0.0,0.0,0.0,0.0,0.0,0.0,0.0,0.0,0.0,0.0,0.0,0.0,0.0,0.0,0.0,0.0,0.0,0.0,0.0,0.0,0.0,0.0,0.0,0.0,0.0,0.0,0.0,0.0,0.0,0.0,0.0,0.0,0.0,0.0,0.0,0.0,0.0,0.0,0.0,0.0,0.0,0.0,0.0,0.0,0.0,0.0,0.0,0.0,0.0,0.0,0.0,0.0,0.0,0.0,0.0,0.0,0.0,0.0,0.0,0.0,0.0,0.0,0.0,0.0,0.0,0.0,0.0,0.0,0.0,0.0,0.0,0.0,0.0,0.0,0.0,0.0,0.0,0.0,0.0,0.0,0.0,0.0,0.0,0.0,0.0,0.0,0.0,0.0,0.0,0.0,0.0,0.0,0.0,0.0,0.0,0.0,0.0,0.0,0.0,0.0,0.0,0.0,0.0,0.0,0.0,0.0,0.0,0.0,0.0,0.0,0.0,0.0,0.0,0.0,0.0,0.0,0.0,0.0,0.0,0.0,0.0,0.0,0.0,0.0,0.0,0.0,0.0,0.0,0.0,0.0,0.0,0.0,0.0,0.0,0.0,0.0,0.0,0.0,0.0,0.0,0.0,0.0,0.0,0.0,0.0,0.0,0.0,0.0,0.0,0.0,0.0,0.0,0.0,0.0,0.0,0.0,0.0,0.0,0.0,0.0,0.0,0.0,0.0,0.0,0.0,0.0,0.0,0.0,0.0,0.0,0.0,0.0,0.0,0.0,0.0,0.0,0.0,0.0,0.0,0.0,0.0,0.0,0.0,0.0,0.0,0.0,0.0,0.0,0.0,0.0,0.0,0.0,0.0,0.0,0.0,0.0,0.0,0.0,0.0,0.0,0.0,0.0,0.0,0.0,0.0,0.0,0.0,0.0,0.0,0.0,0.0,0.0,0.0,0.0,0.0,0.0,0.0,0.0,0.0,0.0,0.0,0.0,0.0,0.0,0.0,0.0,0.0,0.0,0.0,0.0,0.0,0.0,0.0,0.0,0.0,0.0,0.0,0.0,0.0,0.0,0.0,0.0,0.0,0.0,0.0,0.0,0.0,0.0,0.0,0.0,0.0,0.0,0.0,0.0,0.0,0.0,0.0,0.0,0.0,0.0,0.0,0.0,0.0,0.0,0.0,0.0,0.0,0.0,0.0,0.0,0.0,0.0,0.0,0.0,0.0,0.0,0.0,0.0,0.0,0.0,0.0,0.0,0.0,0.0,0.0,0.0,0.0,0.0,0.0,0.0,0.0,0.0,0.0,0.0,0.0,0.0,0.0,0.0,0.0,0.0,0.0,0.0,0.0,0.0,0.0,0.0,0.0,0.0,0.0,0.0,0.0,0.0,0.0,0.0,0.0,0.0,0.0,0.0,0.0,0.0,0.0,0.0,0.0,0.0,0.0,0.0,0.0,0.0,0.0,0.0,0.0,0.0,0.0,0.0,0.0,0.0,0.0,0.0,0.0,0.0,0.0,0.0,0.0,0.0,0.0,0.0,0.0,0.0,0.0,0.0,0.0,0.0,0.0,0.0,0.0,0.0,0.0,0.0,0.0,0.0,0.0,0.0,0.0,0.0,0.0,0.0,0.0,0.0,0.0,0.0,0.0,0.0,0.0,0.0,0.0,0.0,0.0,0.0,0.0,0.0,0.0,0.0,0.0,0.0,0.0,0.0,0.0,0.0,0.0,0.0,0.0,0.0,0.0,0.0,0.0,0.0,0.0,0.0,0.0,0.0,0.0,0.0,0.0,0.0,0.0,0.0,0.0,0.0,0.0,0.0,0.0,0.0,0.0,0.0,0.0,0.0,0.0,0.0,0.0,0.0,0.0,0.0,0.0,0.0,0.0,0.0,0.0,0.0,0.0,0.0,0.0,0.0,0.0,0.0,0.0,0.0,0.0,0.0,0.0,0.0,0.0,0.0,0.0,0.0,0.0,0.0,0.0,0.0,0.0,0.0,0.0,0.0,0.0,0.0,0.0,0.0,0.0,0.0,0.0,0.0,0.0,0.0,0.0,0.0,0.0,0.0,0.0,0.0,0.0,0.0,0.0,0.0,0.0,0.0,0.0,0.0,0.0,0.0,0.0,0.0,0.0,0.0,0.0,0.0,0.0,0.0,0.0,0.0,0.0,0.0,0.0,0.0,0.0,0.0,0.0,0.0,0.0,0.0,0.0,0.0,0.0,0.0,0.0,0.0,0.0,0.0,0.0,0.0,0.0,0.0,0.0,0.0,0.0,0.0,0.0,0.0,0.0,0.0,0.0,0.0,0.0,0.0,0.0,0.0,0.0,0.0,0.0,0.0,0.0,0.0,0.0,0.0,0.0,0.0,0.0,0.0,0.0,0.0,0.0,0.0,0.0,0.0,0.0,0.0,0.0,0.0,0.0,0.0,0.0,0.0,0.0,0.0,0.0,0.0,0.0,0.0,0.0,0.0,0.0,0.0,0.0,0.0,0.0,0.0,0.0,0.0,0.0,0.0,0.0,0.0,0.0,0.0,0.0,0.0,0.0,0.0,0.0,0.0,0.0,0.0,0.0,0.0,0.0,0.0,0.0,0.0,0.0,0.0,0.0,0.0,0.0,0.0,0.0,0.0,0.0,0.0,0.0,0.0,0.0,0.0,0.0,0.0,0.0,0.0,0.0,0.0,0.0,0.0,0.0,0.0,0.0,0.0,0.0,0.0,0.0,0.0,0.0,0.0,0.0,0.0,0.0,0.0,0.0,0.0,0.0,0.0,0.0,0.0,0.0,0.0,0.0,0.0,0.0,0.0,0.0,0.0,0.0,0.0,0.0,0.0,0.0,0.0,0.0,0.0,0.0,0.0,0.0,0.0,0.0,0.0,0.0,0.0,0.0,0.0,0.0,0.0,0.0,0.0,0.0,0.0,0.0,0.0,0.0,0.0,0.0,0.0,0.0,0.0,0.0,0.0,0.0,0.0,0.0,0.0,0.0,0.0,0.0,0.0,0.0,0.0,0.0,0.0,0.0,0.0,0.0,0.0,0.0,0.0,0.0,0.0,0.0,0.0,0.0,0.0,0.0,0.0,0.0,0.0,0.0,0.0,0.0,0.0,0.0,0.0,0.0,0.0,0.0,0.0,0.0,0.0,0.0,0.0,0.0,0.0,0.0,0.0,0.0,0.0,0.0,0.0,0.0,0.0,0.0,0.0,0.0,0.0,0.0,0.0,0.0,0.0,0.0,0.0,0.0,0.0,0.0,0.0,0.0,0.0,0.0,0.0,0.0,0.0,0.0,0.0,0.0,0.0,0.0,0.0,0.0,0.0,0.0,0.0,0.0,0.0,0.0,0.0,0.0,0.0,0.0,0.0,0.0,0.0,0.0,0.0,0.0,0.0,0.0,0.0,0.0,0.0,0.0,0.0,0.0,0.0,0.0,0.0,0.0,0.0,0.0,0.0,0.0,0.0,0.0,0.0,0.0,0.0,0.0,0.0,0.0,0.0,0.0,0.0,0.0,0.0,0.0,0.0,0.0,0.0,0.0,0.0,0.0,0.0,0.0,0.0,0.0,0.0,0.0,0.0,0.0,0.0,0.0,0.0,0.0,0.0,0.0,0.0,0.0,0.0,0.0,0.0,0.0,0.0,0.0,0.0,0.0,0.0,0.0,0.0,0.0,0.0,0.0,0.0,0.0,0.0,0.0,0.0,0.0,0.0,0.0,0.0,0.0,0.0,0.0,0.0,0.0,0.0,0.0,0.0,0.0,0.0,0.0,0.0,0.0,0.0,0.0,0.0,0.0,0.0,0.0,0.0,0.0,0.0,0.0,0.0,0.0,0.0,0.0,0.0,0.0,0.0,0.0,0.0,0.0,0.0,0.0,0.0,0.0,0.0,0.0,0.0,0.0,0.0,0.0,0.0,0.0,0.0,0.0,0.0,0.0,0.0,0.0,0.0,0.0,0.0,0.0,0.0,0.0,0.0,0.0,0.0,0.0,0.0,0.0,0.0,0.0,0.0,0.0,0.0,0.0,0.0,0.0,0.0,0.0,0.0,0.0,0.0,0.0,0.0,0.0,0.0,0.0,0.0,0.0,0.0,0.0,0.0,0.0,0.0,0.0,0.0,0.0,0.0,0.0,0.0,0.0,0.0,0.0,0.0,0.0,0.0,0.0,0.0,0.0,0.0,0.0,0.0,0.0,0.0,0.0,0.0,0.0,0.0,0.0,0.0,0.0,0.0,0.0,0.0,0.0,0.0,0.0,0.0,0.0,0.0,0.0,0.0,0.0,0.0,0.0,0.0,0.0,0.0,0.0,0.0,0.0,0.0,0.0,0.0,0.0,0.0,0.0,0.0,0.0,0.0,0.0,0.0,0.0,0.0,0.0,0.0,0.0,0.0,0.0,0.0,0.0,0.0,0.0,0.0,0.0,0.0,0.0,0.0,0.0,0.0,0.0,0.0,0.0,0.0,0.0,0.0,0.0,0.0,0.0,0.0,0.0,0.0,0.0,0.0,0.0,0.0,0.0,0.0,0.0,0.0,0.0,0.0,0.0,0.0,0.0,0.0,0.0,0.0,0.0,0.0,0.0,0.0,0.0,0.0,0.0,0.0,0.0,0.0,0.0,0.0,0.0,0.0,0.0,0.0,0.0,0.0,0.0,0.0,0.0,0.0,0.0,0.0,0.0,0.0,0.0,0.0,0.0,0.0,0.0,0.0,0.0,0.0,0.0,0.0,0.0,0.0,0.0,0.0,0.0,0.0,0.0,0.0,0.0,0.0,0.0,0.0,0.0,0.0,0.0,0.0,0.0,0.0,0.0,0.0,0.0,0.0,0.0,0.0,0.0,0.0,0.0,0.0,0.0,0.0,0.0,0.0,0.0,0.0,0.0,0.0,0.0,0.0,0.0,0.0,0.0,0.0,0.0,0.0,0.0,0.0,0.0,0.0,0.0,0.0,0.0,0.0,0.0,0.0,0.0,0.0,0.0,0.0,0.0,0.0,0.0,0.0,0.0,0.0,0.0,0.0,0.0,0.0,0.0,0.0,0.0,0.0,0.0,0.0,0.0,0.0,0.0,0.0,0.0,0.0,0.0,0.0,0.0,0.0,0.0,0.0,0.0,0.0,0.0,0.0,0.0,0.0,0.0,0.0,0.0,0.0,0.0,0.0,0.0,0.0,0.0,0.0,0.0,0.0,0.0,0.0,0.0,0.0,0.0,0.0,0.0,0.0,0.0,0.0,0.0,0.0,0.0,0.0,0.0,0.0,0.0,0.0,0.0,0.0,0.0,0.0,0.0,0.0,0.0,0.0,0.0,0.0,0.0,0.0,0.0,0.0,0.0,-0.6136,0.0,0.0,0.0,0.0,0.0,0.0,0.0,0.0,0.0,0.0,0.0,0.0,0.0,0.0,0.0,0.0,0.0,0.0,0.0,0.0,0.0,0.0,0.0,0.0,0.0,0.0,0.0,0.0,0.0,0.0,0.0,0.0,0.0,0.0,0.0,0.0,0.0,0.0,0.0,0.0,0.0,0.0,0.0,0.0,0.0,0.0,0.0,0.0,0.0,0.0,0.0,0.0,0.0,0.0,0.0,0.0,0.0,0.0,0.0,0.0,0.0,0.0,0.0,0.0,0.0,0.0,0.0,0.0,0.0,0.0,0.0,0.0,0.0,0.0,0.0,0.0,0.0,0.0,0.0,0.0,0.0,0.0,0.0,0.0,0.0,0.0,0.0,0.0,0.0,0.0,0.0,0.0,0.0,0.0,0.0,0.0,0.0,0.0,0.0,0.0,0.0,0.0,0.0,0.0,0.0,0.0,0.0,0.0,0.0,0.0,0.0,0.0,0.0,0.0,0.0,0.0,-0.6859,0.0,0.0,0.0,0.0,0.0,0.0,0.0,0.0,0.0,0.0,0.0,0.0,0.0,0.0,0.0,0.0,0.0,0.0,0.0,0.0,0.0,0.0,0.0,0.0,0.0,0.0,0.0,0.0,0.0,0.0,0.0,0.0,0.0,0.0,0.0,0.0,0.0,0.0,0.0,0.0,0.0,0.0,0.0,0.0,0.0,0.0,0.0,0.0,0.0,0.0,0.0,0.0,0.0,0.0,0.0,0.0,0.0,0.0,0.0,0.0,0.0,0.0,0.0,0.0,0.0,0.0,0.0,0.0,0.0,0.0,0.0,0.0,0.0,0.0,0.0,0.0,0.0,0.0,0.0,0.0,0.0,0.0,0.0,0.0,0.0,0.0,0.0,0.0,0.0,0.0,0.0,0.0,0.0,0.0,0.0,0.0,0.0,0.0,0.0,0.0,0.0,0.0,0.0,0.0,0.0,0.0,0.0,0.0,-1.4332,-1.4596,-1.4633,-1.4924,-1.4608,-1.3702,-1.1008,-0.9634,-0.9202,-0.7975,0.0,0.0,0.0,0.0,0.0,0.0,0.0,0.0,0.0,0.0,0.0,0.0,0.0,0.0,0.0,0.0,0.0,0.0,0.0,0.0,0.0,0.0,0.0,0.0,0.0,0.0,0.0,0.0,0.0,0.0,0.0,0.0,0.0,0.0,0.0,0.0,0.0,0.0,-0.6596,-0.7303,-0.8319,-0.9515,-0.8135,0.0,0.0,0.0,0.0,0.0,0.0,0.0,0.0,0.0,0.0,0.0,0.0,0.0,0.0,0.0,0.0,0.0,0.0,0.0,0.0,0.0,0.0,0.0,0.0,0.0,0.0,0.0,0.0,0.0,0.0,0.0,0.0,0.0,0.0,0.0,0.0,0.0,0.0,0.0,0.0,0.0,0.0,0.0,-1.0978,-1.2268,0.0,0.0,0.0,0.0,0.0,0.0,0.0,0.0,0.0,0.0,0.0,0.0,0.0,-1.3314,-1.5973,-1.5994,-1.5908,-1.5748,-1.5929,-1.5727,-1.5205,-1.5246,-1.5266,-1.5283,-1.462,0.0,-1.2302,-0.9976,0.0,0.0,0.0,0.0,0.0,0.0,0.0,0.0,0.0,0.0,0.0,0.0,0.0,0.0,0.0,0.0,0.0,0.0,0.0,0.0,0.0,0.0,0.0,0.0,0.0,0.0,0.0,0.0,0.0,0.0,0.0,0.0,0.0,0.0,0.0,0.0,-0.5524,-0.5693,-0.5704,-0.6338,-0.7213,-0.8224,-0.7463,-0.7835,-0.8985,-0.8418,0.0,0.0,0.0,0.0,0.0,0.0,0.0,0.0,0.0,0.0,0.0,0.0,0.0,0.0,0.0,0.0,0.0,0.0,0.0,0.0,0.0,0.0,0.0,0.0,0.0,0.0,0.0,0.0,0.0,0.0,0.0,0.0,0.0,0.0,0.0,0.0,0.0,0.0,0.0,-1.166,-1.3605,-1.4046,-1.496,-1.5438,0.0,0.0,0.0,0.0,0.0,0.0,0.0,0.0,0.0,-1.8576,-1.8151,-1.7997,-1.8082,-1.8691,-1.8812,-1.8462,-1.8528,-1.8665,-1.8915,-1.8915,-1.8862,-1.8802,-1.8268,-1.7659,-1.6732,-1.3581,-1.2443,-1.2418,0.0,0.0,0.0,0.0,-0.5891,-0.6461,0.0,0.0,0.0,0.0,0.0,0.0,0.0,0.0,0.0,0.0,0.0,0.0,0.0,0.0,0.0,-0.5037,0.0,0.0,0.0,0.0,0.0,0.0,0.0,0.0,0.0,0.0,0.0,-0.4939,-0.5625,-0.5738,-0.5303,-0.595,-0.6846,-0.7884,-0.7857,-0.8321,-0.9172,-0.9104,-0.8556,0.0,0.0,0.0,0.0,0.0,0.0,0.0,0.0,0.0,0.0,0.0,0.0,0.0,0.0,0.0,0.0,0.0,0.0,0.0,0.0,0.0,0.0,0.0,0.0,0.0,0.0,0.0,0.0,0.0,0.0,0.0,0.0,0.0,0.0,0.0,0.0,0.0,0.0,-1.3872,-1.5486,-1.5428,-1.6934,-1.7985,0.0,0.0,0.0,0.0,0.0,0.0,-2.0172,-2.0358,-2.06,-2.107,-2.2615,-2.2425,-2.0342,-2.1345,-2.158,-2.1033,-2.0895,-2.1203,-2.1862,-2.1862,-2.1789,-2.1554,-2.0995,-2.0684,-2.0256,-1.6677,-1.4968,-1.4468,-1.271,-1.1742,-1.1047,-0.9036,-0.869,-0.9395,0.0,0.0,0.0,0.0,0.0,0.0,0.0,0.0,0.0,0.0,0.0,0.0,0.0,0.0,-0.4495,-0.5473,-0.5226,-0.5792,0.0,0.0,0.0,0.0,0.0,0.0,0.0,0.0,0.0,-0.5841,-0.5322,-0.5388,-0.6067,-0.7055,-0.8225,-0.9491,-0.9892,-0.9809,-0.9354,-0.9107,-0.9078,-0.9289,0.0,0.0,0.0,0.0,0.0,0.0,0.0,0.0,0.0,0.0,0.0,0.0,0.0,0.0,0.0,0.0,0.0,0.0,0.0,0.0,0.0,0.0,0.0,0.0,0.0,0.0,0.0,0.0,0.0,0.0,0.0,0.0,0.0,0.0,0.0,0.0,0.0,0.0,0.0,-1.5758,-1.8208,0.0,0.0,0.0,0.0,-2.0706,-2.1524,-2.2264,-2.3051,-2.33,-2.3318,-2.3257,-2.5356,-2.5564,-2.3671,-2.4033,-2.3835,-2.3045,-2.2546,-2.2335,-2.2359,-2.2359,-2.2344,-2.2341,-2.2099,-2.2001,-2.1728,-1.8238,-1.706,-1.7228,-1.4531,-1.3677,-1.3828,-1.2319,-1.1999,-1.2311,0.0,0.0,0.0,0.0,0.0,0.0,0.0,0.0,0.0,0.0,0.0,0.0,0.0,-0.4788,-0.4151,-0.4462,-0.3983,-0.4351,-0.6018,0.0,0.0,0.0,0.0,0.0,0.0,0.0,-0.5964,-0.5578,-0.5349,-0.6084,-0.7654,-0.8009,-0.9001,-1.049,-1.0653,-1.0758,-1.0782,-1.0282,-0.9814,-0.9392,-0.9557,-0.9416,0.0,0.0,0.0,0.0,0.0,0.0,0.0,0.0,0.0,0.0,0.0,0.0,0.0,0.0,0.0,0.0,0.0,0.0,0.0,0.0,0.0,0.0,0.0,0.0,0.0,0.0,0.0,0.0,0.0,0.0,0.0,0.0,0.0,0.0,0.0,0.0,0.0,-1.8748,-2.0642,0.0,-2.1758,-2.1265,-2.1765,-2.3701,-2.3742,-2.4005,-2.4749,-2.5295,-2.5378,-2.4847,-2.6036,-2.6158,-2.5027,-2.4938,-2.4662,-2.4221,-2.4029,-2.4019,-2.4205,-2.4205,-2.41,-2.3942,-2.3874,-2.349,-2.2837,-2.1256,-2.0064,-1.9014,-1.7339,-1.679,-1.6808,-1.599,-1.5366,-1.4971,0.0,0.0,0.0,0.0,0.0,0.0,0.0,0.0,0.0,0.0,0.0,-0.6114,-0.5932,-0.486,-0.4149,-0.4145,-0.3608,-0.4132,-0.6166,0.0,0.0,0.0,0.0,0.0,0.0,-0.6587,-0.6136,-0.5389,-0.5925,-0.6886,-0.8228,-0.8795,-0.9749,-1.1001,-1.1318,-1.1815,-1.2352,-1.1955,-1.1128,-1.007,-0.9983,-1.0034,-1.0162,0.0,0.0,0.0,0.0,0.0,0.0,0.0,0.0,0.0,0.0,0.0,0.0,0.0,0.0,0.0,0.0,0.0,0.0,0.0,0.0,0.0,0.0,0.0,0.0,0.0,0.0,0.0,0.0,0.0,0.0,0.0,0.0,0.0,0.0,0.0,-2.1867,-2.1276,-2.2649,-2.3641,-2.3637,-2.3072,-2.3533,-2.5664,-2.5475,-2.5558,-2.6319,-2.681,-2.6725,-2.5998,-2.6468,-2.6485,-2.5981,-2.5628,-2.5447,-2.5444,-2.5114,-2.5143,-2.5449,-2.5449,-2.5375,-2.5219,-2.511,-2.4578,-2.3731,-2.3173,-2.2098,-2.0665,-1.9484,-1.9044,-1.8965,-1.8358,-1.7605,-1.683,0.0,0.0,0.0,0.0,0.0,0.0,0.0,0.0,0.0,0.0,-0.6541,-0.6218,-0.4806,-0.4512,-0.447,-0.4595,-0.4231,-0.5255,-0.8247,-0.8039,0.0,0.0,0.0,0.0,-0.6203,-0.709,-0.6885,-0.5461,-0.6977,-0.7724,-0.7802,-0.9488,-1.054,-1.1099,-1.2051,-1.3013,-1.396,-1.396,-1.3023,-1.1576,-1.179,-1.1906,-1.1984,0.0,0.0,0.0,0.0,0.0,0.0,0.0,0.0,0.0,0.0,0.0,0.0,0.0,0.0,0.0,0.0,0.0,0.0,0.0,0.0,0.0,0.0,0.0,0.0,0.0,0.0,0.0,0.0,0.0,0.0,0.0,0.0,0.0,-1.7451,-1.9631,-2.181,-2.3173,-2.4052,-2.4601,-2.4633,-2.4201,-2.4702,-2.664,-2.6742,-2.7046,-2.7755,-2.7789,-2.7486,-2.6759,-2.6708,-2.6708,-2.6759,-2.6279,-2.6262,-2.6725,-2.5726,-2.554,-2.6013,-2.6013,-2.6013,-2.5999,-2.5749,-2.522,-2.4489,-2.3731,-2.3004,-2.2214,-2.0846,-2.0348,-2.023,-1.9288,-1.8574,-1.7854,0.0,0.0,0.0,0.0,0.0,0.0,0.0,0.0,0.0,0.0,-0.7515,-0.7121,-0.616,-0.5439,-0.4881,-0.4479,-0.4118,-0.4756,-0.6702,0.0,0.0,0.0,0.0,0.0,-0.7212,-0.7034,-0.6969,-0.7071,-0.7502,-0.833,-0.9528,-1.0721,-1.1682,-1.2502,-1.348,-1.4341,-1.5051,-1.5051,-1.524,-1.5407,-1.3868,-1.3306,-1.3377,0.0,0.0,0.0,0.0,0.0,0.0,0.0,0.0,0.0,0.0,0.0,0.0,0.0,0.0,0.0,0.0,0.0,0.0,0.0,0.0,0.0,0.0,0.0,0.0,0.0,0.0,0.0,0.0,0.0,0.0,0.0,-1.9692,-2.1225,-2.0305,-2.2228,-2.4342,-2.5918,-2.6092,-2.6538,-2.764,-2.6623,-2.6573,-2.823,-2.7824,-2.7604,-2.7772,-2.7789,-2.7688,-2.752,-2.6979,-2.7232,-2.8349,-2.7146,-2.6859,-2.7503,-2.6687,-2.635,-2.6505,-2.6505,-2.6505,-2.6505,-2.6438,-2.5981,-2.5236,-2.4492,-2.3748,-2.2979,-2.1735,-2.1259,-2.1118,-2.0249,-1.9133,-1.7973,0.0,0.0,0.0,0.0,0.0,0.0,0.0,0.0,0.0,0.0,-0.8034,-0.7883,-0.6471,-0.6104,-0.5698,-0.5018,-0.5478,-0.6241,-0.727,0.0,0.0,0.0,0.0,-0.7802,-0.7232,-0.6993,-0.7251,-0.8019,-0.8356,-0.919,-1.0546,-1.1708,-1.2507,-1.3059,-1.436,-1.5346,-1.6042,-1.6319,-1.7173,-1.8182,-1.6724,-1.5851,-1.5361,-1.5023,-1.4842,-1.4817,-1.5208,-1.5308,-1.5143,-1.4438,0.0,0.0,0.0,0.0,0.0,0.0,0.0,0.0,0.0,0.0,0.0,0.0,0.0,0.0,0.0,0.0,0.0,0.0,0.0,0.0,0.0,0.0,0.0,0.0,-2.2306,-2.399,-2.4028,-2.5265,-2.6627,-2.7826,-2.7777,-2.7943,-2.8581,-2.7858,-2.7859,-2.9183,-2.8096,-2.7486,-2.7772,-2.7789,-2.7789,-2.7789,-2.7706,-2.8078,-2.8975,-2.7883,-2.7664,-2.8298,-2.731,-2.6975,-2.7165,-2.6843,-2.6691,-2.6691,-2.6691,-2.6285,-2.5541,-2.478,-2.4083,0.0,0.0,0.0,0.0,0.0,-1.9008,-1.7987,0.0,0.0,0.0,0.0,0.0,0.0,0.0,0.0,0.0,0.0,0.0,-0.833,-0.6103,-0.6405,-0.6489,-0.584,-0.7384,-0.8566,0.0,0.0,0.0,-0.8332,-0.8484,-0.8083,-0.6902,-0.7227,-0.7808,-0.8685,-0.9343,-1.0165,-1.1155,-1.2481,-1.3168,-1.3398,-1.4989,-1.6259,-1.7182,-1.7745,-1.8812,-2.0063,-1.9704,-1.8888,-1.7716,-1.6871,-1.6929,-1.7469,-1.7469,-1.742,-1.7215,-1.6475,0.0,0.0,0.0,0.0,0.0,0.0,0.0,0.0,0.0,0.0,0.0,0.0,0.0,0.0,0.0,0.0,0.0,0.0,0.0,0.0,0.0,0.0,0.0,0.0,-2.4837,-2.6538,-2.7875,-2.834,-2.8631,-2.8979,-2.9011,-2.8837,-2.8457,-2.8245,-2.8574,-2.9564,-2.7809,-2.6996,-2.762,0.0,0.0,0.0,0.0,-2.8975,-2.9228,-2.8498,-2.8452,-2.8975,-2.7681,-2.7281,-2.7725,-2.7063,-2.674,-2.6706,-2.6807,-2.6349,-2.5486,-2.4839,-2.4062,-2.3177,-2.2102,-2.1628,-2.1352,-1.9672,-1.8669,-1.7947,0.0,0.0,0.0,0.0,0.0,0.0,0.0,0.0,0.0,-0.7416,-0.7952,-0.7775,-0.5864,-0.5819,-0.6035,-0.6257,-0.713,-0.835,0.0,0.0,-0.945,-0.9012,-0.8932,-0.8632,-0.8007,-0.8728,-0.935,-0.9869,-0.9997,-1.0738,-1.2007,-1.3079,-1.4197,-1.5385,-1.6529,-1.7896,-1.9384,-1.9511,-2.0034,-2.0799,-2.0735,-2.0319,-1.9774,-1.9773,-1.9541,-1.9211,-1.9211,-1.9192,-1.8969,-1.7674,-1.7521,-1.7822,-1.7288,0.0,0.0,0.0,0.0,0.0,0.0,0.0,0.0,0.0,0.0,0.0,0.0,0.0,0.0,0.0,0.0,0.0,0.0,0.0,0.0,-2.5172,-2.706,-2.8672,-2.9533,-2.9705,-2.9556,-2.9079,-2.9011,-2.9194,-2.9681,-2.86,-2.8213,-2.9062,-2.7622,-2.6759,-2.6911,-2.6911,-2.7469,-2.8721,-2.8298,-2.8924,-3.0751,-2.8831,-2.8277,-2.8958,0.0,0.0,-2.7385,-2.7247,-2.7005,-2.676,-2.7403,-2.6702,-2.5097,-2.5017,-2.4002,-2.2485,-2.2259,-2.1751,-2.1086,-2.0699,-1.9504,-1.8066,0.0,0.0,0.0,0.0,0.0,0.0,0.0,0.0,0.0,0.0,-0.9055,-0.9066,-0.7929,-0.8011,-0.8064,-0.7817,-0.8282,0.0,0.0,-1.0342,-0.9702,-0.9412,-0.9637,-0.9743,-0.9689,-0.9939,-1.0371,-1.1001,-1.1253,-1.1923,-1.3072,-1.455,-1.564,-1.6423,-1.7997,-1.9308,-2.0326,-2.0829,-2.1295,-2.1645,-2.1579,-2.15,-2.1388,-2.0995,-2.0655,-2.0345,-2.0345,-2.0345,-2.0242,-1.9498,-1.928,-1.9231,-1.8842,-1.8512,-1.8196,0.0,0.0,0.0,0.0,0.0,0.0,0.0,0.0,0.0,0.0,0.0,0.0,0.0,0.0,-2.2513,0.0,0.0,-2.6943,-2.7627,-2.9073,-3.0226,-3.0598,-3.0345,-3.0108,-3.0091,-2.977,-2.9837,-3.0581,-2.9634,-2.9127,-2.9516,-2.8484,-2.7672,-2.7283,-2.7621,-2.818,-2.8958,-2.8602,-2.9296,-3.1173,-2.9347,-2.8863,-2.9759,-2.8254,-2.7779,-2.8132,-2.735,-2.6894,-2.6727,-2.7126,-2.6521,-2.5222,-2.4719,-2.3722,-2.249,-2.2349,-2.1751,-2.0959,-2.0716,-1.9525,-1.8066,0.0,0.0,0.0,0.0,0.0,0.0,0.0,0.0,0.0,0.0,-1.0059,-1.0274,-0.9933,-1.0151,-1.0177,0.0,0.0,0.0,0.0,-1.1256,-1.0467,-1.0022,-1.0562,-1.0987,-1.1194,-1.0972,-1.1251,-1.2029,-1.2622,-1.3438,-1.4506,-1.618,-1.7182,-1.7621,-1.942,-2.0504,-2.1083,-2.1925,-2.2368,-2.2453,-2.2351,-2.2439,-2.2526,-2.1657,-2.1343,-2.1342,-2.107,-2.1022,-2.105,-2.067,-2.0376,-2.0049,-1.9733,-1.9378,-1.9,-1.8384,-1.7968,0.0,0.0,0.0,0.0,0.0,0.0,0.0,0.0,0.0,-2.2171,-2.3649,-2.4554,-2.5641,-2.7529,-2.8882,-2.9661,-2.9627,-3.0503,-3.114,-3.1004,-3.0362,-3.0159,-3.0903,-3.0463,-3.0345,-3.092,-3.0446,-3.0108,-3.0108,-2.9414,-2.8636,-2.7823,-2.8416,-2.8755,-2.8755,-2.8755,-2.9397,-3.0751,-2.9542,-2.9332,-3.0162,-2.8895,-2.8518,-2.8852,-2.7581,-2.6881,-2.6676,-2.6277,-2.5843,-2.5295,-2.4209,-2.3363,-2.2772,-2.249,-2.1836,-2.1023,-2.0538,-1.9403,-1.8027,0.0,0.0,0.0,0.0,0.0,0.0,0.0,0.0,0.0,0.0,0.0,0.0,0.0,0.0,0.0,0.0,0.0,0.0,-1.2943,-1.1408,-1.0755,-1.1419,-1.1927,-1.2023,-1.1623,-1.1956,-1.2361,-1.2865,-1.3929,-1.5153,-1.6487,-1.7239,-1.8516,-2.0209,-2.0736,-2.1523,-2.2496,-2.2895,-2.3093,-2.3111,-2.3093,-2.2908,-2.2668,-2.2556,-2.2598,-2.263,-2.1372,-2.1133,-2.1198,-1.958,-1.9707,-2.0501,-2.0417,-2.0196,-1.9878,-1.9375,0.0,-1.7952,-1.8275,-1.9377,-2.0625,-2.1343,-2.1801,-2.2462,0.0,0.0,-2.5005,-2.6099,-2.6893,-2.7505,-2.7743,-2.9033,-3.0048,-3.0048,-3.0688,-3.097,-3.0328,-2.9583,-2.9397,-3.0142,-3.0159,-3.0142,-3.0226,-3.0159,-3.0108,-3.0108,-2.9414,-2.8636,-2.7823,-2.7909,-2.7908,-2.7908,-2.7908,-2.8366,-2.9228,-2.8733,-2.8522,-2.8657,-2.818,-2.8134,-2.845,-2.8288,-2.7628,-2.6502,-2.4787,-2.4383,-2.4864,-2.3738,-2.323,-2.3117,-2.2772,-2.2152,-2.1393,-2.1054,-1.9718,-1.8106,0.0,0.0,0.0,0.0,0.0,0.0,0.0,0.0,0.0,0.0,0.0,0.0,0.0,0.0,0.0,0.0,0.0,0.0,-1.3711,-1.2267,-1.1893,-1.309,-1.4014,-1.4313,-1.3907,-1.446,-1.4836,-1.5051,-1.5995,-1.6766,-1.7362,-1.873,-1.9935,-2.0935,-2.1678,-2.2391,-2.3021,-2.3346,-2.3392,-2.323,-2.3414,-2.33,-2.2944,-2.2481,-2.1763,-2.1046,-2.1336,-2.1259,0.0,0.0,-1.9391,-2.0002,-1.8913,-1.8882,-1.9236,-1.9261,-1.8932,0.0,-1.9557,-2.0153,0.0,0.0,-2.3109,-2.3738,-2.5126,-2.6103,-2.6952,-2.786,-2.8636,-2.9279,-2.9702,-3.0649,-3.1241,0.0,-3.136,-3.1562,-3.0835,-2.9719,-2.9093,-2.9414,-2.9448,-2.9634,-3.0074,-3.0108,-3.0108,-3.0108,-3.0209,-2.9939,-2.9194,-2.9161,-2.9161,-2.9161,-2.8721,-2.8983,-2.9933,-2.892,-2.8638,-2.9107,-2.8477,-2.8386,-2.8731,-2.8257,-2.7506,-2.6499,-2.4748,-2.4452,-2.5105,-2.3956,-2.35,-2.3437,-2.2923,-2.2344,-2.1795,-2.1212,-1.9768,-1.8106,0.0,0.0,0.0,0.0,0.0,0.0,0.0,0.0,0.0,0.0,0.0,0.0,0.0,0.0,0.0,0.0,0.0,0.0,0.0,-1.2973,-1.2836,-1.4062,-1.536,-1.5985,-1.5805,-1.6618,-1.7016,-1.7016,-1.7904,-1.8392,-1.8532,-2.0225,-2.121,-2.1593,-2.2561,-2.3117,-2.3369,-2.3741,-2.3783,-2.3577,-2.3886,-2.3492,-2.2668,-2.1878,-2.0642,-1.9556,-2.0841,-2.0768,0.0,0.0,-1.9425,-1.992,-1.8224,-1.8159,-1.8768,-1.9056,-1.9195,-1.9481,-2.0579,0.0,0.0,-2.3447,-2.4517,-2.5362,-2.6315,-2.7537,-2.867,-2.9431,-2.9871,-3.026,-3.0801,-3.1157,-3.1258,-3.0954,-3.1326,-3.1495,-3.097,-2.9786,-2.9011,-2.9011,-2.8602,-2.8738,-2.9702,-2.9989,-3.0108,-3.0108,-3.0598,-3.0666,-3.0142,-3.0108,-3.0023,-2.9803,-2.9262,-2.9291,-2.9815,-2.8984,-2.8868,-2.9448,-2.8843,-2.8834,-2.931,-2.8264,-2.7365,-2.6521,-2.5126,-2.474,-2.5016,-2.4174,-2.3837,-2.3774,-2.3093,-2.2583,-2.2146,-2.1305,-1.9838,-1.8274,0.0,0.0,0.0,0.0,0.0,0.0,0.0,0.0,0.0,0.0,0.0,0.0,0.0,0.0,0.0,0.0,0.0,0.0,0.0,-1.3275,-1.3303,-1.3894,-1.5375,-1.632,-1.6563,-1.7714,-1.8342,-1.8342,-1.9415,-2.0113,-2.0525,-2.1558,-2.2255,-2.2686,-2.3369,-2.3671,-2.3714,-2.4247,-2.4478,-2.4476,-2.4666,-2.35,-2.1567,-2.0759,-1.9767,-1.8934,-1.9755,0.0,0.0,0.0,-1.992,-2.0723,-1.9373,-1.8955,0.0,-1.899,-1.9427,-2.0075,-2.1034,0.0,-2.3754,-2.4879,-2.6422,-2.7875,-2.8687,-2.9482,-3.0243,-3.097,-3.0581,-3.0125,-3.0142,-2.9567,-2.9313,-3.0023,-3.0159,-3.0176,-3.0142,-2.9465,-2.9011,-2.9011,-2.7672,-2.7368,0.0,-2.9685,-3.0108,-3.0108,-3.0125,-3.0125,-3.0108,-3.0108,-2.977,-2.9042,-2.8991,-2.8636,-2.7892,-2.8589,-2.903,-2.9118,-2.9014,-2.9397,-3.0118,-2.8521,-2.7365,-2.6557,-2.5713,-2.4924,-2.4226,-2.4208,-2.419,-2.4113,-2.3455,-2.2944,-2.247,-2.1395,-2.0066,-1.8717,0.0,0.0,0.0,0.0,0.0,0.0,0.0,0.0,0.0,0.0,0.0,0.0,0.0,0.0,0.0,0.0,0.0,0.0,0.0,-1.4217,-1.3941,-1.4349,-1.6237,-1.6959,-1.6288,-1.7969,-1.8961,-1.9132,-1.9629,-2.0075,-2.0474,-2.0535,-2.0802,-2.126,-2.1479,-2.2,-2.2718,-2.2911,-2.3641,-2.4512,-2.2294,-2.1997,-2.259,-2.0096,-1.9295,-1.9568,0.0,0.0,0.0,0.0,0.0,0.0,-1.7738,-1.7644,-1.8368,-1.9465,-2.0415,-2.1445,-2.3039,-2.4419,-2.5895,-2.7938,-2.8902,-2.9651,-3.0886,-3.0987,-3.0768,-3.0531,-3.0627,-3.062,-3.0132,-3.0201,-3.025,-3.0053,-3.0427,-3.0593,-3.017,-2.9888,-2.9347,-2.8332,-2.8653,0.0,0.0,0.0,0.0,-3.0074,-3.0548,-3.0835,-3.0835,-3.0835,-3.0717,-3.0463,-2.9989,-2.9843,-3.0121,-2.992,-3.0076,-3.062,-3.0058,-2.9953,-3.0136,-2.7989,-2.6869,-2.6539,-2.5181,-2.4447,-2.419,-2.419,-2.419,-2.4113,-2.3459,-2.3124,-2.2845,-2.1486,-2.0454,-1.9566,0.0,0.0,0.0,0.0,0.0,0.0,0.0,0.0,0.0,0.0,0.0,0.0,0.0,0.0,0.0,0.0,0.0,0.0,0.0,0.0,-1.3442,-1.3582,-1.5441,-1.6238,-1.5796,-1.7304,-1.8305,-1.8787,-1.8636,-1.8827,-1.9336,-1.8914,-1.8845,-1.9165,-1.9263,-1.9722,-2.042,-2.0489,-2.1479,-2.2802,-2.0747,-2.0826,-2.1914,-1.9558,-1.9037,0.0,0.0,0.0,0.0,0.0,0.0,0.0,-1.7723,-1.763,-1.8378,-1.9687,-2.107,-2.2653,-2.4789,-2.6393,-2.8041,-3.0336,-3.1089,-3.1461,-3.2121,-3.1817,-3.1227,-3.0609,-3.0211,-3.0017,-2.9987,-2.9839,-2.9617,-2.9269,-2.9594,-2.9828,-2.9714,-2.9595,-2.9346,-2.8868,-2.9643,-2.9696,0.0,0.0,0.0,-3.0074,-3.0548,-3.092,-3.119,-3.119,-3.1269,-3.1411,-3.095,-3.0887,-3.1349,-3.1026,-3.1034,-3.1384,-3.087,-3.0485,-3.0136,-2.8301,-2.731,-2.6961,-2.564,-2.4887,-2.4612,-2.4318,-2.4373,-2.4554,-2.3714,-2.3483,-2.3439,-2.1953,-2.0895,-1.9986,0.0,0.0,0.0,0.0,0.0,0.0,0.0,0.0,0.0,0.0,0.0,0.0,0.0,0.0,0.0,0.0,0.0,0.0,0.0,0.0,0.0,-1.1782,-1.3179,-1.4327,-1.5039,-1.5815,-1.6571,-1.7368,-1.6568,-1.6588,-1.736,-1.6848,-1.6626,-1.6633,-1.7004,-1.7188,-1.7261,-1.748,-1.8432,-1.9821,-2.0076,-2.0065,-1.9824,-1.9118,0.0,0.0,0.0,0.0,0.0,0.0,0.0,0.0,-1.9326,-1.9039,-1.9231,-1.9819,-2.1564,-2.3853,-2.6209,-2.8291,-3.0194,-3.1952,-3.2899,-3.3203,-3.2449,-3.1953,-3.1533,-3.1013,-2.9388,-2.8447,0.0,0.0,-2.7512,-2.777,-2.7777,-2.8094,-2.8918,-2.8853,-2.9258,0.0,0.0,0.0,0.0,0.0,0.0,-3.0394,0.0,-3.059,-3.1247,-3.132,-3.15,-3.1841,-3.1808,-3.1707,-3.1497,-3.19,-3.1901,-3.1513,-3.1476,-3.1054,-3.0301,-2.9397,-2.8594,-2.7805,-2.6979,-2.6172,-2.5403,-2.463,-2.4759,-2.5344,-2.4254,-2.4055,-2.4219,-2.2706,-2.1346,-2.0054,0.0,0.0,0.0,0.0,0.0,0.0,0.0,0.0,0.0,0.0,0.0,0.0,0.0,0.0,0.0,0.0,0.0,0.0,0.0,0.0,0.0,0.0,0.0,0.0,0.0,0.0,0.0,0.0,-1.5066,-1.5142,-1.5621,-1.5497,-1.5509,-1.568,-1.644,-1.7087,-1.7683,-1.8382,-1.9627,-2.0955,0.0,-1.9512,-2.0923,0.0,0.0,0.0,0.0,0.0,0.0,0.0,0.0,0.0,0.0,-2.1065,-2.2085,-2.2387,-2.4325,-2.6729,-2.8298,-3.0382,-3.2414,-3.3641,-3.366,-3.3151,-3.2085,-3.1007,-2.9804,-2.827,-2.8072,-2.8105,0.0,0.0,0.0,-2.791,-2.8489,0.0,-2.9804,-3.1063,0.0,-3.2102,0.0,-3.3592,-3.3202,-3.3133,0.0,0.0,-3.3125,-3.2702,-3.2538,-3.2875,-3.2966,-3.2708,-3.1916,-3.1891,-3.2739,-3.3156,-3.3304,-3.3183,-3.2577,-3.2192,-3.1935,-2.9892,-2.8906,-2.8631,-2.7218,-2.6484,-2.6282,-2.608,-2.6117,-2.6243,-2.5687,-2.5028,-2.429,-2.3326,-2.2262,-2.1085,0.0,0.0,0.0,0.0,0.0,0.0,0.0,0.0,0.0,0.0,0.0,0.0,0.0,0.0,0.0,0.0,0.0,0.0,0.0,0.0,0.0,0.0,0.0,0.0,0.0,0.0,0.0,0.0,0.0,0.0,-1.3469,-1.3079,-1.3155,-1.3657,-1.4108,-1.457,-1.5087,-1.5928,0.0,0.0,0.0,0.0,0.0,0.0,0.0,0.0,0.0,0.0,0.0,0.0,0.0,-2.0828,-2.1588,-2.2678,-2.3803,-2.4545,0.0,-2.8694,-3.0073,-3.2015,-3.3864,-3.4779,-3.4184,-3.3114,-3.2069,-3.0594,-2.9104,-2.7738,-2.7409,0.0,-2.7482,-2.7319,-2.7134,0.0,0.0,0.0,-2.9083,-3.0906,-3.2441,0.0,-3.4663,0.0,-3.4934,-3.4848,-3.5029,0.0,-3.4383,-3.3599,-3.3335,-3.3564,-3.3509,-3.3088,-3.2517,-3.2595,-3.3447,-3.368,-3.3807,-3.3788,-3.2981,-3.2614,-3.2559,-3.0834,-2.9861,-2.9475,0.0,-2.7457,-2.7108,-2.6759,-2.6814,-2.7068,-2.653,-2.5762,-2.4817,-2.4069,-2.2852,-2.1505,0.0,0.0,0.0,0.0,0.0,0.0,0.0,0.0,0.0,0.0,0.0,0.0,0.0,0.0,0.0,0.0,0.0,0.0,0.0,0.0,0.0,0.0,0.0,0.0,0.0,0.0,0.0,0.0,0.0,0.0,0.0,0.0,0.0,0.0,0.0,0.0,0.0,0.0,0.0,0.0,0.0,0.0,0.0,0.0,0.0,0.0,0.0,0.0,0.0,0.0,-2.086,-2.1049,-2.285,-2.4121,-2.5146,-2.6317,-2.825,-3.0228,-3.1453,-3.3151,-3.4728,-3.5301,-3.4286,-3.2861,-3.1857,-3.0079,-2.8428,-2.7758,0.0,-2.6177,-2.726,-2.6698,-2.5983,-2.5779,0.0,-2.6872,-2.8049,-2.9844,-3.1934,-3.4359,-3.5714,-3.6486,-3.6615,-3.6523,-3.6486,-3.6615,-3.5133,-3.4173,-3.4106,-3.3944,-3.3677,-3.3291,-3.3273,-3.3465,-3.3807,-3.3807,-3.3807,-3.3788,-3.3091,-3.2761,-3.2742,-3.1935,-3.1182,-3.0467,-2.9677,-2.8925,-2.8209,-2.742,-2.7493,-2.8044,-2.7236,-2.6467,-2.575,-2.4974,-2.3525,-2.191,0.0,0.0,0.0,0.0,0.0,0.0,0.0,0.0,0.0,0.0,-1.0085,-1.0068,0.0,0.0,0.0,0.0,0.0,0.0,0.0,0.0,0.0,0.0,0.0,0.0,0.0,0.0,0.0,0.0,0.0,0.0,0.0,0.0,0.0,0.0,0.0,0.0,0.0,0.0,0.0,0.0,0.0,0.0,0.0,0.0,0.0,0.0,0.0,0.0,0.0,0.0,-2.1139,-2.3158,-2.3844,-2.5725,-2.7684,-2.7605,-2.9642,-3.1969,-3.2132,-3.3607,-3.5039,-3.4771,-3.3119,-3.1247,-3.0,-2.7534,0.0,0.0,-2.3959,-2.367,-2.4529,-2.4452,-2.4614,-2.5773,-2.6178,-2.7156,-2.9472,-3.0966,-3.2842,0.0,-3.6751,-3.7533,-3.823,-3.7679,0.0,0.0,-3.7375,-3.6648,-3.6206,-3.5284,-3.4447,-3.3726,-3.3707,-3.3734,-3.3807,-3.3807,-3.3807,-3.3807,-3.366,-3.3587,-3.3568,-3.2761,-3.232,-3.2155,-3.1329,0.0,-3.0705,-2.9916,-2.9659,-2.9696,-2.8906,-2.7953,-2.6945,-2.6534,-2.5199,-2.3536,0.0,0.0,0.0,0.0,0.0,0.0,0.0,0.0,-1.0176,-1.0117,-1.0099,-1.0109,-1.0093,-1.0106,0.0,0.0,0.0,0.0,0.0,0.0,0.0,0.0,0.0,0.0,0.0,0.0,0.0,0.0,0.0,0.0,0.0,0.0,0.0,0.0,0.0,0.0,0.0,0.0,0.0,0.0,0.0,0.0,0.0,0.0,0.0,0.0,0.0,0.0,0.0,0.0,-2.1033,-2.2843,-2.4182,-2.6225,-2.7932,-2.7157,-2.9382,-3.1969,-3.1551,-3.3286,-3.5111,-3.4618,-3.2736,-3.0698,-2.957,0.0,0.0,0.0,-2.3241,-2.2803,-2.3203,-2.3529,0.0,-2.4735,-2.4796,-2.5759,-2.8689,-2.9876,-3.1727,-3.521,-3.6725,-3.7808,-3.8615,-3.834,-3.8285,-3.867,-3.7936,-3.7399,-3.7148,-3.5784,-3.4623,-3.3825,-3.3807,-3.3807,-3.3807,-3.3807,-3.3807,-3.3807,-3.3807,-3.3807,-3.3788,-3.3403,-3.2999,-3.2596,-3.2192,-3.1788,-3.1329,-3.0522,-3.021,-3.0118,-2.9329,-2.8304,-2.7254,-2.6934,-2.5614,-2.3952,0.0,0.0,0.0,0.0,0.0,0.0,0.0,-1.0195,-1.0172,-1.0125,-1.0107,-1.0128,-1.0213,-1.0169,-1.0115,0.0,0.0,0.0,0.0,0.0,0.0,0.0,0.0,0.0,0.0,0.0,0.0,0.0,0.0,0.0,0.0,0.0,0.0,0.0,0.0,0.0,0.0,0.0,0.0,0.0,0.0,0.0,0.0,0.0,0.0,0.0,0.0,0.0,0.0,0.0,-2.0277,-2.1367,-2.3178,-2.5374,-2.7158,-2.6416,-2.8678,-3.1389,-3.1067,-3.3142,-3.5248,-3.4494,-3.2475,-3.0335,-2.906,-2.5855,0.0,0.0,-2.2671,-2.2125,-2.2282,-2.2959,-2.3556,0.0,-2.3882,-2.486,-2.7485,-2.8727,-3.0706,0.0,-3.6211,0.0,-3.8615,-3.8707,0.0,-3.8707,-3.7936,-3.7331,-3.6964,-3.5734,-3.4623,-3.3825,-3.3807,-3.3807,-3.3807,-3.3807,-3.3807,-3.3807,-3.3807,-3.3807,-3.3807,-3.3807,-3.3458,-3.2871,-3.2871,-3.2504,-3.1843,-3.1054,-3.0613,-3.0375,-2.9586,-2.8584,-2.7622,-2.7184,-2.5993,-2.453,0.0,0.0,0.0,0.0,0.0,0.0,0.0,-1.0194,-1.0191,-1.0194,-1.0136,-1.015,-1.0286,-1.023,-1.0185,0.0,0.0,0.0,0.0,0.0,0.0,0.0,0.0,0.0,0.0,0.0,0.0,0.0,0.0,0.0,0.0,0.0,0.0,0.0,0.0,0.0,0.0,0.0,0.0,0.0,0.0,0.0,0.0,0.0,0.0,0.0,0.0,0.0,0.0,0.0,0.0,-1.9055,-1.9509,-2.2447,-2.581,-2.6313,0.0,0.0,-3.1888,-3.3988,-3.5486,-3.404,-3.1976,-2.9635,-2.7213,0.0,-2.1753,-2.1642,-2.0937,-2.0554,-2.1274,-2.2168,-2.3005,-2.3691,0.0,-2.6321,-2.6942,-2.9063,-3.137,-3.3647,0.0,0.0,-3.856,-3.8707,-3.8707,-3.8707,-3.7936,-3.6835,-3.5302,-3.5064,-3.4623,-3.3825,-3.3807,-3.3807,-3.3807,-3.3807,-3.3807,-3.3807,-3.3807,-3.3807,-3.3807,-3.3807,-3.3752,-3.3697,-3.3697,-3.3642,0.0,-3.2724,-3.1953,-3.1201,-3.0393,-2.958,-2.8753,-2.8067,-2.726,-2.6337,0.0,0.0,0.0,0.0,0.0,0.0,0.0,-1.0194,-1.0195,-1.0195,-1.0174,-1.0187,-1.022,-1.0225,-1.0221,0.0,0.0,0.0,0.0,0.0,0.0,0.0,0.0,0.0,0.0,0.0,0.0,0.0,0.0,0.0,0.0,0.0,0.0,0.0,0.0,0.0,0.0,0.0,0.0,0.0,0.0,0.0,0.0,0.0,0.0,0.0,0.0,0.0,0.0,0.0,0.0,0.0,-1.7978,-1.9591,0.0,0.0,-2.5096,-2.8524,-2.9163,-3.1745,-3.4041,-3.3119,-3.1008,-2.8676,-2.6776,0.0,-2.0901,-2.122,-2.062,-2.0154,-2.051,-2.1739,-2.2809,-2.3198,0.0,0.0,-2.6211,-2.6811,-2.8407,-3.1937,-3.3902,0.0,0.0,0.0,-3.8505,-3.801,-3.7221,-3.6266,-3.5045,-3.499,-3.4623,-3.3825,-3.3807,-3.3807,-3.3807,-3.3807,-3.3807,-3.3807,-3.3807,-3.3807,-3.3807,-3.3807,-3.3807,-3.3807,-3.3807,-3.3807,0.0,-3.2944,-3.2412,-3.199,-3.0705,-3.0008,-2.9564,-2.8353,-2.7128,-2.5941,0.0,0.0,0.0,0.0,0.0,-1.0251,-1.0207,-1.0185,-1.0163,-1.0128,-1.0094,-1.0094,-1.0144,-1.0116,-1.0131,-1.0251,0.0,0.0,0.0,0.0,0.0,0.0,0.0,0.0,0.0,0.0,0.0,-1.0194,0.0,0.0,0.0,0.0,0.0,0.0,0.0,0.0,0.0,0.0,0.0,0.0,0.0,0.0,0.0,0.0,0.0,0.0,0.0,0.0,0.0,0.0,0.0,0.0,0.0,0.0,0.0,0.0,-2.2442,-2.6175,-2.6933,-2.9569,-3.2001,-3.166,-2.9769,-2.7587,0.0,0.0,-2.0546,-2.0776,-2.038,-2.0015,-2.0097,-2.1531,-2.275,0.0,0.0,-2.4364,-2.5646,-2.5845,-2.711,-3.0525,0.0,-3.4395,0.0,-3.7934,-3.8102,-3.7533,-3.6523,-3.5661,-3.5027,-3.4752,-3.4394,-3.3825,-3.3807,-3.3807,-3.3807,-3.3807,-3.3807,-3.3807,-3.3807,-3.3807,-3.3807,-3.3807,-3.3807,-3.3807,-3.3807,-3.3807,0.0,-3.3201,-3.2816,-3.2504,-3.1347,-3.0632,-3.0045,-2.8738,-2.7412,-2.6091,0.0,0.0,0.0,0.0,0.0,0.0,0.0,-1.0136,-1.0053,-0.9923,-0.984,-0.9857,-0.9994,-0.9886,-0.9903,-1.0179,0.0,0.0,0.0,0.0,0.0,0.0,0.0,0.0,0.0,0.0,0.0,-1.0206,-1.0202,-1.0166,-1.0101,-1.0175,-1.0136,0.0,0.0,0.0,0.0,0.0,0.0,0.0,0.0,0.0,0.0,0.0,0.0,0.0,0.0,0.0,0.0,0.0,0.0,0.0,0.0,0.0,0.0,0.0,-2.1124,-2.3683,-2.6141,-2.8095,-2.9479,-2.9603,-2.8264,-2.6314,0.0,0.0,-2.0706,-2.0045,-1.9949,-2.0015,-2.0097,-2.1531,-2.2731,-2.2878,-2.5072,0.0,-2.5352,-2.7133,-2.8868,0.0,0.0,-3.305,-3.6367,-3.7202,-3.7526,-3.7507,-3.5973,0.0,-3.499,-3.4266,-3.3807,-3.3807,-3.3807,-3.3807,-3.3807,-3.3807,-3.3807,-3.3807,-3.3807,-3.3807,-3.3807,-3.3807,-3.3807,-3.3807,-3.3807,-3.3807,0.0,-3.3788,-3.333,-3.2614,-3.2596,-3.1604,-3.0119,-2.9375,-2.8563,-2.7564,0.0,0.0,0.0,0.0,0.0,0.0,0.0,-1.0112,-1.0066,-0.9983,-0.9959,-0.974,-0.9239,-0.9135,-0.8938,-0.8468,0.0,0.0,0.0,0.0,0.0,0.0,0.0,0.0,0.0,0.0,0.0,-1.0191,-1.021,-1.0166,-1.0109,-1.0121,-1.002,-0.9794,-0.9774,0.0,0.0,0.0,0.0,0.0,0.0,0.0,0.0,0.0,0.0,0.0,0.0,0.0,0.0,0.0,0.0,0.0,0.0,0.0,0.0,0.0,0.0,0.0,-2.3766,-2.4868,-2.565,-2.5691,-2.452,-2.3032,-2.1809,0.0,-1.9986,-1.9909,-1.9952,-2.0038,-2.0155,-2.1633,-2.2873,-2.296,-2.462,0.0,0.0,0.0,0.0,-2.9531,-3.2598,-3.5409,0.0,0.0,-3.6941,-3.6949,-3.5745,-3.4752,-3.4211,-3.3935,-3.3807,-3.3807,-3.3807,-3.3807,-3.3807,-3.3807,-3.3807,-3.3807,-3.3807,-3.3807,-3.3807,-3.3807,-3.3807,-3.3807,-3.3807,-3.3807,-3.3807,-3.3807,-3.3642,-3.3311,-3.221,-3.1458,-3.0796,-2.8953,-2.7802,-2.6876,0.0,0.0,0.0,0.0,0.0,0.0,0.0,-0.9586,-0.941,-0.8963,-0.8922,-0.8755,-0.8251,-0.8186,-0.8044,-0.7674,0.0,0.0,0.0,0.0,0.0,0.0,0.0,0.0,0.0,0.0,-0.9652,-1.0158,-1.0145,-1.0067,-0.9953,-0.9924,-0.9842,-0.9689,-0.9647,0.0,0.0,0.0,0.0,0.0,0.0,0.0,-0.9295,0.0,0.0,0.0,0.0,0.0,0.0,0.0,0.0,0.0,0.0,0.0,0.0,0.0,-1.7622,-1.9999,0.0,-2.1662,-2.2266,-2.2333,-2.1404,0.0,0.0,0.0,0.0,-1.9817,-1.9981,-2.0069,-2.0214,-2.1717,-2.2835,-2.2552,-2.4206,0.0,0.0,0.0,0.0,-2.9558,0.0,0.0,0.0,-3.6633,-3.6419,-3.6381,-3.5342,-3.4471,-3.3972,-3.3574,-3.3348,-3.3348,-3.3642,-3.3642,-3.3348,-3.3642,-3.3807,-3.3807,-3.3807,-3.3807,-3.3807,-3.3807,-3.3807,-3.3807,-3.3807,-3.3807,0.0,-3.3807,-3.3623,-3.3256,-3.2247,-3.1382,-3.0534,-2.8933,-2.7593,-2.6398,0.0,0.0,0.0,0.0,0.0,0.0,0.0,0.0,0.0,-0.7232,-0.7156,-0.7192,-0.7122,-0.7122,-0.7242,-0.749,0.0,0.0,0.0,0.0,0.0,0.0,0.0,0.0,0.0,-1.0069,-1.0094,-1.0094,-1.0023,-0.9908,-0.9717,-0.9631,-0.9631,-0.9698,-0.9496,0.0,0.0,0.0,0.0,0.0,0.0,0.0,0.0,0.0,0.0,0.0,0.0,0.0,0.0,0.0,0.0,0.0,0.0,0.0,0.0,0.0,0.0,0.0,0.0,-1.8562,0.0,0.0,0.0,0.0,0.0,0.0,0.0,0.0,0.0,-2.0145,-2.0269,-2.1776,-2.2717,-2.1859,-2.3897,0.0,0.0,-2.5776,0.0,0.0,-3.3735,0.0,-3.4939,-3.5437,-3.5885,-3.5922,-3.4892,-3.4242,-3.42,-3.3204,-3.2603,-3.2522,-3.3238,-3.3311,-3.2614,-3.3403,-3.3807,-3.3807,-3.3807,-3.3807,-3.3807,-3.3807,-3.3807,0.0,-3.3807,-3.377,-3.3715,-3.377,-3.333,-3.2596,-3.254,-3.1362,-2.9638,-2.918,-2.7836,-2.6217,0.0,0.0,0.0,0.0,0.0,0.0,0.0,0.0,0.0,0.0,-0.7227,-0.7038,-0.642,-0.6441,-0.6269,0.0,0.0,0.0,0.0,0.0,0.0,0.0,0.0,0.0,0.0,-0.8738,-0.9392,-1.0103,-1.0036,-0.9946,-0.9844,-0.9682,-0.9671,-0.9738,-0.8941,0.0,0.0,0.0,0.0,0.0,0.0,0.0,0.0,0.0,0.0,0.0,-0.9894,-1.1099,0.0,0.0,0.0,0.0,0.0,0.0,0.0,0.0,-1.5294,-1.5788,-1.5462,0.0,-1.646,-1.6557,-1.6463,-1.6421,0.0,0.0,0.0,0.0,0.0,0.0,0.0,0.0,0.0,-2.1915,0.0,-2.5359,-2.4444,0.0,0.0,-3.0126,-3.344,-3.534,-3.4443,-3.4909,-3.5531,-3.6159,-3.5189,-3.4467,-3.42,-3.3385,-3.2538,-3.1721,-3.1861,-3.2173,-3.2614,-3.3403,-3.3807,-3.3807,-3.3807,-3.3807,-3.3807,-3.3807,-3.3807,-3.3807,-3.3807,-3.3458,-3.2944,-3.355,-3.333,-3.254,-3.1916,-3.1261,-3.0405,-2.8777,-2.7701,-2.6895,0.0,0.0,0.0,0.0,0.0,0.0,0.0,0.0,0.0,0.0,0.0,0.0,0.0,0.0,0.0,0.0,0.0,0.0,0.0,0.0,0.0,0.0,0.0,0.0,0.0,-0.9163,-0.9588,-1.0003,-0.9933,-0.9844,-0.972,-0.9565,-0.9614,-0.9743,-0.8518,0.0,0.0,0.0,0.0,0.0,-0.7966,0.0,0.0,0.0,0.0,0.0,-0.9589,-1.0625,0.0,-1.1472,-1.2208,-1.3357,0.0,0.0,0.0,0.0,-1.4855,-1.5072,-1.4759,-1.5147,-1.5668,-1.5751,-1.5529,-1.5519,-1.6392,0.0,0.0,0.0,0.0,0.0,0.0,0.0,0.0,0.0,-2.3961,0.0,0.0,0.0,-3.0163,-3.0814,-3.3256,-3.4872,0.0,-3.5081,-3.5461,-3.5902,-3.492,-3.4149,-3.3845,-3.259,-3.1589,-3.0876,-3.0852,-3.1237,-3.2045,-3.2852,-3.344,-3.3807,-3.3807,-3.3807,-3.3788,-3.3421,-3.3458,-3.377,-3.3421,-3.322,-3.3183,-3.3623,-3.3109,-3.2008,-3.1568,-3.0628,-2.9382,-2.8301,-2.732,-2.6439,0.0,0.0,0.0,0.0,0.0,0.0,0.0,0.0,0.0,0.0,0.0,0.0,0.0,0.0,0.0,0.0,0.0,0.0,0.0,0.0,0.0,0.0,0.0,-0.814,-0.994,-0.9968,-0.9956,-0.9917,-0.9832,-0.9779,-0.9767,-0.9525,-0.9476,-0.955,-0.8196,0.0,0.0,0.0,0.0,0.0,-0.7434,0.0,0.0,0.0,0.0,0.0,0.0,0.0,0.0,-1.1196,-1.1772,-1.2611,-1.3219,0.0,0.0,0.0,0.0,0.0,-1.5007,-1.5499,-1.593,-1.6045,-1.5544,-1.5449,-1.7085,0.0,0.0,0.0,0.0,0.0,0.0,-2.2021,0.0,0.0,0.0,0.0,-2.7149,-2.8734,-3.0256,-3.1565,-3.3301,0.0,-3.5064,-3.5353,-3.5493,-3.5493,-3.445,-3.3686,-3.3412,-3.1611,-3.0494,-3.021,-3.0081,-3.0393,-3.1201,-3.2008,-3.2761,-3.344,-3.355,-3.3623,-3.3587,-3.2926,-3.2981,-3.3568,0.0,0.0,-3.3256,-3.3385,-3.2559,-3.1219,-3.1219,-2.9969,-2.8124,-2.8017,-2.6999,-2.5671,0.0,0.0,0.0,0.0,0.0,0.0,0.0,0.0,0.0,0.0,0.0,0.0,0.0,0.0,0.0,0.0,0.0,0.0,0.0,0.0,0.0,0.0,0.0,-0.7227,-0.8984,-0.896,-0.927,-0.9992,-0.9854,-1.0218,-1.0998,-0.9976,-0.9195,-0.8668,-0.786,-0.7065,-0.6312,-0.6233,-0.6064,-0.5979,-0.7632,0.0,0.0,0.0,0.0,0.0,0.0,0.0,0.0,-1.0502,-1.088,-1.1617,-1.1671,0.0,0.0,0.0,0.0,0.0,-1.5758,-1.6272,-1.6369,-1.6355,-1.6199,-1.6353,-1.7481,0.0,0.0,0.0,0.0,0.0,0.0,-2.244,-2.3588,0.0,0.0,-2.7341,0.0,0.0,-3.2262,-3.1844,0.0,-3.4776,-3.343,-3.4641,-3.5493,-3.5493,-3.4446,-3.3684,-3.3412,-3.1613,-3.0479,-3.021,-2.9549,-2.9586,-3.0375,-3.1182,-3.1641,-3.177,-3.2467,-3.2797,-3.2797,-3.2669,-3.2687,-3.2742,0.0,-3.1274,-3.0815,-3.1476,-3.1219,-3.0375,-3.0375,-2.997,-2.9269,-2.8576,-2.7366,-2.5915,0.0,0.0,0.0,0.0,0.0,0.0,0.0,0.0,0.0,0.0,0.0,0.0,0.0,0.0,0.0,0.0,0.0,0.0,0.0,0.0,0.0,0.0,-0.6523,-0.7049,-0.8759,-0.9186,-0.9584,-0.9935,-1.0355,-1.0779,-1.1222,-1.0716,-1.0038,-0.9195,-0.7985,-0.7179,-0.6687,-0.5822,-0.5589,-0.5929,0.0,0.0,0.0,0.0,0.0,0.0,0.0,0.0,0.0,0.0,-1.0424,-1.0819,-1.1227,0.0,0.0,0.0,0.0,0.0,-1.5438,-1.6164,-1.6662,-1.7092,-1.7182,-1.7534,-1.8932,0.0,0.0,0.0,0.0,0.0,0.0,0.0,-2.4479,-2.5014,0.0,-2.8616,-3.0258,-3.1141,-3.1804,0.0,0.0,-3.416,-3.4295,-3.4603,-3.4795,-3.4795,-3.3336,-3.2352,-3.2109,-3.0751,-2.9826,-2.9549,-2.92,-2.9177,-2.9549,-2.9934,-3.054,-3.1384,-3.177,-3.1953,-3.1935,-3.1513,-3.1549,-3.1916,0.0,-3.0797,-3.087,-3.1237,-3.0925,-3.021,-3.021,-2.9685,-2.8827,-2.7843,-2.6654,-2.5398,0.0,0.0,0.0,0.0,0.0,0.0,0.0,0.0,0.0,0.0,0.0,0.0,0.0,0.0,0.0,0.0,0.0,0.0,0.0,0.0,-0.5956,-0.7259,-0.7044,-0.7582,-0.9062,-0.951,-0.991,-1.0269,-1.0703,-1.0909,-1.0909,-1.1369,-1.0871,-0.9554,-0.805,-0.7233,-0.6912,-0.5602,-0.5332,-0.5834,0.0,0.0,0.0,0.0,0.0,0.0,0.0,0.0,0.0,0.0,0.0,0.0,0.0,0.0,0.0,-1.3098,-1.3716,-1.4166,-1.5297,-1.625,-1.7134,-1.8008,0.0,-1.8681,-2.0404,0.0,0.0,0.0,0.0,0.0,0.0,-2.3809,0.0,-2.7832,-2.8956,-2.9823,-3.0845,-3.1352,-3.2083,-3.3353,-3.3333,-3.3737,-3.5064,-3.441,-3.3891,-3.3891,-3.2269,-3.1229,-3.1065,-3.0039,-2.9373,-2.9163,-2.9163,-2.9138,-2.9089,-2.9089,-2.9692,-3.0834,-3.1017,-3.1109,-3.1091,-3.0485,-3.054,-3.1072,-3.0265,-3.0265,-3.0834,-3.0834,-3.0467,-2.9934,-2.9934,-2.9345,-2.8388,-2.7058,-2.6012,-2.5127,0.0,0.0,0.0,0.0,0.0,0.0,0.0,0.0,0.0,0.0,0.0,0.0,0.0,0.0,0.0,0.0,0.0,0.0,0.0,0.0,-0.6304,-0.6469,-0.7857,-0.9049,-0.9983,-0.926,-0.9702,-1.1379,-1.0511,-1.0041,-1.0035,-1.1655,-1.1112,-0.8733,-0.7746,-0.6856,-0.6077,-0.5893,-0.5854,-0.6016,-0.7427,0.0,0.0,0.0,0.0,0.0,0.0,0.0,0.0,0.0,0.0,0.0,0.0,0.0,-1.155,-1.2436,-1.3301,-1.4352,-1.6054,-1.7181,-1.8111,-1.8984,-1.9196,0.0,-2.1313,-2.2278,0.0,-2.3933,0.0,0.0,0.0,-2.4076,-2.5215,-2.857,-2.9781,-3.0871,-3.2487,0.0,-3.518,-3.5315,-3.4603,-3.416,-3.4276,-3.3506,-3.2987,-3.2987,-3.1943,-3.1291,-3.1276,-3.0269,-2.9678,-2.9661,-2.9661,-2.957,-2.9372,-2.9372,-2.9302,-2.9177,-2.9934,-3.0283,-3.0283,-3.0228,-3.0228,-3.0246,-2.9457,-2.9104,-2.9159,-2.9159,-2.9122,-2.9085,-2.9085,-2.903,-2.8745,-2.6843,-2.6087,-2.5793,0.0,0.0,0.0,0.0,0.0,0.0,0.0,0.0,0.0,0.0,0.0,0.0,0.0,0.0,0.0,0.0,0.0,0.0,0.0,0.0,-0.716,-0.7148,-0.8251,-0.9019,-0.9346,-0.9471,-0.9905,-1.0621,-1.0294,-1.0372,-1.0832,-1.094,-1.0185,-0.8688,-0.825,-0.7581,-0.6806,-0.6727,-0.6972,-0.7433,-0.8004,-0.8545,0.0,0.0,0.0,0.0,0.0,0.0,0.0,0.0,-1.0105,-1.0079,0.0,-1.0285,-1.0756,-1.2236,-1.2904,-1.3579,-1.5325,-1.685,-1.7883,-1.7675,-1.9229,0.0,0.0,-2.2819,-2.3405,-2.482,-2.6172,0.0,0.0,0.0,-2.6419,-2.875,-2.9844,-3.1121,-3.3173,-3.3699,-3.4026,-3.4404,-3.3827,-3.3391,-3.3391,-3.2641,-3.216,-3.216,-3.0661,-2.9746,-2.9746,-2.8736,-2.8359,-2.8885,-2.8416,-2.8608,-2.9589,-2.8913,-2.881,-2.9246,-2.9402,-2.9457,-2.9457,-2.9457,-2.9182,-2.8723,-2.8925,-2.8723,-2.8301,-2.8796,-2.8994,-2.8994,-2.8994,-2.8839,-2.8458,-2.6945,-2.6236,-2.5798,0.0,0.0,0.0,0.0,0.0,0.0,0.0,0.0,0.0,0.0,0.0,0.0,0.0,0.0,0.0,0.0,0.0,0.0,0.0,-0.695,-0.7261,-0.7222,-0.7784,-0.835,-0.8886,-0.9386,-0.9817,-1.0151,-1.0721,-1.0988,-1.0985,-1.0651,-0.9849,-0.8732,-0.8609,-0.8098,-0.7345,-0.7529,-0.7935,-0.8439,-0.8642,-0.9067,0.0,0.0,0.0,0.0,0.0,0.0,0.0,0.0,-1.0102,-1.0072,0.0,0.0,0.0,0.0,-1.3032,-1.3814,-1.5287,-1.6564,-1.7479,0.0,0.0,0.0,-2.2764,-2.3471,-2.4273,-2.6036,-2.7275,0.0,-2.7207,0.0,0.0,0.0,-2.9844,-3.1044,-3.2884,-3.3,-3.3045,-3.3462,-3.2942,-3.241,-3.2141,-3.1352,-3.0775,-3.0525,-2.9276,-2.8511,-2.8511,-2.8065,-2.8055,-2.8601,-2.8093,-2.8309,-2.9418,-2.842,-2.8147,-2.861,-2.8489,-2.851,-2.8613,-2.8374,-2.7952,-2.7457,-2.8007,-2.7934,-2.7475,-2.8301,-2.8778,-2.8994,-2.8994,-2.8868,-2.8542,-2.712,-2.6454,-2.6053,0.0,0.0,0.0,0.0,0.0,0.0,0.0,0.0,0.0,0.0,0.0,0.0,0.0,0.0,0.0,0.0,0.0,0.0,0.0,-0.6422,-0.6426,-0.6414,-0.6411,-0.7206,-0.8847,-0.8905,-0.9356,-1.0308,-1.1887,-1.1771,-1.0116,-1.0919,-1.0402,-0.8799,-0.875,-0.8239,-0.7476,-0.8216,-0.8606,-0.8765,-0.9354,-0.968,-0.9791,0.0,0.0,0.0,0.0,0.0,0.0,0.0,-1.0086,-1.0154,0.0,0.0,0.0,-1.2509,-1.3785,-1.5375,-1.6239,-1.6537,0.0,0.0,0.0,0.0,-2.2481,-2.4348,-2.6002,-2.7759,-2.8046,-2.7986,-2.7904,-2.72,0.0,-2.8907,-2.9866,-3.0698,-3.1564,-3.2372,-3.2852,-3.2852,-3.216,-3.1314,-3.0456,-2.9602,-2.8756,-2.7948,-2.789,-2.789,-2.789,-2.864,-2.9063,-2.9083,-2.9063,-2.8975,-2.8793,-2.7921,-2.7282,-2.6916,-2.7112,-2.7401,-2.775,-2.6961,-2.6612,-2.6594,-2.6612,-2.6612,-2.6649,-2.7475,-2.8264,-2.8975,-2.8975,-2.916,-2.9148,-2.7269,-2.6723,-2.6619,0.0,0.0,0.0,0.0,0.0,0.0,0.0,0.0,0.0,0.0,0.0,0.0,0.0,0.0,0.0,0.0,0.0,0.0,0.0,-0.8223,-0.796,-0.7332,-0.7859,-0.8099,-0.7997,-0.8631,-0.9378,-1.0232,-1.01,-1.0083,-1.0167,-0.9789,-0.9617,-0.9667,0.0,-0.9929,-0.9209,-0.9999,-1.0038,-0.9619,-0.9756,-0.9844,-0.9863,0.0,0.0,0.0,0.0,0.0,0.0,0.0,0.0,0.0,0.0,0.0,0.0,-1.2211,-1.3263,-1.4469,-1.5287,-1.6002,0.0,-1.7171,0.0,0.0,0.0,-2.384,0.0,0.0,-2.8373,-2.7928,-2.7892,-2.7689,0.0,-2.8961,-2.9325,-2.9794,-3.066,-3.0467,-3.016,-2.9967,-2.941,-2.8929,-2.8679,-2.8409,-2.8159,-2.7909,-2.7332,-2.6986,-2.6986,-2.664,-2.6717,-2.7313,-2.6755,-2.6984,-2.8149,-2.7116,-2.6844,-2.7297,-2.6512,-2.6432,-2.6943,-2.6871,-2.6426,-2.5786,-2.6355,-2.6282,-2.586,-2.7218,-2.7603,-2.7365,-2.8091,-2.8066,-2.7512,-2.6541,-2.6131,-2.5911,0.0,0.0,0.0,0.0,0.0,0.0,0.0,0.0,0.0,0.0,0.0,0.0,0.0,0.0,0.0,0.0,0.0,0.0,0.0,0.0,-0.8605,-0.7731,-0.8162,-0.8342,-0.8161,-0.9021,-0.9717,-1.0205,-0.9638,-0.9645,-1.015,-0.9616,-0.9598,-1.0016,0.0,-1.04,-0.9974,-1.0426,-1.037,-1.0019,-1.0292,-1.0413,-1.0457,0.0,0.0,0.0,0.0,0.0,0.0,0.0,0.0,0.0,0.0,0.0,0.0,-1.2587,-1.355,-1.4514,-1.5376,0.0,0.0,-1.7354,-1.9638,-2.2056,-2.3378,0.0,0.0,0.0,-2.8307,-2.7824,-2.7448,-2.7371,0.0,-2.8025,-2.839,-2.8871,-2.9632,-2.9083,-2.8467,-2.8071,-2.7948,-2.7755,-2.7409,-2.7371,-2.7236,-2.689,-2.639,-2.6082,-2.6082,-2.5909,-2.6063,-2.6582,-2.6101,-2.6332,-2.7371,-2.637,-2.6065,-2.6492,-2.5849,-2.5646,-2.5894,-2.593,-2.5616,-2.506,-2.5558,-2.5669,-2.5576,-2.6471,-2.6804,-2.6777,-2.7379,-2.7419,-2.705,-2.6193,-2.586,-2.5679,0.0,0.0,0.0,0.0,0.0,0.0,0.0,0.0,0.0,0.0,0.0,0.0,0.0,0.0,0.0,0.0,0.0,0.0,0.0,0.0,-0.8573,-0.7845,-0.781,-0.8222,-0.9086,-0.9831,-1.0205,-1.0193,-1.0138,-1.0106,0.0,0.0,-1.0225,-1.0214,0.0,-1.0307,-1.0199,-1.0151,-1.0062,-1.006,-1.0878,-1.1206,-1.13,-1.2167,0.0,0.0,0.0,0.0,0.0,0.0,0.0,0.0,-1.1085,-1.1811,-1.2572,-1.3349,-1.4193,-1.5095,-1.6014,0.0,0.0,-1.8654,-2.0514,0.0,-2.5984,-2.7368,-2.7962,-2.7885,0.0,-2.7719,-2.6774,-2.6659,-2.6717,-2.6717,-2.7371,-2.8093,-2.8623,-2.8189,-2.7621,-2.7061,-2.7379,-2.7351,-2.6563,-2.6486,-2.6159,-2.536,-2.5303,-2.5303,-2.5303,-2.6063,-2.6486,-2.6486,-2.6486,-2.6486,-2.6486,-2.5687,-2.5214,-2.5034,-2.5184,-2.5115,-2.4799,-2.4639,-2.4526,-2.4528,-2.4528,-2.494,-2.5577,-2.5485,-2.5948,-2.6693,-2.6804,-2.7008,-2.711,-2.6043,-2.5729,-2.5709,0.0,0.0,0.0,0.0,0.0,0.0,0.0,0.0,0.0,0.0,0.0,0.0,0.0,0.0,0.0,0.0,0.0,0.0,0.0,0.0,-0.8201,-0.8696,-0.8723,-0.9099,-0.9923,-1.0108,-1.0163,-1.0124,-1.0164,0.0,0.0,0.0,0.0,-1.1914,0.0,-1.2566,-1.1873,-1.1869,-1.1104,-0.9986,-1.0854,-1.1207,-1.1301,-1.2167,-1.2521,0.0,0.0,0.0,0.0,0.0,0.0,0.0,-1.2053,-1.2287,-1.2666,-1.3216,-1.3726,-1.4316,-1.5095,-1.5892,0.0,0.0,-2.1353,-2.4225,-2.6367,-2.694,-2.6977,-2.6921,-2.7459,-2.7651,-2.6755,-2.7159,-2.7621,-2.7621,-2.7775,-2.8093,-2.8623,-2.7834,-2.715,-2.7024,-2.6313,-2.5793,-2.5591,-2.5572,-2.5495,-2.5303,-2.5303,-2.5303,-2.5303,-2.5476,-2.5572,-2.5572,-2.5572,-2.5572,-2.5572,-2.538,-2.5274,-2.5224,-2.5111,-2.5022,-2.4949,-2.4911,-2.4836,-2.4731,-2.4731,-2.4732,-2.4828,-2.5564,-2.5529,-2.5107,-2.5993,-2.5949,-2.5352,-2.5213,-2.5016,-2.4785,0.0,0.0,0.0,0.0,0.0,0.0,0.0,0.0,0.0,0.0,0.0,0.0,0.0,0.0,0.0,0.0,0.0,0.0,0.0,0.0,0.0,0.0,-0.9408,-0.9808,-1.019,-1.0202,-1.0173,-1.0094,0.0,0.0,0.0,0.0,0.0,-1.247,0.0,-1.2626,-1.1777,-1.1738,-1.1021,-0.998,-1.0848,-1.1225,-1.1342,-1.2217,-1.2559,-1.2561,-1.2204,0.0,0.0,0.0,0.0,0.0,0.0,0.0,-1.3249,-1.3877,-1.4265,-1.4565,-1.4938,0.0,0.0,-1.9135,0.0,-2.2957,-2.5108,-2.5553,-2.5582,-2.5909,-2.6669,-2.7005,-2.614,-2.6351,-2.6659,-2.6659,-2.6659,-2.6755,-2.7035,-2.6573,-2.6178,-2.6178,-2.5717,-2.537,-2.5303,-2.537,-2.537,-2.5303,-2.5303,-2.5303,-2.5303,-2.5303,-2.5303,-2.5303,-2.5303,-2.5303,-2.5303,-2.5303,-2.5303,-2.5303,-2.5184,-2.5152,-2.5141,-2.4981,-2.4904,-2.4891,-2.4727,-2.4591,-2.4549,-2.5059,-2.5032,-2.4707,-2.5359,-2.5317,-2.4891,-2.4904,-2.4723,-2.4495,0.0,0.0,0.0,0.0,0.0,0.0,0.0,0.0,0.0,0.0,0.0,0.0,0.0,0.0,0.0,0.0,0.0,0.0,0.0,0.0,0.0,0.0,-0.9813,-1.0256,-1.0207,-1.0194,-1.0161,-1.0097,0.0,0.0,0.0,0.0,0.0,-1.2724,0.0,-1.2373,-1.1551,-1.148,-1.1026,-1.042,-1.1276,-1.1667,-1.1815,-1.2668,-1.3005,-1.2951,-1.2281,-1.2526,-1.303,-1.2384,0.0,0.0,0.0,0.0,-1.3885,-1.4682,-1.4905,-1.4922,-1.5062,0.0,-1.7279,-1.9607,-2.0386,0.0,-2.3268,-2.386,-2.4168,-2.4947,-2.5774,-2.6159,-2.5418,-2.5303,-2.5303,-2.5303,-2.5303,-2.5303,-2.5303,-2.5322,-2.5322,-2.5322,-2.5447,-2.5467,-2.535,-2.5409,-2.5447,-2.5322,-2.5303,-2.5303,-2.5303,-2.5111,-2.5091,-2.5284,-2.5178,-2.5149,-2.5303,-2.5303,-2.5303,-2.5303,-2.5149,-2.5101,-2.5091,-2.4765,-2.4758,-2.4967,-2.4678,-2.4543,-2.4543,-2.4575,-2.4666,-2.4799,-2.4949,-2.4955,-2.4898,-2.4785,-2.4623,-2.4409,0.0,0.0,0.0,0.0,0.0,0.0,0.0,0.0,0.0,0.0,0.0,0.0,0.0,0.0,0.0,0.0,0.0,0.0,-1.0125,0.0,0.0,-0.8941,-0.9756,-1.0202,-1.0202,-1.0208,-1.0166,0.0,0.0,0.0,0.0,0.0,0.0,-1.3653,0.0,0.0,-1.3349,-1.3331,-1.2848,-1.2132,-1.2949,-1.335,-1.355,-1.43,-1.4673,-1.4763,-1.471,-1.4778,-1.4854,-1.4814,-1.4839,0.0,0.0,0.0,-1.4027,-1.4775,-1.4545,-1.4203,0.0,0.0,-1.7889,0.0,-2.0311,-2.1467,0.0,0.0,-2.3225,0.0,-2.4909,-2.5437,-2.5322,-2.5303,-2.5303,-2.5303,-2.5303,-2.5303,-2.5303,-2.5409,-2.5466,-2.5466,-2.5543,-2.555,-2.549,-2.5437,-2.5409,-2.539,-2.5322,-2.5303,-2.5303,-2.4361,-2.4284,-2.5264,-2.462,-2.4582,-2.5284,-2.5303,-2.5303,-2.5284,-2.4582,-2.4264,-2.4255,-2.4033,-2.4307,-2.4998,-2.4842,-2.476,-2.4775,-2.4904,-2.4891,-2.4799,-2.4949,-2.4818,-2.4575,-2.4561,-2.441,-2.4247,0.0,0.0,0.0,0.0,0.0,0.0,0.0,0.0,0.0,0.0,0.0,0.0,0.0,0.0,0.0,-1.0141,-1.0207,-1.0046,-0.955,-0.9529,-0.9339,-0.8927,-0.9746,-1.0194,-1.0194,-1.0166,-1.0101,0.0,0.0,0.0,0.0,-1.3436,-1.4093,0.0,0.0,0.0,0.0,-1.4225,-1.3637,-1.2437,-1.2839,-1.3047,-1.3163,-1.3446,-1.3647,-1.3753,-1.3783,-1.4116,-1.4545,-1.4601,-1.4876,-1.5192,-1.5168,0.0,0.0,0.0,-1.4876,0.0,-1.512,-1.5761,-1.6546,0.0,-1.8172,-1.9081,-2.0531,0.0,-2.1773,-2.3109,-2.3639,-2.4197,-2.513,-2.5303,-2.5303,-2.5303,-2.5303,-2.5303,-2.5303,-2.4832,-2.4495,-2.4495,-2.4053,-2.3846,-2.4083,-2.4404,-2.4566,-2.4466,-2.4428,-2.4668,-2.5274,-2.4408,-2.4024,-2.4341,-2.4178,-2.4264,-2.462,-2.462,-2.437,-2.3889,-2.3543,-2.3379,-2.337,-2.3673,-2.3928,-2.4182,-2.4606,-2.4731,-2.4654,-2.4898,-2.4962,-2.493,-2.4974,-2.4858,-2.4654,-2.4545,-2.4375,-2.419,0.0,0.0,0.0,0.0,0.0,0.0,0.0,0.0,0.0,0.0,0.0,0.0,0.0,0.0,0.0,0.0,-1.0183,-0.9931,-0.9264,-0.9254,-0.9259,-0.9218,-0.9835,-1.0167,-1.017,-1.0116,0.0,0.0,0.0,0.0,-1.2217,-1.3353,-1.4207,0.0,-1.5649,0.0,0.0,0.0,0.0,0.0,0.0,0.0,0.0,0.0,-1.3917,-1.3976,-1.3756,-1.4116,-1.4632,-1.4487,-1.481,-1.5255,-1.5226,-1.5245,0.0,0.0,0.0,0.0,0.0,0.0,-1.5381,-1.6024,-1.6345,-1.7003,0.0,0.0,-2.0389,0.0,-2.2331,-2.2928,-2.4389,-2.4659,-2.4659,-2.4659,-2.4659,-2.4659,-2.4659,-2.4005,-2.3525,-2.3521,-2.2925,-2.2669,-2.3019,-2.3487,-2.3714,-2.356,-2.351,-2.388,-2.4848,-2.3773,-2.3216,-2.3389,-2.3408,-2.361,-2.3975,-2.3841,-2.3437,-2.2793,-2.2581,-2.2457,-2.2441,-2.2944,-2.3031,-2.2896,-2.4228,-2.4716,-2.4591,-2.4885,-2.501,-2.501,-2.501,-2.4891,-2.47,-2.4561,-2.4375,-2.419,0.0,0.0,0.0,0.0,0.0,0.0,0.0,0.0,0.0,0.0,0.0,0.0,0.0,-0.951,-1.0105,-1.0096,-1.0163,-1.0176,-1.0147,-1.0088,-1.0035,-1.004,-1.0085,0.0,-1.0121,-1.0039,0.0,0.0,0.0,0.0,-1.1403,-1.3048,-1.387,-1.3997,-1.4868,-1.5171,-1.5035,0.0,0.0,0.0,0.0,0.0,0.0,0.0,0.0,0.0,0.0,-1.6428,-1.6359,-1.5585,-1.5365,-1.5387,-1.531,-1.5349,-1.5213,0.0,0.0,0.0,0.0,-1.4665,0.0,-1.5356,-1.5932,0.0,0.0,0.0,-1.9323,-2.0227,-2.1043,-2.185,-2.2754,-2.2928,-2.2928,-2.2928,-2.2928,-2.2928,-2.2928,-2.2997,-2.3041,-2.3051,-2.3118,-2.3163,-2.3183,-2.3164,-2.3144,-2.3124,-2.2949,-2.3109,-2.3755,-2.169,-2.121,-2.2793,-2.2062,-2.2282,-2.3608,-2.3109,-2.2831,-2.2793,-2.1966,-2.1501,-2.1377,-2.1405,-2.1259,-2.1082,-2.3681,-2.479,-2.4804,-2.4937,-2.501,-2.501,-2.501,-2.4804,-2.4512,-2.4512,-2.4375,-2.419,0.0,0.0,0.0,0.0,0.0,0.0,0.0,0.0,0.0,0.0,0.0,0.0,0.0,-0.9825,-1.0074,-1.0164,-1.0228,-1.0249,-1.0202,-1.0186,-1.0137,-1.0106,-1.0089,-1.0091,-1.0091,-1.0,0.0,0.0,0.0,-1.1021,-1.2085,-1.2741,-1.3912,-1.5536,-1.642,-1.6471,-1.601,-1.7177,0.0,0.0,0.0,0.0,0.0,0.0,0.0,0.0,0.0,0.0,-1.6411,-1.5991,-1.5555,-1.5281,-1.5788,-1.5689,0.0,0.0,0.0,0.0,0.0,0.0,0.0,-1.6047,-1.6378,-1.6852,-1.7987,-1.8153,-1.8371,-1.9331,-1.9657,-1.9882,-2.0292,-2.1705,-2.2793,-2.2793,-2.2793,-2.2812,-2.2852,-2.245,-2.2171,-2.2211,-2.1825,-2.1523,-2.1523,-2.1504,-2.1504,-2.1504,-2.1877,-2.1933,-2.1551,-2.1438,-2.1677,-2.2263,-2.1257,-2.1218,-2.2244,-2.1543,-2.1196,-2.1196,-2.0889,-2.0691,-2.0668,-2.1194,-2.1301,-2.1159,-2.2795,-2.3693,-2.3944,-2.3689,-2.4225,-2.5124,-2.4353,-2.4313,-2.4654,-2.441,-2.4247,-2.419,0.0,0.0,0.0,0.0,0.0,0.0,0.0,0.0,0.0,0.0,0.0,0.0,0.0,0.0,-1.0075,-1.0183,-1.0254,-1.0273,-1.0206,-1.019,-1.0171,-1.0102,-1.0097,-1.0091,-1.0078,-0.9979,0.0,0.0,0.0,0.0,0.0,-1.2309,-1.3478,-1.5159,-1.6612,-1.7093,0.0,0.0,0.0,-1.6932,0.0,0.0,-1.7469,0.0,0.0,0.0,0.0,0.0,0.0,-1.5517,-1.5421,-1.5655,-1.6169,0.0,0.0,0.0,0.0,0.0,-1.4952,0.0,0.0,0.0,0.0,-1.735,-1.8504,0.0,-1.787,-1.8525,-1.8535,-1.8559,-1.8927,-2.0377,-2.1628,-2.1908,-2.1966,-2.1985,-2.2026,-2.1622,-2.1317,-2.1358,-2.0908,-2.0488,-2.0195,-2.043,-2.0488,-2.0195,-2.0867,0.0,-2.0377,-2.1031,-2.1435,-2.1435,-2.068,-2.0565,-2.11,-2.0581,-2.0312,-2.0312,-2.0312,-2.0249,-2.0216,-2.0762,-2.0891,-2.0777,-2.1531,-2.2361,-2.3152,-2.2901,-2.3466,-2.4399,-2.3821,-2.3906,-2.435,-2.4316,-2.4266,-2.419,0.0,0.0,0.0,0.0,0.0,0.0,0.0,0.0,0.0,0.0,0.0,0.0,0.0,0.0,0.0,-1.0202,-1.0271,-1.0298,-1.021,-1.0197,-1.0167,-1.0101,-1.0097,-1.0067,-0.9995,-1.0005,0.0,0.0,0.0,0.0,0.0,0.0,-1.2585,-1.268,-1.5255,-1.6901,-1.7658,0.0,-1.7101,-1.7817,0.0,-1.8393,-1.9124,0.0,0.0,0.0,-1.6122,-1.5652,0.0,-1.4322,0.0,0.0,0.0,0.0,0.0,0.0,0.0,0.0,0.0,0.0,0.0,0.0,0.0,0.0,-1.7932,0.0,-1.7816,-1.7771,-1.7733,-1.7953,-1.8761,-1.8953,-1.9242,-2.01,-2.0273,-2.0312,-2.0312,-2.0427,-2.0493,-2.05,-2.0536,-2.0215,-1.9375,-2.0039,-2.0156,-1.9316,-1.9987,-2.039,-2.0339,-2.0285,-2.0246,-2.0246,-2.0285,-2.0312,-2.0312,-2.0312,-2.0312,-2.0312,-2.0312,-2.0197,-2.0012,-2.0012,-1.9943,-1.9813,-1.9953,-2.0937,-2.2462,-2.2642,-2.2754,-2.2861,-2.3479,-2.3601,-2.3559,-2.4206,-2.432,-2.4171,0.0,0.0,0.0,0.0,0.0,0.0,0.0,0.0,0.0,0.0,0.0,0.0,0.0,0.0,-1.0875,-1.0247,-1.0798,-1.0915,-1.03,-1.0232,-1.0186,-1.017,-1.0137,-1.0091,-1.0078,-0.9971,-0.9944,0.0,0.0,0.0,0.0,0.0,0.0,0.0,-1.5818,-1.6914,-1.7767,-1.754,0.0,-1.7863,-1.7838,-1.7617,0.0,0.0,0.0,0.0,0.0,-1.6125,-1.6108,0.0,-1.5731,-1.6318,0.0,0.0,0.0,0.0,0.0,0.0,-1.5214,0.0,0.0,0.0,0.0,0.0,0.0,0.0,-1.8319,-1.7103,-1.7263,-1.7541,-1.7253,-1.7676,-1.8157,-1.8443,-1.9515,-2.0331,-2.0427,-2.0485,-2.0515,-2.057,-1.9859,-1.9355,-1.9297,-1.8555,-1.8144,0.0,-1.8511,-1.8607,-1.8586,-1.8939,-1.9139,-1.9139,-1.9892,-2.0312,-2.0312,-2.0312,-2.0312,-2.0312,-2.0312,-2.0277,-2.0225,-2.0225,-2.0188,-2.0162,-2.0197,-2.0474,-2.0907,-2.0968,-2.1716,-2.2737,-2.2034,-2.2117,-2.2698,-2.3206,-2.3382,-2.3419,0.0,0.0,0.0,0.0,0.0,0.0,0.0,0.0,0.0,0.0,0.0,0.0,0.0,0.0,0.0,-1.032,-1.1034,-1.1189,-1.0349,-1.0243,-1.02,-1.0205,-1.0166,-1.0125,-1.0105,-1.0011,-1.001,0.0,0.0,0.0,0.0,0.0,0.0,0.0,0.0,0.0,0.0,0.0,0.0,0.0,-1.7843,0.0,0.0,-1.7845,-1.7552,0.0,0.0,0.0,-1.5508,-1.5046,-1.5431,0.0,0.0,0.0,0.0,0.0,0.0,0.0,0.0,0.0,0.0,0.0,0.0,0.0,-1.9746,-1.9394,-1.8763,0.0,-1.7553,-1.7481,-1.6842,-1.7577,-1.8305,-1.8377,-1.9211,-1.9733,-1.9452,-1.9439,-1.9468,-1.9511,-1.8926,-1.8437,-1.8242,-1.7773,-1.7461,-1.7461,-1.7961,-1.847,-1.8872,-1.8313,-1.778,-1.7343,-1.8831,-1.9692,-1.9796,-2.0131,-2.0312,-2.0312,-2.0312,-2.0312,-2.0312,-2.0312,-2.0312,-2.0312,-2.0312,-2.0312,-2.0312,-2.0312,-2.0889,-2.1709,-2.121,-2.1306,-2.187,-2.2695,-2.2997,-2.3125,0.0,0.0,0.0,0.0,0.0,0.0,0.0,0.0,0.0,0.0,0.0,0.0,0.0,0.0,0.0,0.0,-1.123,-1.1321,-1.0368,-1.0332,-1.0309,-1.0202,-1.0293,-1.0266,-1.0104,-1.0189,-1.02,0.0,0.0,0.0,0.0,0.0,0.0,0.0,0.0,0.0,0.0,0.0,0.0,-1.7655,-1.7621,-1.8067,0.0,0.0,-1.7571,-1.699,-1.4763,-1.4289,-1.4654,-1.4126,-1.49,0.0,0.0,0.0,0.0,0.0,-1.8599,0.0,0.0,0.0,0.0,0.0,0.0,0.0,-2.0372,-1.9753,-1.9066,0.0,-1.8027,-1.7519,-1.7035,-1.7882,-1.8714,-1.8871,-1.884,-1.8567,-1.7983,-1.7956,-1.8008,-1.8008,-1.791,-1.7559,-1.6777,-1.7305,-1.7383,-1.6602,-1.7715,-1.8803,-1.9705,-1.7897,-1.6386,-1.5426,-1.7321,-1.8612,-1.9235,-1.9931,-2.0312,-2.0312,-2.0312,-2.0312,-2.0312,-2.0312,-2.0312,-2.0312,-2.0312,-2.0312,-2.0312,-2.0312,-2.0312,-2.0345,-2.0725,-2.0872,-2.101,-2.2253,-2.2795,-2.2978,-0.9043,0.0,0.0,0.0,0.0,0.0,0.0,0.0,0.0,0.0,0.0,0.0,0.0,0.0,0.0,0.0,-1.2082,-1.1914,-1.0406,-1.0887,-1.0925,-1.0238,-1.0815,-1.0829,-1.0121,-1.0782,-1.0803,0.0,0.0,0.0,0.0,0.0,0.0,0.0,0.0,0.0,0.0,0.0,0.0,-1.6764,-1.6029,0.0,-1.5997,-1.6846,-1.6116,-1.4676,-1.4857,-1.4934,-1.5128,-1.6386,-1.6583,-1.6532,0.0,0.0,0.0,-1.7323,0.0,0.0,0.0,0.0,0.0,0.0,0.0,0.0,-1.9561,-1.9286,-1.8773,0.0,-1.689,-1.6782,-1.6629,-1.6248,-1.6191,-1.6913,-1.6483,-1.6509,-1.7806,-1.7988,-1.8008,-1.8008,-1.7383,-1.6894,-1.6719,-1.6211,-1.584,-1.5664,-1.5918,-1.6152,-1.6344,-1.5953,-1.5621,-1.5406,-1.5829,-1.7345,-2.0035,-2.0227,-2.0312,-2.0312,-2.0312,-2.0312,-2.0312,-2.0312,-2.0312,-2.0312,-2.0312,-2.0312,-2.0312,-2.0312,-2.0312,-2.0288,-2.0091,-2.0035,-2.0101,-2.0754,-2.1437,-2.2152,-0.9139,0.0,0.0,0.0,0.0,0.0,0.0,0.0,0.0,0.0,0.0,0.0,0.0,0.0,0.0,0.0,0.0,0.0,0.0,0.0,-1.13,-1.0821,-1.0808,-1.0787,-1.0741,-1.118,-1.1378,0.0,0.0,0.0,0.0,0.0,0.0,0.0,0.0,0.0,0.0,0.0,-1.5575,-1.6343,-1.6174,0.0,-1.6535,-1.6868,-1.6249,-1.5206,-1.5207,-1.5101,-1.5216,-1.6658,-1.6779,0.0,-1.7792,-1.8918,-1.9586,0.0,-1.976,-2.083,0.0,0.0,0.0,-1.992,0.0,0.0,0.0,-1.9745,-1.9338,-1.7888,-1.8049,-1.8278,-1.7699,-1.7702,-1.7514,-1.6689,-1.6914,-1.7212,-1.7283,-1.6578,-1.6211,-1.6641,-1.5937,-1.5566,-1.6016,-1.5664,-1.5391,-1.5391,-1.5391,-1.5391,-1.5391,-1.5391,-1.5664,-1.623,-1.6211,-1.7283,-1.9521,-2.0041,-2.0312,-2.0312,-2.0312,-2.0312,-2.0312,-2.0312,-2.0312,-2.0312,-2.0312,-2.0312,-2.0312,-2.0312,-2.0312,-2.0269,-1.992,-1.9762,-1.9763,-2.0302,-2.0794,-2.1272,-0.9304,0.0,0.0,0.0,0.0,0.0,0.0,0.0,0.0,0.0,0.0,0.0,0.0,0.0,0.0,0.0,0.0,0.0,0.0,0.0,0.0,-1.1925,-1.1262,-1.1142,-1.1641,-1.1795,-1.2113,0.0,0.0,0.0,0.0,0.0,0.0,0.0,0.0,0.0,0.0,0.0,0.0,-1.657,0.0,-1.7361,-1.7747,-1.7194,-1.6779,-1.6387,-1.5513,-1.5133,-1.521,-1.6288,-1.6363,-1.6287,-1.7922,-1.9196,0.0,0.0,0.0,0.0,0.0,0.0,0.0,0.0,0.0,-2.039,0.0,0.0,0.0,-1.8943,-1.9317,-1.9593,0.0,0.0,0.0,-1.7111,0.0,0.0,0.0,-1.5037,0.0,-1.5505,-1.5017,-1.4803,-1.5351,-1.5254,-1.5215,-1.5391,-1.5234,-1.5215,-1.5391,-1.5391,-1.5977,-1.7227,-1.7559,-1.8158,-1.9143,-1.9948,-2.0331,-2.0331,-2.0312,-2.0312,-2.0312,-2.0312,-2.0312,-2.0312,-2.0312,-2.0312,-2.0312,-2.0312,-2.0277,-2.0205,-1.992,-1.9726,-1.9684,-2.0102,-2.0356,-2.0594,-0.9577,-0.9659,0.0,0.0,0.0,0.0,0.0,0.0,0.0,0.0,0.0,0.0,0.0,0.0,0.0,0.0,0.0,0.0,-1.3953,0.0,0.0,0.0,-1.3594,-1.319,-1.256,-1.3256,-1.3286,0.0,0.0,0.0,0.0,0.0,0.0,0.0,-1.5206,0.0,0.0,0.0,-1.6926,0.0,-1.7499,-1.7339,0.0,-1.7048,-1.674,-1.6398,-1.5515,-1.5189,-1.5322,0.0,-1.5974,-1.5617,0.0,-1.8516,-1.9235,-1.9259,0.0,0.0,0.0,0.0,0.0,0.0,-2.0314,0.0,0.0,0.0,-1.9107,-1.8994,0.0,-1.8182,0.0,0.0,0.0,0.0,0.0,0.0,-1.538,-1.4574,-1.4624,-1.6275,-1.6372,-1.6079,-1.5468,-1.4707,-1.457,-1.5332,-1.4687,-1.457,-1.5352,-1.5391,-1.6172,-1.7832,-1.9394,-2.0254,-2.0389,-2.0457,-2.0446,-2.0389,-2.0331,-2.0312,-2.0312,-2.0312,-2.0312,-2.0312,-2.0312,-2.0312,-2.0312,-2.0312,-2.0197,-2.0012,-1.9858,-1.9797,-1.975,-1.953,-1.9895,-2.0503,-0.9738,-0.9797,0.0,0.0,0.0,0.0,0.0,0.0,0.0,0.0,0.0,0.0,0.0,0.0,0.0,0.0,0.0,-1.6295,0.0,0.0,0.0,0.0,-1.3742,-1.339,-1.3785,-1.3901,-1.4017,-1.4115,-1.4472,0.0,0.0,0.0,0.0,0.0,-1.5196,0.0,-1.5785,0.0,-1.7337,0.0,0.0,0.0,0.0,-1.8723,-1.7634,-1.57,-1.5334,-1.5189,-1.5259,0.0,-1.5844,0.0,0.0,0.0,0.0,-1.9056,0.0,0.0,0.0,0.0,0.0,0.0,0.0,0.0,-2.03,0.0,-1.97,0.0,0.0,0.0,0.0,0.0,0.0,0.0,-1.6458,0.0,0.0,0.0,-1.5715,0.0,0.0,0.0,-1.5272,-1.4923,-1.4594,-1.4376,-1.4586,-1.4902,-1.5312,-1.5371,-1.6191,-1.7949,-1.9043,-1.9922,-2.0586,-2.0523,-2.0472,-2.0399,-2.033,-2.0312,-2.0312,-2.0312,-2.0312,-2.0312,-2.0312,-2.0312,-2.0312,-2.0312,-2.0241,-2.0152,-1.9973,-1.9813,-1.9669,-1.9541,-1.9616,-1.9819,-1.0286,0.0,0.0,0.0,0.0,0.0,0.0,0.0,0.0,0.0,0.0,0.0,-1.6919,-1.7652,0.0,0.0,-1.6911,-1.6705,0.0,0.0,-1.5023,0.0,0.0,0.0,0.0,-1.4706,-1.4833,-1.5551,0.0,0.0,0.0,0.0,0.0,0.0,0.0,-1.5394,-1.5732,0.0,-1.7548,-1.7509,-1.846,-1.8703,-1.8423,-1.7879,-1.6641,-1.5189,-1.5189,-1.5189,-1.5189,-1.5189,-1.5613,0.0,-1.6746,-1.7572,-1.8464,0.0,0.0,0.0,-1.8925,0.0,0.0,0.0,0.0,0.0,0.0,0.0,0.0,0.0,0.0,0.0,0.0,0.0,0.0,0.0,0.0,-1.673,0.0,-1.5994,0.0,0.0,0.0,0.0,0.0,-1.488,-1.4536,-1.4009,-1.4516,-1.4963,-1.5254,-1.5332,-1.5957,-1.7246,-1.7949,-1.8926,-2.0234,-2.0184,-2.0224,-2.0405,-2.032,-2.0312,-2.0312,-2.0312,-2.0312,-2.0312,-2.0312,-2.0312,-2.0312,-2.0312,-2.0312,-2.0285,-2.0143,-1.9941,-1.9707,-1.9623,-1.9513,-1.9394,-1.1445,-1.1458,0.0,0.0,0.0,0.0,0.0,0.0,0.0,0.0,0.0,0.0,0.0,0.0,0.0,0.0,0.0,-1.7111,-1.6276,0.0,-1.7099,0.0,0.0,-1.6772,0.0,0.0,-1.5972,0.0,0.0,0.0,0.0,0.0,0.0,0.0,0.0,-1.5771,-1.6581,-1.6689,-1.7698,-1.9225,-1.9261,-1.9046,-1.8092,0.0,-1.2472,-1.5189,-1.5189,0.0,0.0,-1.5189,-1.5214,0.0,0.0,0.0,0.0,0.0,0.0,0.0,0.0,0.0,0.0,-1.8038,0.0,0.0,0.0,0.0,-2.0201,0.0,0.0,0.0,0.0,0.0,0.0,0.0,0.0,0.0,0.0,0.0,0.0,0.0,0.0,0.0,0.0,-1.4252,-1.4155,-1.4897,-1.4338,-1.431,-1.5156,-1.5273,-1.5352,-1.5488,-1.6328,-1.7598,-1.9316,-1.9274,-1.9626,-2.0406,-2.0321,-2.0312,-2.0312,-2.0312,-2.0312,-2.0312,-2.0312,-2.0312,-2.0312,-2.0312,-2.0312,-2.0312,-2.0285,-2.0161,-1.9963,-1.9695,-1.9601,-1.9582,0.0,0.0,0.0,0.0,0.0,0.0,0.0,-1.4434,0.0,0.0,-1.7066,0.0,0.0,-1.9114,-1.9094,0.0,0.0,-1.7031,-1.6435,-1.6453,0.0,0.0,0.0,-1.7336,0.0,0.0,0.0,0.0,0.0,0.0,0.0,0.0,0.0,0.0,0.0,-1.5453,0.0,0.0,0.0,0.0,0.0,-1.7985,-1.869,0.0,-0.4157,-0.5578,-0.8967,-1.0179,0.0,-1.1445,-1.1825,-1.2305,-1.4984,-1.6141,-1.6618,-1.7265,-1.7617,-1.7804,0.0,0.0,-1.9066,-1.8786,0.0,0.0,0.0,0.0,0.0,0.0,0.0,0.0,0.0,0.0,0.0,0.0,0.0,0.0,0.0,0.0,0.0,0.0,0.0,0.0,0.0,0.0,-1.4571,-1.4851,-1.4724,-1.4782,-1.5127,-1.5286,-1.5371,-1.5391,-1.625,-1.7539,-1.9277,-1.9225,-1.9588,-2.0405,-2.0323,-2.0312,-2.0312,-2.0312,-2.0312,-2.0312,-2.0312,-2.0312,-2.0312,-2.0312,-2.0312,-2.0312,-2.0312,-2.0269,-2.0161,-1.9952,-1.9802,-1.9738,-1.317,0.0,0.0,0.0,0.0,0.0,0.0,0.0,0.0,0.0,-1.7436,0.0,-1.922,0.0,-1.9131,0.0,-1.7644,-1.6953,-1.6671,-1.6467,0.0,-1.6781,-1.7014,-1.736,0.0,0.0,0.0,0.0,0.0,-1.6801,0.0,0.0,0.0,0.0,0.0,-1.5298,-1.5237,-1.429,-1.375,0.0,0.0,-1.8514,0.0,0.0,-0.4275,-0.0423,0.0,-0.4889,-0.5063,-0.6136,-0.8921,-1.2349,-1.4599,-1.5652,-1.6191,-1.6872,-1.7219,-1.7497,-1.7844,-1.855,0.0,-1.8845,-1.9555,0.0,-1.9526,0.0,-1.9039,0.0,0.0,0.0,0.0,0.0,0.0,0.0,0.0,0.0,0.0,-1.4776,0.0,0.0,0.0,0.0,0.0,-1.4755,-1.4813,-1.4832,-1.4938,-1.5014,-1.506,-1.5233,-1.5637,-1.6309,-1.6562,-1.7534,-1.9256,-1.8906,-1.9291,-2.0369,-2.0004,-2.0004,-2.0312,-2.0312,-2.0312,-2.0312,-2.0312,-2.0312,-2.0312,-2.0312,-2.0312,-2.0312,-2.0312,-2.0312,-2.0277,-2.0069,-1.9953,-1.989,-1.4053,0.0,0.0,0.0,-1.4605,0.0,0.0,0.0,-1.6651,0.0,-1.8285,-1.9192,-2.0929,-1.9511,-1.8665,-1.9191,-1.7839,-1.6945,-1.6908,-1.7071,0.0,0.0,-1.6465,-1.6972,-1.7211,0.0,0.0,0.0,0.0,0.0,0.0,0.0,0.0,0.0,-1.5683,0.0,-1.4999,-1.0202,-1.2554,-1.9532,-2.0158,-2.0449,-2.0494,-2.057,-1.2453,-0.0937,-0.0254,0.0,0.0,0.0,-0.6701,-1.5091,-1.5317,-1.5405,-1.5753,-1.7414,-1.7356,-1.6948,-1.7826,-1.8613,-1.9023,-1.8301,-1.927,0.0,0.0,0.0,-1.9092,0.0,0.0,0.0,0.0,0.0,0.0,0.0,0.0,0.0,0.0,0.0,-1.4804,0.0,0.0,0.0,0.0,-1.4729,-1.4776,-1.484,-1.4898,-1.4954,0.0,-1.5133,-1.6022,-1.7812,-1.7187,-1.756,-1.912,-1.8314,-1.8707,-2.0292,-1.9377,-1.9396,-2.0235,-2.0235,-2.0235,-2.0235,-2.0292,-2.0312,-2.0312,-2.0312,-2.0273,-2.0235,-2.0235,-2.0235,-2.0219,-2.0078,-2.0022,-2.0022,-1.4783,-1.4816,-1.4747,0.0,-1.4449,-1.4588,0.0,0.0,0.0,0.0,-1.8047,-1.824,-1.9835,-1.9455,-1.8896,-1.846,-1.8041,0.0,0.0,0.0,0.0,-1.6597,-1.7344,-1.7583,-1.7211,-1.7862,-1.8452,-1.8979,0.0,0.0,-1.8907,0.0,0.0,0.0,0.0,0.0,-1.5345,-1.4872,-1.1033,-0.6155,-1.6374,-2.0443,-2.0434,0.0,-1.8407,-1.3976,-0.3689,0.0,0.0,0.0,-0.5167,-1.2171,-1.5574,-1.6902,-1.7326,-1.783,-1.7833,-1.7861,-1.873,-1.9121,-1.9375,-1.9824,-2.0174,-2.0282,0.0,0.0,0.0,0.0,0.0,0.0,0.0,0.0,0.0,0.0,0.0,0.0,0.0,0.0,0.0,-1.4804,0.0,0.0,-1.486,-1.4287,-1.3921,-1.3925,-1.4039,-1.4375,-1.4966,0.0,-1.5514,-1.6055,-1.7539,-1.8303,-1.8225,-1.7998,-1.8712,-2.0292,-1.8754,-1.8491,-1.9338,-1.9331,-1.9331,-1.9377,-2.0023,-2.0312,-2.0312,-2.0312,-1.9927,-1.9338,-1.9323,-1.9323,-1.9419,-2.0011,-2.0214,-2.0214,-1.5129,0.0,0.0,-1.443,0.0,0.0,-1.6021,-1.6685,0.0,-1.8982,-1.8795,0.0,-2.0051,-1.9648,-1.9106,-1.8665,-1.861,0.0,-1.7986,0.0,0.0,-1.6927,-1.733,-1.7259,-1.656,-1.7747,0.0,-1.8871,0.0,0.0,-1.9227,0.0,0.0,0.0,0.0,-1.5402,-1.5485,-1.6896,-1.4199,-0.9104,-1.0841,-1.5109,0.0,-2.05,-2.0547,-1.9579,-1.1795,-0.5117,-0.0918,-0.6973,-0.959,-1.119,-1.6283,-1.7904,-1.8039,-1.8455,-1.8574,-1.8769,-1.9629,-1.9863,-1.998,-2.0488,-2.0547,-2.0391,-2.0019,-1.9461,-1.9167,0.0,-1.8835,-1.8203,0.0,0.0,0.0,0.0,0.0,0.0,0.0,0.0,0.0,0.0,-1.4622,0.0,-1.5,-1.452,-1.4068,-1.3705,-1.411,-1.4564,0.0,0.0,-1.4237,-1.2025,-1.5813,-1.7847,-1.7769,-1.7479,-1.7915,-1.906,-1.778,-1.7626,-1.8434,-1.8831,-1.9004,-1.9042,-1.9927,-2.0073,-1.9765,-2.0131,-1.9561,-1.8434,-1.8427,-1.8427,-1.8484,-1.8984,-1.9658,-2.0254,-1.5031,0.0,0.0,0.0,0.0,0.0,0.0,-1.788,0.0,-1.9515,0.0,-2.0091,-2.0669,-1.9866,-1.9305,-1.9305,0.0,-1.9305,-1.9305,-1.8555,-1.7803,-1.7092,-1.6963,-1.656,-1.5876,-1.7334,-1.8306,0.0,0.0,0.0,0.0,0.0,0.0,0.0,0.0,0.0,0.0,-1.7317,-1.896,-1.9312,-0.5529,-0.7146,-1.7998,-1.9746,-1.9355,-1.8136,-1.9941,-1.2891,-0.4395,-1.5508,-1.5859,-1.252,-1.7539,-1.8769,-1.8496,-1.9258,-1.9473,-1.9648,-2.0391,-2.0605,-2.0605,-2.0582,-2.0581,-2.0387,-1.9629,-1.9402,-1.9358,-1.9358,-1.9153,-1.8963,0.0,0.0,0.0,0.0,0.0,0.0,0.0,0.0,0.0,0.0,0.0,0.0,-1.5108,-1.4868,-1.4402,-1.3704,-1.4456,-1.4846,-1.4609,0.0,-1.261,-0.8425,-1.3733,-1.6895,-1.7407,-1.6878,-1.6904,-1.751,-1.6711,-1.6753,-1.7568,-1.8434,-1.8831,-1.8881,-1.9862,-1.9862,-1.9227,-1.9996,-1.935,-1.7856,-1.7741,-1.7702,-1.7702,-1.7702,-1.8734,-2.0023,-1.4067,0.0,0.0,0.0,0.0,-1.8439,-1.8149,-1.7957,-1.8307,-1.964,-1.9126,-1.8929,-1.9738,-1.9504,-1.9305,-1.9305,-1.9305,0.0,0.0,0.0,0.0,-1.7913,-1.7257,-1.6835,-1.6688,-1.7624,-1.8293,0.0,0.0,0.0,0.0,0.0,0.0,0.0,0.0,0.0,-1.6855,-1.7655,0.0,-1.9376,-0.5561,-0.1437,-0.483,-1.6111,-1.3404,-0.5096,-1.6504,-1.9043,-1.6484,-1.3203,-1.5098,-1.8965,-1.998,-2.0234,-2.0176,-2.0332,-2.0371,-2.041,-2.0566,-2.0605,-2.058,-2.0535,-2.0527,-2.0477,-2.0327,-2.0208,-2.0131,-2.0188,-2.0115,-1.9797,-1.8963,0.0,0.0,0.0,0.0,0.0,0.0,0.0,0.0,0.0,0.0,-1.4698,0.0,-1.3844,-1.2959,-1.2823,-1.3621,-1.347,0.0,0.0,-1.1446,0.0,-1.5355,0.0,0.0,0.0,-1.6968,-1.7644,-1.6137,-1.5888,-1.6734,-1.7568,-1.7933,-1.8023,-1.9619,-2.0208,-2.0073,-2.0235,-1.9696,-1.8703,-1.7991,-1.7702,-1.7702,-1.7702,-1.835,-1.9208,-1.4998,0.0,0.0,0.0,0.0,0.0,0.0,-1.8895,-1.9416,-1.9987,-1.9574,-1.9442,-2.0008,-1.9619,-1.9305,-1.9305,-1.9305,-1.9305,-1.9305,-1.8941,-1.8537,-1.8115,-1.8133,-1.7752,-1.6927,-1.8092,-1.872,-1.8711,0.0,0.0,0.0,0.0,0.0,0.0,0.0,-1.6346,0.0,0.0,0.0,-1.9348,-0.5539,0.0,-0.0715,-0.7309,-0.5723,-0.1816,-1.5644,-2.0605,-2.0098,-1.6758,-1.7852,-2.0605,-2.0605,-2.0605,-2.0605,-2.0605,-2.0273,-1.9922,-1.9922,-1.9901,-1.9877,-1.9885,-2.0177,-2.046,-2.0493,-2.0398,-2.0312,-2.035,-2.0331,-1.9876,-1.8427,-1.7098,0.0,0.0,0.0,0.0,0.0,0.0,-1.5191,0.0,0.0,0.0,0.0,0.0,0.0,0.0,0.0,0.0,0.0,0.0,-1.2362,0.0,0.0,0.0,-1.5638,0.0,-1.6056,-1.6291,-1.555,-1.5426,-1.5868,-1.7119,-1.7702,-1.7792,-1.9542,-2.0042,-1.9581,-1.9138,-1.8965,-1.89,-1.7965,-1.7646,-1.7696,-1.7612,-1.7915,-1.833,0.0,-1.6186,0.0,0.0,-1.8014,-1.8896,-1.8821,-1.9785,-2.0418,-2.0061,-1.9957,-2.0009,-2.0211,-1.9675,-1.9305,-1.9305,-1.9305,-1.9305,-1.9305,-1.9335,-1.9074,-1.8448,-1.8878,-1.8647,-1.7538,-1.8509,-1.9025,0.0,0.0,0.0,0.0,0.0,0.0,0.0,0.0,0.0,0.0,0.0,-1.5231,-1.52,-0.4365,0.0,0.0,0.0,-0.1816,-0.5566,-1.4609,-1.9043,-2.0566,-2.0391,-2.0449,-2.0605,-2.0605,-2.0605,-2.0605,-2.0605,-1.998,-1.9297,-1.9272,-1.9126,-1.8996,-1.921,-1.9686,-2.0183,-2.0416,-2.0389,-2.0312,-2.0331,-2.0035,-1.9327,-1.7895,-1.6804,0.0,0.0,0.0,0.0,0.0,0.0,0.0,0.0,0.0,0.0,-1.4213,0.0,0.0,0.0,0.0,0.0,-1.2142,0.0,0.0,0.0,0.0,-1.4467,-1.4965,0.0,-1.52,-1.5039,-1.5144,-1.5189,-1.5266,-1.6946,-1.7702,-1.7792,-1.9542,-1.9908,-1.9223,-1.8542,-1.8657,-1.92,-1.8404,-1.8045,-1.7958,-1.7868,-1.7892,-1.7991,0.0,0.0,0.0,0.0,0.0,-1.9996,-2.0102,-1.9888,-1.9625,-1.9415,-1.9368,-1.9384,-1.9399,-1.9344,-1.9305,-1.9305,-1.9305,-1.9305,-1.9305,-1.9471,-1.955,-1.9457,-1.8938,-1.8926,-1.9529,-1.8601,-1.8722,0.0,0.0,-1.9394,0.0,0.0,0.0,0.0,0.0,0.0,0.0,-1.3831,-0.8246,-0.1812,-0.0526,0.0,0.0,0.0,-0.7773,-1.7812,-1.127,-1.3945,-2.0488,-1.9687,-1.9941,-2.0605,-2.0605,-2.0605,-2.0605,-2.0605,-1.998,-1.9293,-1.923,-1.8676,-1.8266,-1.8952,-1.9176,-1.9401,-2.0149,-2.0312,-2.0331,-2.0389,-1.9123,-1.7963,-1.7727,-1.6335,-1.5169,0.0,0.0,0.0,0.0,0.0,-1.4365,-1.5023,0.0,0.0,-1.3349,-1.4051,-1.3925,-1.2537,-1.347,0.0,0.0,0.0,0.0,-1.2804,-1.422,-1.4742,-1.4211,-1.486,-1.519,-1.5187,-1.5188,-1.5189,-1.5266,-1.6946,-1.7702,-1.7792,-1.9542,-2.0254,-2.0177,-2.01,-2.01,-2.0169,-2.0065,-1.9554,-1.8876,-1.8854,-1.8881,-1.8876,0.0,0.0,0.0,0.0,0.0,0.0,0.0,-2.0458,-2.052,-1.9433,-1.9305,-1.9305,-1.9305,-1.9305,-1.9305,-1.9305,-1.9409,-1.9485,-1.9485,-1.963,-1.9713,-1.9713,-1.9465,-1.9481,-1.979,-1.9409,-1.9497,0.0,0.0,0.0,0.0,0.0,0.0,0.0,0.0,-1.6167,-1.9208,-1.7656,-1.5143,-1.1464,-0.3289,0.0,0.0,0.0,-0.3437,-0.8867,-1.3711,-1.6992,-1.9141,-1.9844,-2.0312,-2.0605,-2.0605,-2.0234,-1.9824,-1.9824,-1.8831,-1.7723,-1.7716,-1.7796,-1.797,-1.8309,-1.9115,-1.989,-2.0231,-2.0312,-2.0312,-2.0331,-1.8989,-1.779,-1.7715,-1.633,-1.5178,-1.5071,0.0,0.0,0.0,0.0,0.0,-1.4022,0.0,-1.2523,-1.4992,-1.4549,-1.4287,-1.4772,0.0,0.0,0.0,0.0,0.0,-1.2151,0.0,-1.4103,-1.3809,-1.4609,-1.5089,-1.5198,-1.5196,-1.5189,-1.5228,-1.6445,-1.7529,-1.853,-1.9223,-1.9812,-2.0312,-2.0312,-2.0312,-2.0277,-2.0079,-1.9906,-1.9758,-1.9554,-1.9619,-1.9773,-2.0916,0.0,-2.0232,0.0,-2.1093,-2.1186,-2.0122,-2.0591,-2.0662,-1.9546,-1.938,-1.9383,-1.9305,-1.9376,-1.9419,-1.938,-1.955,-1.9656,-1.9656,-1.9767,-1.9858,-1.9858,-1.992,0.0,-1.996,-2.004,-2.0105,-2.0157,-2.0352,0.0,0.0,0.0,0.0,0.0,-1.5918,-1.6603,-2.0331,-2.0385,-2.0389,-1.9342,-0.7654,-0.1784,-0.0449,-0.4512,-0.3535,-0.1758,-1.5254,-1.9512,-1.8906,-1.9883,-2.0365,-2.0577,-2.0577,-1.9979,-1.9262,-1.9272,-1.8039,-1.6672,-1.6648,-1.7048,-1.7503,-1.7776,-1.8899,-2.0007,-2.0246,-2.0312,-2.0308,-2.0327,-1.9198,-1.8117,-1.7811,-1.6625,-1.5567,-1.5197,0.0,0.0,0.0,-1.5236,0.0,-1.2496,-1.1542,-1.2361,-1.5799,-1.4883,-1.4501,-1.5509,0.0,0.0,0.0,0.0,0.0,0.0,0.0,0.0,-1.3773,-1.4506,-1.4972,-1.5195,-1.5206,-1.5189,-1.5228,-1.6055,-1.7387,-1.8992,-1.897,-1.9427,-2.0205,-2.0205,-2.0188,-2.0135,-1.9888,-1.9962,-2.0188,-1.9952,-2.0041,-2.0312,-2.311,-2.289,-2.2665,-2.2667,-2.1592,-2.073,-2.0792,-1.9959,-1.9383,-1.9569,-1.9601,-1.9527,-1.932,-1.9593,-1.9738,-1.9609,-1.9713,-1.9809,-1.9809,-1.9914,-2.0012,0.0,0.0,-2.0285,-2.0285,-2.0304,-2.0304,-2.0312,0.0,0.0,-2.0301,0.0,-2.0343,-2.0282,-2.0282,-2.0327,-2.0396,-2.0408,-2.0446,-1.9873,-1.2817,-0.5979,-0.1484,-1.5156,-1.1875,-0.166,-1.4375,-1.9629,-2.0449,-1.9609,-1.9837,-2.0493,-2.0493,-1.9908,-1.9195,-1.9195,-1.7961,-1.659,-1.6521,-1.6567,-1.6784,-1.7523,-1.8412,-1.9319,-2.0131,-2.0312,-2.0325,-2.0385,-1.9747,-1.8916,-1.8068,-1.7183,-1.6289,-1.5359,0.0,0.0,0.0,-1.4166,0.0,-1.0417,-1.181,-1.3516,-1.4888,-1.4993,0.0,0.0,0.0,0.0,0.0,0.0,0.0,-1.4128,-1.4202,0.0,-1.4198,-1.4593,-1.4941,-1.5195,-1.5195,-1.5189,-1.5228,-1.5967,-1.729,-1.8992,-1.886,-1.9267,-1.9993,-1.9993,-1.9933,-1.9821,-1.979,-1.989,-1.9993,-2.0012,-2.0124,-2.0312,-2.3318,-2.3437,-2.3113,-2.2246,-2.2187,-2.1723,-2.0025,-2.01,-2.0158,-1.9657,-1.9762,-1.9813,-1.9657,-1.9731,-1.9767,0.0,-1.9858,-1.9943,0.0,-2.0097,-2.0205,-2.0205,-2.0269,-2.0312,-2.0312,-2.0312,-2.0312,-2.0312,0.0,0.0,0.0,-2.0316,-2.0314,-2.0308,-2.0366,-2.0398,-2.0404,-2.0448,-2.0485,-2.0315,-1.8131,-1.3146,-0.75,-1.1895,-1.3769,-1.457,-1.8613,-2.0293,-2.0545,-2.0223,-2.0289,-2.0485,-2.0389,-1.943,-1.8313,-1.8299,-1.7079,-1.582,-1.6368,-1.6926,-1.7554,-1.8434,-1.9292,-1.9988,-2.0312,-2.0408,-2.0444,-2.0465,-1.9786,-1.8935,-1.8062,-1.7222,-1.6347,-1.5362,-1.5282,0.0,-1.5929,0.0,-1.3749,-1.1396,-1.3207,-1.4984,-1.5863,-1.5421,0.0,0.0,0.0,0.0,0.0,0.0,0.0,0.0,-1.4157,0.0,-1.4067,-1.4608,-1.4979,-1.5189,-1.5189,-1.5189,-1.5228,-1.5926,-1.6875,-1.7996,-1.8412,-1.9082,-1.9869,-1.9869,-1.9836,-1.979,-1.979,-1.989,-2.0003,-1.9901,-2.005,-2.0277,-2.3717,-2.3896,-2.3537,-2.2447,-2.2428,-2.1948,-2.0132,-2.0125,-2.0214,-1.9813,-1.9901,-1.9993,-1.9991,-1.9991,0.0,-1.988,-2.0022,-2.0115,-2.0115,-2.0233,-2.0312,-2.0312,-2.0312,-2.0312,-2.0312,-2.0312,0.0,-2.0312,-2.0302,-2.0295,-2.0295,-2.0292,-2.0311,-2.0334,-2.04,-2.0436,-2.0438,-2.0517,-2.0541,-2.0536,-2.0576,-1.8027,-1.418,-1.418,-1.6855,-2.0605,-2.0605,-2.0605,-2.0583,-2.0514,-2.0485,-2.0446,-2.0369,-1.9408,-1.8344,-1.8313,-1.7324,-1.6336,-1.6824,-1.758,-1.8376,-1.8953,-1.9704,-2.0331,-2.0427,-2.0465,-2.0515,-2.0521,-2.0098,-1.9354,-1.8157,-1.754,-1.6769,-1.5481,-1.5347,-1.5524,-1.5919,0.0,-1.5365,0.0,0.0,0.0,0.0,-1.5459,-1.5329,0.0,0.0,0.0,0.0,0.0,0.0,-1.3489,-1.4254,-1.4568,-1.4341,-1.4705,-1.4998,-1.5189,-1.5189,-1.5177,-1.5146,-1.5844,-1.661,-1.7454,-1.8154,-1.8944,-1.9713,-1.9713,-1.9713,-1.9713,-1.9713,-1.9821,-1.9933,-1.989,-2.0002,-2.0188,-2.419,-2.4153,-2.3859,0.0,-2.2262,-2.15,-2.0819,-2.0094,-1.9732,-1.9973,-2.0012,-2.0087,-2.0277,-2.0312,-2.0214,-2.0031,0.0,0.0,-2.0312,-2.0312,-2.0312,-2.0312,-2.0312,-2.0312,-2.0312,-2.0312,-2.0312,-2.0312,-2.0312,-2.0312,-2.0312,-2.0312,-2.0347,-2.0413,-2.0476,-2.0511,-2.0513,-2.0564,-2.0605,-2.0605,-2.0605,-2.0605,-2.0605,-2.0605,-2.0605,-2.0605,-2.0605,-2.0605,-2.0583,-2.0518,-2.045,-2.0408,-2.0408,-1.9846,-1.9167,-1.9049,-1.8441,-1.7812,-1.7799,-1.8448,-1.9114,-1.9191,-1.9757,-2.0342,-2.0473,-2.0508,-2.0526,-2.0581,-2.0605,-2.0098,-1.8398,-1.8047,-1.7441,-1.5762,-1.5449,-1.5254,-1.4802,-1.6386,-1.6994,0.0,0.0,0.0,-1.5583,-1.5273,-1.514,0.0,0.0,0.0,0.0,0.0,-1.3933,-1.4795,-1.4535,-1.4537,-1.4915,-1.4915,-1.501,-1.5189,-1.5189,-1.5127,-1.5026,-1.5808,-1.6582,-1.7327,-1.8135,-1.8901,-1.9569,-1.9582,-1.9545,-1.9521,-1.9604,-1.967,-1.9749,-1.9925,-2.0012,-2.006,0.0,0.0,-2.3033,-2.2208,-2.1496,-2.0786,-1.9992,-1.9906,-1.9933,-1.9984,-2.0124,-2.0241,-2.0285,-2.0312,-2.0277,-2.0233,-2.0277,-2.0312,-2.0312,-2.0312,-2.0312,-2.0312,-2.0312,-2.0312,-2.0312,-2.0312,-2.0312,-2.0312,-2.0312,-2.0331,-2.0389,-2.0427,-2.045,-2.0488,-2.0549,-2.0588,-2.059,-2.0585,-2.0605,-2.0605,-2.0605,-2.0605,-2.0605,-2.0605,-2.0605,-2.0605,-2.0605,-2.0605,-2.0586,-2.0516,-2.0482,-2.0465,-2.0427,-2.0257,-1.9963,-1.9333,-1.8554,-1.8011,-1.8667,-1.8977,-1.9261,-1.9992,-2.0352,-2.0522,-2.0494,-2.0551,-2.0575,-2.0605,-2.0605,-2.0273,-1.9199,-1.8457,-1.7656,-1.6562,-1.582,-1.4433,-1.168,-1.252,-1.4178,0.0,-1.6627,-1.6646,-1.6412,-1.575,-1.5287,0.0,0.0,-1.5117,-1.4869,-1.4816,-1.4877,-1.509,-1.5034,-1.502,-1.5125,-1.5125,-1.5154,-1.5189,-1.5095,-1.5035,-1.5045,-1.6394,-1.7069,-1.7228,-1.8677,-1.9328,-1.938,-1.9541,-1.921,-1.8683,-1.9579,-1.9542,-1.9116,-1.9764,-2.0106,-2.0205,-2.419,-2.3547,-2.2758,-2.2015,-2.1294,-2.0569,-1.9894,-1.9912,-2.0031,-2.0124,-2.0233,-2.0312,-2.0312,-2.0312,-2.0312,-2.0312,-2.0312,-2.0312,-2.0312,-2.0312,-2.0312,-2.0312,-2.0312,-2.0312,-2.0312,-2.0312,-2.0331,-2.035,-2.036,-2.0379,-2.0446,-2.0485,-2.0521,-2.0558,-2.1007,-2.0977,-2.0625,-2.1035,-2.0957,-2.0605,-2.0605,-2.0605,-2.0605,-2.057,-2.0558,-2.0545,-2.0521,-2.0522,-2.0546,-2.0489,-2.0469,-2.0493,-2.0467,-2.0443,-2.0377,-1.9966,-1.9471,-1.9188,-1.964,-1.9716,-1.9823,-2.032,-2.0519,-2.0583,-2.0558,-2.0564,-2.0605,-2.0605,-2.0605,-2.0332,-1.9453,-1.8906,-1.8223,-1.707,-1.6013,-1.4682,-1.2787,-1.4011,-1.5576,-1.6835,-1.7512,-1.7722,-1.7324,-1.6504,-1.6126,-1.6408,-1.5676,0.0,-1.5555,-1.5286,-1.5113,-1.5113,-1.5168,-1.5189,-1.5189,-1.5599,-1.5792,-1.5811,-1.6036,-1.5918,-1.5535,-1.6753,-1.7026,-1.663,-1.7975,-1.8491,-1.8395,-1.8503,-1.8308,-1.803,-1.9049,-1.9183,-1.8916,-1.9819,-2.0152,-2.0161,-2.41,-2.3437,-2.2659,-2.1968,-2.1204,-2.0533,-2.0068,-2.0022,-2.0106,-2.0277,-2.0312,-2.0312,-2.0312,-2.0312,-2.0312,-2.0312,-2.0312,-2.0312,-2.0312,-2.0312,-2.0312,-2.0312,-2.0312,-2.0312,-2.0312,-2.0438,-2.0535,-2.0608,-2.0737,-2.0836,-2.0907,-2.0907,-2.0923,-2.1016,-2.1758,-2.1602,-2.084,-2.1582,-2.1385,-2.0579,-2.0579,-2.0581,-2.056,-2.0504,-2.0477,-2.0469,-2.0424,-2.0438,-2.0472,-2.0432,-2.0457,-2.0504,-2.0508,-2.0523,-2.053,-2.0573,-2.0561,-2.0508,-2.0449,-2.043,-2.0424,-2.0424,-2.0501,-2.0605,-2.0605,-2.0605,-2.0605,-2.0605,-2.0605,-2.0371,-1.9629,-1.9394,-1.8847,-1.7426,-1.5695,-1.4769,-1.543,0.0,-1.8448,-1.7515,-1.8533,-1.9003,-1.8254,-1.7394,-1.7118,-1.7657,-1.6218,-1.5594,-1.6235,-1.5475,-1.5017,-1.5007,-1.5128,-1.5266,-1.5388,-1.6253,-1.6619,-1.6503,-1.7159,-1.6932,-1.5941,-1.6872,-1.6787,-1.596,-1.7026,-1.7426,-1.7313,-1.7447,-1.7444,-1.7403,-1.8429,-1.8743,-1.878,-1.9896,-2.0197,-2.0069,-2.372,-2.2961,-2.213,-2.1311,-2.0585,-2.0086,-2.0003,-2.0133,-2.0249,-2.0304,-2.0312,-2.0312,-2.0312,-2.0312,-2.0312,-2.0312,-2.0312,-2.0312,-2.0312,-2.0312,-2.0312,-2.0312,-2.0312,-2.0331,-2.0389,-2.1111,-2.1524,-2.1575,-2.2315,-2.2726,-2.2786,-2.2786,-2.2751,-2.2715,-2.291,-2.2519,-2.1719,-2.1836,-2.1355,-2.0521,-2.0521,-2.0482,-2.0429,-2.0418,-2.0423,-2.0416,-2.0407,-2.0417,-2.0417,-2.0477,-2.0486,-2.0504,-2.0566,-2.0589,-2.0597,-2.0603,-2.0582,-2.0579,-2.0564,-2.057,-2.0557,-2.0492,-2.0538,-2.0605,-2.0605,-2.0605,-2.0605,-2.0605,-2.0605,-2.0566,-2.043,-1.9805,-1.8958,-1.7858,-1.3915,-1.2192,-1.5678,0.0,-1.8724,-1.8774,-1.9082,-1.9222,-1.9027,-1.8223,-1.7457,-1.6845,-1.6479,-1.5984,-1.5266,-1.5183,-1.5125,-1.5007,-1.5128,-1.5561,-1.6292,-1.7099,-1.7176,-1.6503,-1.7062,-1.6546,-1.513,-1.6565,-1.6731,-1.599,-1.7681,-1.7977,-1.738,-1.8232,-1.7709,-1.6565,-1.829,-1.852,-1.8059,-1.9708,-2.0277,-2.0269,-2.4252,-2.3167,-2.2212,-2.187,-2.0809,-2.0031,-2.0152,-2.0241,-2.0312,-2.0312,-2.0312,-2.0312,-2.0312,-2.0312,-2.0312,-2.0312,-2.0312,-2.0312,-2.0312,-2.0312,-2.0312,-2.0312,-2.0328,-2.0392,-2.0446,-2.1307,-2.1784,-2.185,-2.2734,-2.3176,-2.3203,-2.3203,-2.3184,-2.3164,-2.3633,-2.3359,-2.2578,-2.3003,-2.2411,-2.1201,-2.1163,-2.086,-2.0456,-2.0875,-2.1053,-2.1034,-2.1004,-2.1012,-2.0974,-2.0536,-2.0412,-2.046,-2.051,-2.0558,-2.0555,-2.0583,-2.0605,-2.0586,-2.0566,-2.057,-2.0588,-2.0518,-2.0546,-2.0723,-2.1191,-2.0937,-2.0723,-2.1191,-2.0937,-2.0605,-2.0605,-2.0273,-1.9795,-1.9194,-1.6829,0.0,-1.7159,-1.8263,-1.898,-1.9123,-1.9584,-1.9892,-1.9904,-1.9081,-1.8388,-1.7979,-1.7041,-1.6301,-1.5822,-1.542,-1.5163,-1.5113,-1.5612,-1.6099,-1.6503,-1.776,-1.8203,-1.7856,-1.8467,-1.7909,-1.6379,-1.7047,-1.6914,-1.614,-1.6586,-1.7047,-1.7515,-1.7543,-1.7329,-1.7145,-1.8482,-1.8754,-1.8549,-1.9831,-2.0312,-2.0312,-2.4106,-2.3,-2.2095,-2.1996,-2.0919,-2.0115,-2.0277,-2.0312,-2.0312,-2.0312,-2.0312,-2.0312,-2.0312,-2.0312,-2.0312,-2.0312,-2.0312,-2.0312,-2.0331,-2.035,-2.035,-2.035,-2.041,-2.0566,-2.0816,-2.1661,-2.2228,-2.248,-2.3144,-2.3574,-2.3789,-2.3574,-2.3594,-2.3809,-2.4434,-2.4216,-2.3427,-2.4038,-2.3322,-2.174,-2.1702,-2.127,-2.0716,-2.1342,-2.1592,-2.1573,-2.1523,-2.1416,-2.1201,-2.0523,-2.0347,-2.0405,-2.0477,-2.0503,-2.0527,-2.0586,-2.0605,-2.0586,-2.0547,-2.0703,-2.0893,-2.0832,-2.1029,-2.1328,-2.1797,-2.1387,-2.1035,-2.1504,-2.1074,-2.0605,-2.0605,-2.0605,-2.0455,-2.0017,0.0,-1.9014,-1.8531,-1.8823,-1.9196,-1.9453,-2.0012,-2.04,-2.045,-1.9623,-1.9008,-1.878,-1.7362,-1.642,-1.6215,-1.5561,-1.5285,-1.5503,-1.633,-1.6772,-1.6772,-1.8453,-1.9203,-1.9004,-1.9685,-1.9039,-1.7292,-1.7413,-1.6918,-1.5987,-1.583,-1.6388,-1.7388,-1.7176,-1.7337,-1.7792,-1.8657,-1.9004,-1.9107,-1.9985,-2.0277,-2.0233,-2.2028,-2.1652,-2.1325,-2.0584,-2.0353,-2.0277,-2.0304,-2.0312,-2.0312,-2.0312,-2.0312,-2.0312,-2.0312,-2.0312,-2.0312,-2.0312,-2.0312,-2.0331,-2.0389,-2.0446,-2.0485,-2.0485,-2.0558,-2.0976,-2.1775,-2.2596,-2.3398,-2.4219,-2.4277,-2.4727,-2.5508,-2.4687,-2.4746,-2.5527,-2.5586,-2.509,-2.4215,-2.4274,-2.3266,-2.1611,-2.1611,-2.1534,-2.1427,-2.1485,-2.1504,-2.1504,-2.1504,-2.1023,-2.0389,-2.0331,-2.0339,-2.0412,-2.0484,-2.0546,-2.0586,-2.0605,-2.0605,-2.0605,-2.0586,-2.1191,-2.1797,-2.1796,-2.2402,-2.2812,-2.207,-2.1855,-2.1582,-2.0859,-2.0644,-2.0605,-2.0605,-2.0605,-2.0292,-1.933,0.0,0.0,-1.8954,-1.9041,-1.9395,-2.0211,-2.0366,-2.0381,-2.0327,-1.9581,-1.8742,-1.7876,-1.6984,-1.6157,-1.5349,-1.5228,-1.558,-1.6388,-1.7196,-1.7606,-1.7606,-1.935,-1.9804,-1.9016,-1.9676,-1.8734,-1.6418,-1.7028,-1.6506,-1.5186,-1.6747,-1.7106,-1.6696,-1.8203,-1.8376,-1.7799,-1.8665,-1.8992,-1.9107,-1.9985,-2.0169,-2.0022,-2.2534,-2.187,-2.1408,-2.11,-2.0639,-2.0312,-2.0312,-2.0312,-2.0312,-2.0312,-2.0312,-2.0304,-2.0302,-2.0337,-2.035,-2.0312,-2.0341,-2.0392,-2.0454,-2.0485,-2.0515,-2.0555,-2.0599,-2.0742,-2.1094,-2.1914,-2.2754,-2.3594,-2.4141,-2.4844,-2.5684,-2.5352,-2.5351,-2.5647,-2.5647,-2.5421,-2.5039,-2.5003,-2.3995,-2.2455,-2.2947,-2.2485,-2.162,-2.2697,-2.3109,-2.3109,-2.3109,-2.2562,-2.1773,-2.1265,-2.1119,-2.1163,-2.1278,-2.132,-2.1258,-2.0757,-2.0605,-2.0723,-2.1269,-2.1641,-2.1894,-2.1894,-2.2519,-2.3066,-2.2773,-2.2285,-2.1816,-2.1465,-2.0977,-2.0605,-2.0605,-2.0605,-2.043,-1.9922,0.0,-1.9922,-1.9773,-1.9799,-1.998,-2.0358,-2.0359,-2.0334,-2.03,-1.953,-1.8665,-1.7779,-1.6946,-1.6118,-1.5247,-1.5715,-1.6157,-1.6484,-1.7273,-1.7972,-1.8491,-1.9165,-1.96,-1.9804,-2.006,-1.9411,-1.798,-1.824,-1.8029,-1.7481,-1.7615,-1.8129,-1.8869,-1.8953,-1.9126,-1.935,-1.9677,-1.9812,-1.985,-2.0177,-2.0249,-2.0188,-2.2177,-2.1523,-2.1119,-2.1119,-2.0677,-2.0312,-2.0312,-2.0312,-2.0312,-2.0312,-2.035,-2.0345,-2.0337,-2.0398,-2.0408,-2.0369,-2.0411,-2.0462,-2.0539,-2.0521,-2.055,-2.0605,-2.0605,-2.0723,-2.0996,-2.1855,-2.2695,-2.3516,-2.4102,-2.4844,-2.5684,-2.543,-2.5398,-2.5601,-2.5601,-2.5539,-2.5467,-2.5425,-2.4591,-2.3311,-2.3879,-2.3379,-2.2447,-2.3648,-2.411,-2.411,-2.411,-2.3552,-2.2716,-2.2197,-2.2022,-2.201,-2.1856,-2.1636,-2.1376,-2.1088,-2.0801,-2.0723,-2.1328,-2.1699,-2.1953,-2.2207,-2.2715,-2.3066,-2.2832,-2.2324,-2.1816,-2.1543,-2.1016,-2.0605,-2.0605,-2.0605,-2.0547,-2.043,-2.0441,-2.0441,-2.0311,-2.0305,-2.0318,-2.035,-2.0331,-2.0312,-2.0312,-1.9254,-1.8337,-1.7741,-1.6696,-1.583,-1.5228,-1.6272,-1.6869,-1.6869,-1.7683,-1.853,-1.9396,-1.9146,-1.9434,-2.0312,-2.0312,-1.9831,-1.8992,-1.9004,-1.885,-1.8568,-1.8261,-1.8792,-1.9869,-1.9542,-1.9754,-2.0312,-2.0312,-2.0312,-2.0312,-2.0331,-2.0292,-2.0227,-2.0465,-2.0312,-2.0312,-2.0312,-2.0312,-2.0312,-2.0312,-2.0312,-2.0312,-2.0312,-2.0427,-2.0462,-2.0418,-2.0463,-2.0504,-2.0504,-2.0512,-2.0531,-2.0589,-2.06,-2.0605,-2.0605,-2.0605,-2.1016,-2.1875,-2.2734,-2.3574,-2.4394,-2.4394,-2.4844,-2.5684,-2.4805,-2.4849,-2.5611,-2.5601,-2.5524,-2.5409,-2.5409,-2.4889,-2.411,-2.411,-2.411,-2.411,-2.411,-2.411,-2.411,-2.411,-2.3552,-2.2821,-2.2887,-2.2953,-2.2862,-2.2054,-2.1262,-2.0781,-2.1641,-2.1289,-2.0605,-2.0605,-2.123,-2.207,-2.2891,-2.3144,-2.2969,-2.2109,-2.1894,-2.1641,-2.0781,-2.0605,-2.0605,-2.0605,-2.0605,-2.0605,-2.0605,-2.0547,-2.049,-2.0506,-2.0379,-2.0307,-2.0308,-2.0312,-2.0312,-2.0312,-1.8734,-1.7722,-1.7722,-1.6157,-1.5209,-1.5189,-1.6792,-1.7702,-1.7702,-1.8549,-1.9415,-2.0292,-1.9434,-1.9434,-2.0312,-2.0312,-1.985,-1.9011,-1.9011,-1.8549,-1.7779,-1.8626,-1.9011,-1.9088,-1.9946,-2.0312,-2.0312,-2.0312,-2.0312,-2.0312,-2.0389,-2.0273,-2.0076,-2.0465,-2.0312,-2.0312,-2.0312,-2.0312,-2.0331,-2.0369,-2.0369,-2.0389,-2.0427,-2.0485,-2.0488,-2.0474,-2.0526,-2.055,-2.0504,-2.0541,-2.0577,-2.0597,-2.0601,-2.0605,-2.0605,-2.0605,-2.1016,-2.1875,-2.1562,-2.2363,-2.4394,-2.3828,-2.4297,-2.5683,-2.5396,-2.5344,-2.5538,-2.5483,-2.5409,-2.5322,-2.5322,-2.4851,-2.4149,-2.4716,-2.4601,-2.4168,-2.4736,-2.4947,-2.4947,-2.4947,-2.4409,-2.3639,-2.3141,-2.3398,-2.3786,-2.3015,-2.259,-2.2168,-2.1269,-2.0801,-2.0723,-2.1348,-2.1269,-2.1328,-2.2754,-2.3144,-2.3125,-2.2871,-2.2344,-2.1641,-2.0781,-2.0605,-2.0605,-2.0605,-2.0605,-2.0605,-2.0605,-2.0547,-2.0526,-2.0562,-2.0406,-2.0326,-2.0366,-2.0331,-2.0312,-2.0312,-1.9273,-1.8607,-1.8607,-1.7061,-1.5849,-1.5228,-1.6824,-1.7774,-1.7774,-1.8631,-1.9469,-2.0292,-1.9434,-1.9434,-2.0312,-2.0312,-2.0158,-1.9908,-1.9908,-1.9773,-1.9542,-1.9792,-1.9908,-1.9927,-2.0196,-2.0312,-2.0312,-2.0312,-2.0312,-2.0312,-2.0389,-2.0325,-2.0225,-2.0408,-2.0312,-2.0312,-2.0312,-2.0312,-2.0315,-2.0392,-2.0422,-2.0446,-2.0485,-2.052,-2.0542,-2.0546,-2.0584,-2.059,-2.0551,-2.0588,-2.0605,-2.0605,-2.0605,-2.0742,-2.1094,-2.1113,-2.1367,-2.1894,-2.2031,-2.2852,-2.4394,-2.4258,-2.4707,-2.5703,-2.5635,-2.5569,-2.5511,-2.5436,-2.537,-2.5303,-2.5303,-2.5024,-2.462,-2.5101,-2.5005,-2.462,-2.512,-2.5303,-2.5303,-2.5303,-2.5005,-2.4543,-2.412,-2.4154,-2.4259,-2.3827,-2.3184,-2.2422,-2.1406,-2.0879,-2.0703,-2.123,-2.0996,-2.0937,-2.2285,-2.2402,-2.2168,-2.2168,-2.1758,-2.123,-2.0703,-2.0605,-2.0605,-2.0605,-2.0879,-2.0996,-2.0664,-2.0859,-2.0957,-2.0644,-2.045,-2.0355,-2.0404,-2.035,-2.0312,-2.0312,-1.9511,-1.8857,-1.8511,-1.7568,-1.6625,-1.5766,-1.7382,-1.8196,-1.7854,-1.8987,-1.9838,-2.0312,-1.9792,-1.9792,-2.0312,-2.0312,-2.0312,-2.0312,-2.0312,-2.0312,-2.0312,-2.0312,-2.0312,-2.0312,-2.0331,-2.035,-2.035,-2.0369,-2.0389,-2.0396,-2.0456,-2.0421,-2.0337,-2.0312,-2.0312,-2.0312,-2.0312,-2.03,-2.0308,-2.0394,-2.0454,-2.0499,-2.0499,-2.0561,-2.0605,-2.0605,-2.0605,-2.0605,-2.0605,-2.0605,-2.0605,-2.0605,-2.0664,-2.1074,-2.1875,-2.2031,-2.2129,-2.2129,-2.3535,-2.4355,-2.4512,-2.5234,-2.5625,-2.5703,-2.5628,-2.5572,-2.5505,-2.5428,-2.537,-2.5303,-2.5303,-2.5303,-2.5303,-2.5303,-2.5303,-2.5303,-2.5303,-2.5303,-2.5303,-2.5303,-2.5341,-2.5409,-2.5486,-2.501,-2.4394,-2.4394,-2.3301,-2.1992,-2.1914,-2.1289,-2.0605,-2.0605,-2.0605,-2.0801,-2.168,-2.123,-2.0625,-2.0703,-2.0664,-2.0605,-2.0605,-2.0605,-2.0605,-2.0605,-2.125,-2.1523,-2.0723,-2.1269,-2.1501,-2.0701,-2.0489,-2.039,-2.0392,-2.035,-2.0312,-2.0312,-1.9581,-1.8761,-1.7895,-1.7882,-1.7504,-1.6554,-1.8152,-1.8727,-1.793,-1.9461,-2.0298,-2.0315,-2.0358,-2.0369,-2.0312,-2.0312,-2.0312,-2.0312,-2.0312,-2.0312,-2.0312,-2.0312,-2.03,-2.0315,-2.0373,-2.0392,-2.0412,-2.0477,-2.0481,-2.0508,-2.057,-2.0511,-2.04,-2.0312,-2.0312,-2.0312,-2.0312,-2.0295,-2.0322,-2.0383,-2.0453,-2.0494,-2.0494,-2.0564,-2.0605,-2.0605,-2.0605,-2.0605,-2.0605,-2.0605,-2.0605,-2.0605,-2.123,-2.1699,-2.1894,-2.3164,-2.3867,-2.3867,-2.3555,-2.4043,-2.543,-2.4922,-2.5039,-2.5703,-2.5636,-2.5566,-2.5505,-2.5428,-2.537,-2.5303,-2.5303,-2.5303,-2.5303,-2.5303,-2.5303,-2.5303,-2.5303,-2.5303,-2.5303,-2.5303,-2.5341,-2.5428,-2.5543,-2.5049,-2.4394,-2.4394,-2.3672,-2.2715,-2.207,-2.1289,-2.0605,-2.0605,-2.0605,-2.0801,-2.168,-2.123,-2.0781,-2.1465,-2.1094,-2.0605,-2.0605,-2.0605,-2.0605,-2.0605,-2.0742,-2.082,-2.0625,-2.0701,-2.0746,-2.0547,-2.0418,-2.0318,-2.0312,-2.0312,-2.0312,-2.0312,-2.0139,-1.9677,-1.8857,-1.8806,-1.8165,-1.667,-1.7602,-1.8092,-1.7907,-1.8915,-1.9768,-2.0371,-2.0346,-2.0312,-2.0312,-2.0312,-2.0312,-2.0312,-2.0312,-2.0312,-2.0312,-2.0312,-2.0334,-2.0371,-2.0391,-2.0391,-2.0391,-2.041,-2.0456,-2.0493,-2.0518,-2.0494,-2.0467,-2.0312,-2.0312,-2.0312,-2.0312,-2.0306,-2.0321,-2.039,-2.0458,-2.0506,-2.0507,-2.0566,-2.0605,-2.0605,-2.0605,-2.0605,-2.0605,-2.0605,-2.0605,-2.0605,-2.1035,-2.1641,-2.248,-2.332,-2.418,-2.5,-2.457,-2.4785,-2.5703,-2.5234,-2.5254,-2.5703,-2.5595,-2.5535,-2.5495,-2.5398,-2.5322,-2.5303,-2.5303,-2.5303,-2.5303,-2.5303,-2.5303,-2.5303,-2.5303,-2.5303,-2.5303,-2.5341,-2.5149,-2.4889,-2.4994,-2.4478,-2.3711,-2.332,-2.2891,-2.2363,-2.1523,-2.0957,-2.0605,-2.0605,-2.0605,-2.0703,-2.1172,-2.0937,-2.082,-2.1699,-2.123,-2.0605,-2.0605,-2.0605,-2.0605,-2.0605,-2.0937,-2.1074,-2.0664,-2.0911,-2.1027,-2.0612,-2.0427,-2.035,-2.035,-2.0331,-2.0312,-2.0312,-2.0312,-2.0139,-1.9704,-1.9723,-1.92,-1.7901,-1.8294,-1.8384,-1.7952,-1.8795,-1.9414,-1.9784,-2.0231,-2.0389,-2.0312,-2.0312,-2.0312,-2.0312,-2.0312,-2.0312,-2.0292,-2.0328,-2.0371,-2.0395,-2.0475,-2.0506,-2.0506,-2.0506,-2.0522,-2.0558,-2.0558,-2.0502,-2.043,-2.0312,-2.0312,-2.0312,-2.0312,-2.0312,-2.0331,-2.0369,-2.0427,-2.0463,-2.0488,-2.0545,-2.0605,-2.0605,-2.0605,-2.0605,-2.0605,-2.0605,-2.0605,-2.0605,-2.0738,-2.1461,-2.291,-2.3066,-2.3789,-2.5215,-2.5391,-2.5547,-2.5703,-2.5703,-2.5703,-2.5703,-2.5595,-2.5517,-2.551,-2.5385,-2.5322,-2.5303,-2.5303,-2.5303,-2.5303,-2.5303,-2.5207,-2.512,-2.5245,-2.5207,-2.512,-2.5313,-2.4995,-2.4494,-2.4417,-2.3926,-2.3184,-2.2363,-2.2012,-2.1758,-2.1035,-2.0723,-2.0605,-2.0605,-2.0703,-2.082,-2.082,-2.0937,-2.1211,-2.1934,-2.1328,-2.0605,-2.0605,-2.0605,-2.0605,-2.0605,-2.1191,-2.1445,-2.0723,-2.1191,-2.1413,-2.0682,-2.048,-2.0407,-2.0389,-2.035,-2.0331,-2.0331,-2.0331,-2.0331,-2.0331,-2.0446,-2.0123,-1.9259,-1.9129,-1.8809,-1.8242,-1.8633,-1.9017,-1.9338,-2.0025,-2.0346,-2.0318,-2.0327,-2.0312,-2.0312,-2.0312,-2.0312,-2.03,-2.0369,-2.039,-2.0418,-2.0521,-2.0586,-2.0586,-2.0605,-2.0605,-2.0605,-2.0581,-2.0516,-2.0394,-2.0312,-2.0312,-2.0312,-2.0312,-2.0312,-2.0312,-2.0312,-2.0331,-2.0346,-2.0404,-2.0525,-2.0605,-2.0605,-2.0605,-2.0605,-2.0605,-2.0605,-2.0605,-2.0605,-2.1258,-2.1765,-2.2051,-2.2734,-2.3203,-2.3457,-2.4199,-2.4941,-2.5703,-2.5703,-2.5703,-2.5703,-2.5683,-2.5609,-2.5495,-2.5476,-2.5409,-2.5303,-2.5303,-2.5303,-2.5303,-2.5303,-2.4889,-2.4341,-2.5043,-2.487,-2.436,-2.5063,-2.5329,-2.5231,-2.4602,-2.4316,-2.4062,-2.3203,-2.2461,-2.1875,-2.1758,-2.1191,-2.0605,-2.0605,-2.1152,-2.1719,-2.1719,-2.2246,-2.2793,-2.291,-2.1738,-2.0605,-2.0605,-2.0605,-2.0605,-2.0605,-2.0703,-2.0742,-2.0625,-2.0644,-2.0658,-2.0523,-2.0443,-2.0404,-2.0412,-2.0389,-2.0389,-2.0389,-2.0389,-2.0408,-2.0465,-2.0485,-2.0133,-1.9327,-1.8573,-1.8477,-1.9102,-1.7773,-1.8105,-2.0292,-1.971,-1.9722,-2.0385,-2.0392,-2.0369,-2.0312,-2.0312,-2.0312,-2.0292,-2.0315,-2.034,-2.0418,-2.0482,-2.0508,-2.0527,-2.0586,-2.0605,-2.0584,-2.0531,-2.0466,-2.0394,-2.0312,-2.0312,-2.0312,-2.0312,-2.0312,-2.0312,-2.0312,-2.0331,-2.0369,-2.0408,-2.0513,-2.0605,-2.0605,-2.0605,-2.0605,-2.0605,-2.0605,-2.0605,-2.0605,-2.0933,-2.1356,-2.188,-2.2234,-2.2637,-2.3086,-2.3477,-2.3867,-2.4258,-2.5215,-2.5703,-2.5703,-2.5664,-2.5598,-2.5478,-2.4992,-2.4716,-2.4601,-2.4101,-2.3908,-2.3908,-2.3938,-2.3755,-2.3476,-2.3812,-2.4024,-2.4159,-2.4534,-2.4465,-2.4046,-2.3261,-2.3301,-2.3437,-2.2129,-2.1797,-2.1894,-2.1894,-2.1289,-2.0801,-2.1797,-2.1973,-2.2012,-2.2461,-2.2871,-2.3144,-2.3105,-2.2539,-2.2012,-2.2031,-2.168,-2.1328,-2.1328,-2.0937,-2.0605,-2.0605,-2.0586,-2.0566,-2.0554,-2.0492,-2.0431,-2.0399,-2.0402,-2.0402,-2.0402,-2.0436,-2.0465,-2.0504,-2.0531,-2.0399,-2.0058,-1.9199,-1.8906,-1.9297,-1.8555,-1.8672,-1.9766,-1.9914,-2.0095,-2.0337,-2.038,-2.0373,-2.0369,-2.0369,-2.035,-2.0312,-2.035,-2.0357,-2.034,-2.0464,-2.0492,-2.0508,-2.0566,-2.0605,-2.0583,-2.0526,-2.0467,-2.0386]}]]